[[{"header":{"parameterUnit":"m.s-1","parameterCategory":1,"la1":31.0,"la2":29.5877,"lo1":-88.7671,"lo2":-86.6584,"dy":0.0162,"dx":0.0185,"nx":115,"ny":88,"refTime":"2024-06-16T00:00:00:Z","depth":0,"parameterNumber":2,"parameterNumberName":"U-component_of_WINDS"},"data":[0.0,0.0,0.0,0.0,0.0,0.0,0.0,0.0,0.0,0.0,0.0,0.0,0.0,0.0,0.0,0.0,0.0,0.0,0.0,0.0,0.0,0.0,0.0,0.0,0.0,0.0,0.0,0.0,0.0,0.0,0.0,0.0,0.0,0.0,0.0,0.0,0.0,0.0,0.0,0.0,0.0,0.0,0.0,0.0,0.0,0.0,0.0,0.0,0.0,0.0,0.0,0.0,0.0,0.0,0.0,0.0,0.0,0.0,0.0,0.0,0.0,0.0,0.0,0.0,0.0,0.0,0.0,0.0,0.0,0.0,0.0,0.0,0.0,0.0,0.0,0.0,0.0,0.0,0.0,0.0,0.0,0.0,0.0,0.0,0.0,0.0,0.0,0.0,0.0,0.0,0.0,0.0,0.0,0.0,0.0,0.0,0.0,0.0,0.0,0.0,0.0,0.0,0.0,0.0,0.0,0.0,0.0,0.0,0.0,0.0,0.0,0.0,0.0,0.0,0.0,0.0,0.0,0.0,0.0,0.0,0.0,0.0,0.0,0.0,0.0,0.0,0.0,0.0,0.0,0.0,0.0,0.0,0.0,0.0,0.0,0.0,0.0,0.0,0.0,0.0,0.0,0.0,0.0,0.0,0.0,0.0,0.0,0.0,0.0,0.0,0.0,0.0,0.0,0.0,0.0,0.0,0.0,0.0,0.0,0.0,0.0,0.0,0.0,0.0,0.0,0.0,0.0,0.0,0.0,0.0,0.0,0.0,0.0,0.0,0.0,0.0,0.0,0.0,0.0,0.0,0.0,0.0,0.0,0.0,0.0,0.0,0.0,0.0,0.0,0.0,0.0,0.0,0.0,0.0,0.0,0.0,0.0,0.0,0.0,0.0,0.0,0.0,0.0,0.0,0.0,0.0,0.0,0.0,0.0,0.0,0.0,0.0,0.0,0.0,0.0,0.0,0.0,0.0,0.0,0.0,0.0,0.0,0.0,0.0,0.0,0.0,0.0,0.0,0.0,0.0,0.0,0.0,0.0,0.0,0.0,0.0,0.0,0.0,0.0,0.0,0.0,0.0,0.0,0.0,0.0,0.0,0.0,0.0,0.0,0.0,0.0,0.0,0.0,0.0,0.0,0.0,0.0,0.0,0.0,0.0,0.0,0.0,0.0,0.0,0.0,0.0,0.0,0.0,0.0,0.0,0.0,0.0,0.0,0.0,0.0,0.0,0.0,0.0,0.0,0.0,0.0,0.0,0.0,0.0,0.0,0.0,0.0,0.0,0.0,0.0,0.0,0.0,0.0,0.0,0.0,0.0,0.0,0.0,0.0,0.0,0.0,0.0,0.0,0.0,0.0,0.0,0.0,0.0,0.0,0.0,0.0,0.0,0.0,0.0,0.0,0.0,0.0,0.0,0.0,0.0,0.0,0.0,0.0,0.0,0.0,0.0,0.0,0.0,0.0,0.0,0.0,0.0,0.0,0.0,0.0,0.0,0.0,0.0,0.0,0.0,0.0,0.0,0.0,0.0,0.0,0.0,0.0,0.0,0.0,0.0,0.0,0.0,0.0,0.0,0.0,0.0,0.0,0.0,0.0,0.0,0.0,0.0,0.0,0.0,0.0,0.0,0.0,0.0,0.0,0.0,0.0,0.0,0.0,0.0,0.0,0.0,0.0,0.0,0.0,0.0,0.0,0.0,0.0,0.0,0.0,0.0,0.0,0.0,0.0,0.0,0.0,0.0,0.0,0.0,0.0,0.0,0.0,0.0,0.0,0.0,0.0,0.0,0.0,0.0,0.0,0.0,0.0,0.0,0.0,0.0,0.0,0.0,0.0,0.0,0.0,0.0,0.0,0.0,0.0,0.0,0.0,0.0,0.0,0.0,0.0,0.0,0.0,0.0,0.0,0.0,0.0,0.0,0.0,0.0,0.0,0.0,0.0,0.0,0.0,0.0,0.0,0.0,0.0,0.0,0.0,0.0,0.0,0.0,0.0,0.0,0.0,0.0,0.0,0.0,0.0,0.0,0.0,0.0,0.0,0.0,0.0,0.0,0.0,0.0,0.0,0.0,0.0,0.0,0.0,0.0,0.0,0.0,0.0,0.0,0.0,0.0,0.0,0.0,0.0,0.0,0.0,0.0,0.0,0.0,0.0,0.0,0.0,0.0,0.0,0.0,0.0,0.0,0.0,0.0,0.0,0.0,0.0,0.0,0.0,0.0,0.0,0.0,0.0,0.0,0.0,0.0,0.0,0.0,0.0,0.0,0.0,0.0,0.0,0.0,0.0,0.0,0.0,0.0,0.0,0.0,0.0,0.0,0.0,0.0,0.0,0.0,0.0,0.0,0.0,0.0,0.0,0.0,0.0,0.0,0.0,0.0,0.0,0.0,0.0,0.0,0.0,0.0,0.0,0.0,0.0,0.0,0.0,0.0,0.0,0.0,0.0,0.0,0.0,0.0,0.0,0.0,0.0,0.0,0.0,0.0,0.0,0.0,0.0,0.0,0.0,0.0,0.0,0.0,0.0,0.0,0.0,0.0,0.0,0.0,0.0,0.0,0.0,0.0,0.0,0.0,0.0,0.0,0.0,0.0,0.0,0.0,0.0,0.0,0.0,0.0,0.0,0.0,0.0,0.0,0.0,0.0,0.0,0.0,0.0,0.0,0.0,0.0,0.0,0.0,0.0,0.0,0.0,0.0,0.0,0.0,0.0,0.0,0.0,0.0,0.0,0.0,0.0,0.0,0.0,0.0,0.0,0.0,0.0,0.0,0.0,0.0,0.0,0.0,0.0,0.0,0.0,0.0,0.0,0.0,0.0,0.0,0.0,0.0,0.0,0.0,0.0,0.0,0.0,0.0,0.0,0.0,0.0,0.0,0.0,0.0,0.0,0.0,0.0,0.0,0.0,0.0,0.0,0.0,0.0,0.0,0.0,0.0,0.0,0.0,0.0,0.0,0.0,0.0,0.0,0.0,0.0,0.0,0.0,0.0,0.0,0.0,0.0,0.0,0.0,0.0,0.0,0.0,0.0,0.0,0.0,0.0,0.0,0.0,0.0,0.0,0.0,0.0,0.0,0.0,0.0,0.0,0.0,0.0,0.0,0.0,0.0,0.0,0.0,0.0,0.0,0.0,0.0,0.0,0.0,0.0,0.0,0.0,0.0,0.0,0.0,0.0,0.0,0.0,0.0,0.0,0.0,0.0,0.0,0.0,0.0,0.0,0.0,0.0,0.0,0.0,0.0,0.0,0.0,0.0,0.0,0.0,0.0,0.0,0.0,0.0,0.0,0.0,0.0,0.0,0.0,0.0,0.0,0.0,0.0,0.0,0.0,0.0,0.0,0.0,0.0,0.0,0.0,0.0,0.0,0.0,0.0,0.0,0.0,0.0,0.0,0.0,0.0,0.0,0.0,0.0,0.0,0.0,0.0,0.0,0.0,0.0,0.0,0.0,0.0,0.0,0.0,0.0,0.0,0.0,0.0,0.0,0.0,0.0,0.0,0.0,0.0,0.0,0.0,0.0,0.0,0.0,0.0,0.0,0.0,0.0,0.0,0.0,0.0,0.0,0.0,0.0,0.0,0.0,0.0,0.0,0.0,0.0,0.0,0.0,0.0,0.0,0.0,0.0,0.0,0.0,0.0,0.0,0.0,0.0,0.0,0.0,0.0,0.0,0.0,0.0,0.0,0.0,0.0,0.0,0.0,0.0,0.0,0.0,0.0,0.0,0.0,0.0,0.0,0.0,0.0,0.0,0.0,0.0,0.0,0.0,0.0,0.0,0.0,0.0,0.0,0.0,0.0,0.0,0.0,0.0,0.0,0.0,0.0,0.0,0.0,0.0,0.0,0.0,0.0,0.0,0.0,0.0,0.0,0.0,0.0,0.0,0.0,0.0,0.0,0.0,0.0,0.0,0.0,0.0,0.0,0.0,0.0,0.0,0.0,0.0,0.0,0.0,0.0,0.0,0.0,0.0,0.0,0.0,0.0,0.0,0.0,0.0,0.0,0.0,0.0,0.0,0.0,0.0,0.0,0.0,0.0,0.0,0.0,0.0,0.0,0.0,0.0,0.0,0.0,0.0,0.0,0.0,0.0,0.0,0.0,0.0,0.0,0.0,0.0,0.0,0.0,0.0,0.0,0.0,0.0,0.0,0.0,0.0,0.0,0.0,0.0,0.0,0.0,0.0,0.0,0.0,0.0,0.0,0.0,0.0,0.0,0.0,0.0,0.0,0.0,0.0,0.0,0.0,0.0,0.0,0.0,0.0,0.0,0.0,0.0,0.0,0.2519,0.0,0.0,0.0,0.0,0.0,0.0,0.0,0.0,0.0,0.0,0.0,0.0,0.0,0.0,0.0,0.0,0.0,0.0,0.0,0.0,0.0,0.0,0.0,0.0,0.0,0.0,0.0,0.0,0.0,0.0,0.0,0.0,0.0,0.0,0.0,0.0,0.0,0.0,0.0,0.0,0.0,0.0,0.0,0.0,0.0,0.0,0.0,0.0,0.0,0.0,0.0,0.0,0.0,0.0,0.0,0.0,0.0,0.0,0.0,0.0,0.0,0.0,0.0,0.0,0.0,0.0,0.0,0.0,0.0,0.0,0.0,0.0,0.0,0.0,0.0,0.0,0.0,0.0,0.0,0.0,0.0,0.0,0.0,0.0,0.0,0.0,0.0,0.0,0.0,0.0,0.0,0.0,0.0,0.0,0.0,0.0,0.0,0.0,0.0,0.0,0.0,0.0,0.0,0.0,0.0,0.0,0.0,0.0,0.0,0.0,0.2425,0.2425,0.2423,0.2353,0.2178,0.0,0.0,0.0,0.0,0.0,0.0,0.0,0.0,0.0,0.0,0.0,0.0,0.0,0.0,0.0,0.0,0.0,0.0,0.0,0.0,0.0,0.0,0.0,0.0,0.0,0.0,0.0,0.0,0.0,0.0,0.0,0.0,0.0,0.0,0.0,0.0,0.0,0.0,0.0,0.0,0.0,0.0,0.0,0.0,0.0,0.0,0.0,0.0,0.0,0.0,0.0,0.0,0.0,0.0,0.0,0.0,0.0,0.0,0.0,0.0,0.0,0.0,0.0,0.0,0.0,0.0,0.0,0.0,0.0,0.0,0.0,0.0,0.0,0.0,0.0,0.0,0.0,0.0,0.0,0.0,0.0,0.0,0.0,0.0,0.0,0.0,0.0,0.0,0.0,0.0,0.0,0.0,0.0,0.0,0.0,0.0,0.0,0.0,0.0,0.0,0.0,0.0,0.0,0.0,0.0,0.0,0.0,0.0,0.0,0.0,0.0,0.0,0.182,0.1766,0.1657,0.0,0.0,0.0,0.0,0.0,0.0,0.0,0.0,0.0,0.0,0.0,0.0,0.0,0.0,0.0,0.0,0.0,0.0,0.0,0.0,0.0,0.0,0.0,0.0,0.0,0.0,0.0,0.0,0.0,0.0,0.0,0.0,0.0,0.0,0.0,0.0,0.0,0.0,0.0,0.0,0.0,0.0,0.0,0.0,0.0,0.0,0.0,0.0,0.0,0.0,0.0,0.0,0.0,0.0,0.0,0.0,0.0,0.0,0.0,0.0,0.0,0.0,0.0,0.0,0.0,0.0,0.0,0.0,0.0,0.0,0.0,0.0,0.0,0.0,0.0,0.0,0.0,0.0,0.0,0.0,0.0,0.0,0.0,0.0,0.0,0.0,0.0,0.0,0.0,0.0,0.0,0.0,0.0,0.0,0.0,0.0,0.0,0.0,0.0,0.0,0.0,0.0,0.0,0.0,0.0,0.0,0.0,0.0,0.0,0.0,0.0653,0.0653,0.0655,0.0,0.0637,0.0,0.0,0.0,0.0,0.0,0.0,0.0,0.0,0.0,0.0,0.0,0.0,0.0,0.0,0.0,0.0,0.0,0.0,0.0,0.0,0.0,0.0,0.0,0.0,0.0,0.0,0.0,0.0,0.0,0.0,0.0,0.0,0.0,0.0,0.0,0.0,0.0,0.0,0.0,0.0,0.0,0.0,0.0,0.0,0.0,0.0,0.0,0.0,0.0,0.0,0.0,0.0,0.0,0.0,0.0,0.0,0.0,0.0,0.0,0.0,0.0,0.0,0.0,0.0,0.0,0.0,0.0,0.0,0.0,0.0,0.0,0.0,0.0,0.0,0.0,0.0,0.0,0.0,0.0,0.0,0.0,0.0,0.0,0.0,0.0,0.0,0.0,0.0,0.0,0.0,0.0,0.0,0.0,0.0,0.0,0.0,0.0,0.0,0.0,0.0,0.0,0.0,0.0,0.0,0.0,0.0,0.0,0.0,0.0,0.0,0.0553,0.0553,0.0541,0.0503,0.0,0.0,0.0,0.0,0.0,0.0,0.0,0.0,0.0,0.0,0.0,0.0,0.0,0.0,0.0,0.0,0.0,0.0,0.0,0.0,0.0,0.0,0.0,0.0,0.0,0.0,0.0,0.0,0.0,0.0,0.0,0.0,0.0,0.0,0.0,0.0,0.0,0.0,0.0,0.0,0.0,0.0,0.0,0.0,0.0,0.0,0.0,0.0,0.0,0.0,0.0,0.0,0.0,0.0,0.0,0.0,0.0,0.0,0.0,0.0,0.0,0.0,0.0,0.0,0.0,0.0,0.0,0.0,0.0,0.0,0.0,0.0,0.0,0.0,0.0,0.0,0.0,0.0,0.0,0.0,0.0,0.0,0.0,0.0,0.0,0.0,0.0,0.0,0.0,0.0,0.0,0.0,0.0,0.0,0.0,0.0,0.0,0.0,0.0,0.0,0.0,0.0,0.0,0.0,0.0,0.0,0.0,0.0,0.0,0.0,0.0403,0.0,0.0421,0.0445,0.0363,0.0218,0.0,0.0,0.0,0.0,0.0,0.0,0.0,0.0,0.0,0.0,0.0,0.0,0.0,0.0,0.0,0.0,0.0,0.0,0.0,0.0,0.0,0.0,0.0,0.0,0.0,0.0,0.0,0.0,0.0,0.0,0.0,0.0,0.0,0.0,0.0,0.0,0.0,0.0,0.0,0.0,0.0,0.0,0.0,0.0,0.0,0.0,0.0,0.0,0.0,0.0,0.0,0.0,0.0,0.0,0.0,0.0,0.0,0.0,0.0,0.0,0.0,0.0,0.0,0.0,0.0,0.0,0.0,0.0,0.0,0.0,0.0,0.0,0.0,0.0,0.0,0.0,0.0,0.0,0.0,0.0,0.0,0.0,0.0,0.0,0.0,0.0,0.0,0.0,0.0,0.0,0.0,0.0,0.0,0.0,0.0,0.0,0.0,0.0,0.0,0.0,0.0,0.0,0.0,0.0,0.0,0.0,0.0,0.0,0.0,0.0,0.0,0.0,0.0,0.0,0.0,0.0,0.0,0.0,0.0,0.0,0.0,0.0,0.0,0.0,0.0,0.0,0.0,0.0,0.0,0.0,0.0,0.0,0.0,0.0,0.0,0.0,0.0,0.0,0.0,0.0,0.0,0.0,0.0,0.0,0.0,0.0,0.0,0.0,0.0,0.0,0.0,0.0,0.0,0.0,0.0,0.0,0.0,0.0,0.0,0.0,0.0,0.0,0.0,0.0,0.0,0.0,0.0,0.0,0.0,0.0,0.0,0.0,0.0,0.0,0.0,0.0,0.0,0.0,0.0,0.0,0.0,0.0,0.0,0.0,0.0,0.0,0.0,0.0,0.0,0.0,0.0,0.0,0.0,0.0,0.0,0.0,0.0,0.0,0.0,0.0,0.0,0.0,0.0,0.0,0.0,0.0,0.0,0.0,0.0,0.0,0.0,0.0,0.0,0.0,0.0,0.0,0.0,0.0,0.0,0.0,0.0,0.0,0.0,0.0,0.0,0.0,0.0,0.0,0.0,0.0,0.0,0.0,0.0,0.0,0.0,0.0,0.0,0.0,0.0,0.0,0.0,0.0,0.0,0.0,0.0,0.0,0.0,0.0,0.0,0.0,0.0,0.0,0.0,0.0,0.0,0.0,0.0,0.0,0.0,0.0,0.0,0.0,0.0,0.0,0.0,0.0,0.0,0.0,0.0,0.0,0.0,0.0,0.0,0.0,0.0,0.0,0.0,0.0,0.0,0.0,0.0,0.0,0.0,0.0,0.0,0.0,0.0,0.0,0.0,0.0,0.0,0.0,0.0,0.0,0.0,0.0,0.0,0.0,0.0,0.0,0.0,0.0,0.0,0.0,0.0,0.0,0.0,0.0,0.0,0.0,0.0,0.0,0.0,0.0,0.0,0.0,0.0,0.0,0.0,0.0,0.0,0.0,0.0,0.0,0.0,0.0,0.0,0.0,0.0,0.0,0.0,0.0,0.0,0.0,0.0,0.0,0.0,0.0,0.0,0.0,0.0,0.0,0.0,0.0,0.0,0.0,0.0,0.0,0.0,0.0,0.0,0.0,0.0,0.0,0.0,0.0,0.0,0.0,0.0,0.0,0.0,0.0,0.0,0.0,0.0,0.0,0.0,0.0,0.0,0.0,0.0,0.0,0.0,0.0,0.0,0.0,0.0,0.0,0.0,0.0,0.0,0.0,0.0,0.0,0.0,0.0,0.0,0.0,0.0,0.0,0.0,0.0,0.0,0.0,0.0,0.0,0.0,0.0,0.0,0.0,0.0,0.0,0.0,0.0,0.0,0.0,0.0,0.0,0.0,0.0,0.0,0.0,0.0,0.0,0.0,0.0,0.0,0.0,0.0,0.0,0.0,0.0,0.0,0.0,0.0,0.0,0.0,0.0,0.0,0.0,0.0,0.0,0.0,0.0,0.0,0.0,0.0,0.0,0.0,0.0,0.0,0.0,0.0,0.0,0.0,0.0,0.0,0.0,0.0,0.0,0.0,0.0,0.0,0.0,0.0,0.0,0.0,0.0,0.0,0.0,0.0,0.0,0.0,0.0,0.0,0.0,0.0,0.0,0.0,0.0,0.0,0.0,0.0,0.0,0.0,0.0,0.0,0.0,0.0,0.0,0.0,0.0,0.0,0.0,0.0,0.0,0.0,0.0,0.0,0.0,0.0,0.0,0.0,0.0,0.0,0.0,0.0,0.0,0.0,0.0,0.0,0.0,0.0,0.0,0.0,0.0,0.0,0.0,0.0,0.0,0.0,0.0,0.0,0.0,0.0,0.0,0.0,0.0,0.0,0.0,0.0,0.0,0.0,0.0,0.0,0.0,0.0,0.0,0.0,0.0,0.0,0.0,0.0,0.0,0.0,0.0,0.0,0.0,0.0,0.0,0.0,0.0,0.0,0.0,0.0,0.0,0.0,0.0,0.0,0.0,0.0,0.0,0.0,0.0,0.0,0.0,0.0,0.0,0.0,0.0,0.0,0.0,0.0,0.0,0.0,0.0,0.0,0.0,0.0,0.0,0.0,0.0,0.0,0.0,0.0,0.0,0.0,0.0,0.0,0.0,0.0,0.0,0.0,0.0,0.0,0.0,0.0,0.0,0.0,0.0,0.0,0.0,0.0,0.0,0.0,0.0,0.0,0.0,0.0,0.0,0.0,0.0,0.0,0.0,0.0,0.0,0.0,0.0,0.0,0.0,0.0,0.0,0.0,0.0,0.0,0.0,0.0,0.0,0.0,0.0,0.0,0.0,0.0,0.0,0.0,0.0,0.0,0.0,0.0,0.0,0.0,0.0,0.0,0.0,0.0,0.0,0.0,0.0,0.0,0.0,0.0,0.0,0.0,0.0,0.0,0.0,0.0,0.0,0.0,0.0,0.0,0.0,0.0,0.0,0.0,0.0,0.0,0.0,0.0,0.0,0.0,0.0,0.0,0.0,0.0,0.0,0.0,0.0,0.0,0.0,0.0,0.0,0.0,0.0,0.0,0.0,0.0,0.0,0.0,0.0,0.0,0.0,0.0,-0.0175,-0.0051,0.0,0.0,0.0,0.0,0.0,0.0,0.0,0.0,0.0,0.0,0.0,0.0,0.0,0.0,0.0,0.0,0.0,0.0,0.0,0.0,0.0,0.0,0.0,0.0,0.0,0.0,0.0,0.0,0.0,0.0,0.0,0.0,0.0,0.0,0.0,0.0,0.0,0.0,0.0,0.0,0.0,0.0,0.0,0.0,0.0,0.0,0.0,0.0,0.0,0.0,0.0,0.0,0.0,0.0,0.0,0.0,0.0,0.0,0.0,0.0,0.0,0.0,0.0,0.0,0.0,0.0,0.0,0.0,0.0,0.0,0.0,0.0,0.0,0.0,0.0,0.0,0.0,0.0,0.0,0.0,0.0,0.0,0.0,0.0,0.0,0.0,0.0,0.0,0.0,0.0,0.0,0.0,0.0,0.0,0.0,0.0,0.0,0.0,0.0,0.0,0.0,0.0,0.0,0.0,0.0,0.0,0.0,0.0,0.0,0.0,0.0,0.0,0.0,-0.0451,-0.0195,0.0,0.0,0.0,0.0,0.0,0.0,0.0,0.0,0.0,0.0,0.0,0.0,0.0,0.0,0.0,0.0,0.0,0.0,0.0,0.0,0.0,0.0,0.0,0.0,0.0,0.0,0.0,0.0,0.0,0.0,0.0,0.0,0.0,0.0,0.0,0.0,0.0,0.0,0.0,0.0,0.0,0.0,0.0,0.0,0.0,0.0,0.0,0.0,0.0,0.0,0.0,0.0,0.0,0.0,0.0,0.0,0.0,0.0,0.0,0.0,0.0,0.0,0.0,0.0,0.0,0.0,0.0,0.0,0.0,0.0,0.0,0.0,0.0,0.0,0.0,0.0,0.0,0.0,0.0,0.0,0.0,0.0,0.0,0.0,0.0,0.0,0.0,0.0,0.0,0.0,0.0,0.0,0.0,0.0,0.0,0.0,0.0,0.0,0.0,0.0,0.0,0.0,0.0,0.0,0.0,0.0,0.0,0.0,0.0,0.0,0.0,0.0,0.0,-0.0932,-0.0869,-0.0551,0.0,0.0,0.0,0.0,0.0,0.0,0.0,0.0,0.0,0.0,0.0,0.0,0.0,0.0,0.0,0.0,0.0,0.0,0.0,0.0,0.0,0.0,0.0,0.0,0.0,0.0,0.0,0.0,0.0,0.0,0.0,0.0,0.0,0.0,0.0,0.0,0.0,0.0,0.0,0.0,0.0,0.0,0.0,0.0,0.0,0.0,0.0,0.0,0.0,0.0,0.0,0.0,0.0,0.0,0.0,0.0,0.0,0.0,0.0,0.0,0.0,0.0,0.0,0.0,0.0,0.0,0.0,0.0,0.0,0.0,0.0,0.0,0.0,0.0,0.0,0.0,0.0,0.0,0.0,0.0,0.0,0.0,0.0,0.0,0.0,0.0,0.0,0.0,0.0,0.0,0.0,0.0,0.0,0.0,0.0,0.0,0.0,0.0,0.0,0.0,0.0,0.0,0.0,0.0,0.0,0.0,0.0,0.0,0.0,0.0,0.0,-0.1462,-0.13,-0.1349,-0.1083,-0.05,-0.0327,-0.0196,0.0,0.0,0.0,0.0,0.0,0.0,0.0,0.0,0.0,0.0,0.0,0.0,0.0,0.0,0.0,0.0,0.0,0.0,0.0,0.0,0.0,0.0,0.0,0.0,0.0,0.0,0.0,0.0,0.0,0.0,0.0,0.0,0.0,0.0,0.0,0.0,0.0,0.0,0.0,0.0,0.0,0.0,0.0,0.0,0.0,0.0,0.0,0.0,0.0,0.0,0.0,0.0,0.0,0.0,0.0,0.0,0.0,0.0,0.0,0.0,0.0,0.0,0.0,0.0,0.0,0.0,0.0,0.0,0.0,0.0,0.0,0.0,0.0,0.0,0.0,0.0,0.0,0.0,0.0,0.0,0.0,0.0,0.0,0.0,0.0,0.0,0.0,0.0,0.0,0.0,0.0,0.0,0.0,0.0,0.0,0.0,0.0,0.0,0.0,0.0,0.0,0.0,0.0,0.0,0.0,0.0,0.0,0.0,-0.1842,-0.1653,-0.1735,-0.1578,-0.1184,-0.0853,-0.0471,0.0,0.0,0.0,0.0,0.0,0.0,0.0,0.0,0.0,0.0,0.0,0.0,0.0,0.0,0.0,0.0,0.0,0.0,0.0,0.0,0.0,0.0,0.0,0.0,0.0,0.0,0.0,0.0,0.0,0.0,0.0,0.0,0.0,0.0,0.0,0.0,0.0,0.0,0.0,0.0,0.0,0.0,0.0,0.0,0.0,0.0,0.0,0.0,0.0,0.0,0.0,0.0,0.0,0.0,0.0,0.0,0.0,0.0,0.0,0.0,0.0,0.0,0.0,0.0,0.0,0.0,0.0,0.0,0.0,0.0,0.0,0.0,0.0,0.0,0.0,0.0,0.0,0.0,0.0,0.0,0.0,0.0,0.0,0.0,0.0,0.0,0.0,0.0,0.0,0.0,0.0,0.0,0.0,0.0,0.0,0.0,0.0,0.0,0.0,0.0,0.0,0.0,0.0,0.0,0.0,0.0,0.0,0.0,-0.1994,-0.2075,-0.2135,-0.202,-0.1661,-0.1223,-0.0795,0.0,0.0,0.0,0.0,0.0,0.0,0.0,0.0,0.0,0.0,0.0,0.0,0.0,0.0,0.0,0.0,0.0,0.0,0.0,0.0,0.0,0.0,0.0,0.0,0.0,0.0,0.0,0.0,0.0,0.0,0.0,0.0,0.0,0.0,0.0,0.0,0.0,0.0,0.0,0.0,0.0,0.0,0.0,0.0,0.0,0.0,0.0,0.0,0.0,0.0,0.0,0.0,0.0,0.0,0.0,0.0,0.0,0.0,0.0,0.0,0.0,0.0,0.0,0.0,0.0,0.0,0.0,0.0,0.0,0.0,0.0,0.0,0.0,0.0,0.0,0.0,0.0,0.0,0.0,0.0,0.0,0.0,0.0,0.0,0.0,0.0,0.0,0.0,0.0,0.0,0.0,0.0,0.0,0.0,0.0,0.0,0.0,0.0,0.0,0.0,0.0,0.0,0.0,0.0,0.0,0.0,0.0,0.0,-0.2113,-0.2183,-0.2244,-0.2232,-0.2037,-0.1763,-0.1331,0.0,0.0,0.0,0.0,0.0,0.0,0.0,0.0,0.0,0.0,0.0,0.0,0.0,0.0,0.0,0.0,0.0,0.0,0.0,0.0,0.0,0.0,0.0,0.0,0.0,0.0,0.0,0.0,0.0,0.0,0.0,0.0,0.0,0.0,0.0,0.0,0.0,0.0,0.0,0.0,0.0,0.0,0.0,0.0,0.0,0.0,0.0,0.0,0.0,0.0,0.0,0.0,0.0,0.0,0.0,0.0,0.0,0.0,0.0,0.0,0.0,0.0,0.0,0.0,0.0,0.0,0.0,0.0,0.0,0.0,0.0,0.0,0.0,0.0,0.0,0.0,0.0,0.0,0.0,0.0,0.0,0.0,0.0,0.0,0.0,0.0,0.0,0.0,0.0,0.0,0.0,0.0,0.0,0.0,0.0,0.0,0.0,0.0,0.0,0.0,0.0,0.0,0.0,0.0,0.0,0.0,0.0,-0.2041,-0.2161,-0.2214,-0.2269,-0.2283,-0.229,-0.2237,-0.1857,-0.1179,0.0,0.0,0.0,0.0,0.0,0.0,0.0,0.0,0.0,0.0,0.0,0.0,0.0,0.0,0.0,0.0,0.0,0.0,0.0,0.0,0.0,0.0,0.0,0.0,0.0,0.0,0.0,0.0,0.0,0.0,0.0,0.0,0.0,0.0,0.0,0.0,0.0,0.0,-0.005,-0.0104,0.0,0.0,0.0,0.0,0.0,0.0,0.0,0.0,-0.0451,0.0,0.0,0.0,0.0,0.0,0.0,0.0,0.0,0.0,0.0,0.0,0.0,0.0,0.0,0.0,0.0,0.0,0.0,0.0,0.0,0.0,0.0,0.0,0.0,0.0,0.0,0.0,0.0,0.0,0.0,0.0,0.0,0.0,0.0,0.0,0.0,0.0,0.0,0.0,0.0,0.0,0.0,0.0,0.0,0.0,0.0,0.0,0.0,0.0,0.0,0.0,0.0,0.0,0.0,0.0,0.0,-0.1892,-0.2071,-0.2226,-0.2281,-0.228,-0.2283,-0.2289,-0.2236,-0.2052,-0.1753,0.0,0.0,0.0,0.0,0.0,0.0,0.0,0.0,0.0,0.0,0.0,0.0,0.0,0.0,0.0,0.0,0.0,0.0,0.0,0.0,0.0,0.0,0.0,0.0,0.0,0.0,0.0,0.0,0.0,0.0,0.0,0.0,0.0,0.0,0.0,0.0,0.0,0.0,0.0,-0.0576,-0.0671,0.0,0.0,0.0,0.0,0.0,0.0,0.0,0.0,-0.1305,0.0,0.0,0.0,0.0,0.0,0.0,0.0,0.0,0.0,0.0,0.0,0.0,0.0,0.0,0.0,0.0,0.0,0.0,0.0,0.0,0.0,0.0,0.0,0.0,0.0,0.0,0.0,0.0,0.0,0.0,0.0,0.0,0.0,0.0,0.0,0.0,0.0,0.0,0.0,0.0,0.0,0.0,0.0,0.0,0.0,0.0,0.0,0.0,0.0,0.0,0.0,0.0,0.0,0.0,0.0,-0.2747,-0.2944,-0.2925,-0.2646,-0.2625,-0.2554,-0.2327,-0.2236,-0.2117,0.0,0.0,0.0,0.0,0.0,0.0,0.0,0.0,0.0,0.0,0.0,0.0,0.0,0.0,0.0,0.0,0.0,0.0,0.0,0.0,0.0,0.0,0.0,0.0,0.0,0.0,0.0,0.0,0.0,0.0,0.0,0.0,0.0,0.0,0.0,0.0,0.0,0.0,0.0,0.0,-0.1324,-0.1446,-0.1352,0.0,0.0,0.0,0.0,0.0,0.0,-0.1987,-0.2008,0.0,0.0,0.0,0.0,0.0,0.0,0.0,0.0,0.0,0.0,0.0,0.0,0.0,0.0,0.0,0.0,0.0,0.0,0.0,0.0,0.0,0.0,0.0,0.0,0.0,0.0,0.0,0.0,0.0,0.0,0.0,0.0,0.0,0.0,0.0,0.0,0.0,0.0,0.0,0.0,0.0,0.0,0.0,0.0,0.0,0.0,0.0,0.0,0.0,0.0,0.0,0.0,0.0,0.0,0.0,-0.381,-0.4039,-0.389,-0.3421,-0.3382,-0.3158,-0.2793,-0.2614,-0.2407,0.0,0.0,0.0,0.0,0.0,0.0,0.0,0.0,0.0,0.0,0.0,0.0,0.0,0.0,0.0,0.0,0.0,0.0,0.0,0.0,0.0,0.0,0.0,0.0,0.0,0.0,0.0,0.0,0.0,0.0,0.0,0.0,0.0,0.0,0.0,0.0,0.0,0.0,0.0,0.0,0.0,-0.2254,-0.2357,-0.2453,0.0,0.0,0.0,0.0,-0.2785,-0.2938,0.0,0.0,0.0,0.0,0.0,0.0,0.0,0.0,0.0,0.0,0.0,0.0,0.0,0.0,0.0,0.0,0.0,0.0,0.0,0.0,0.0,0.0,0.0,0.0,0.0,0.0,0.0,0.0,0.0,0.0,0.0,0.0,0.0,0.0,0.0,0.0,0.0,0.0,0.0,0.0,0.0,0.0,0.0,0.0,0.0,0.0,0.0,0.0,0.0,0.0,0.0,0.0,0.0,0.0,0.0,0.0,-0.4896,-0.4965,-0.5024,-0.509,-0.4784,-0.4514,-0.4325,-0.3886,-0.3493,0.0,0.0,0.0,0.0,0.0,0.0,0.0,0.0,0.0,0.0,0.0,0.0,0.0,0.0,0.0,0.0,0.0,0.0,0.0,0.0,0.0,0.0,0.0,0.0,0.0,0.0,0.0,0.0,0.0,0.0,0.0,0.0,0.0,0.0,0.0,0.0,0.0,0.0,0.0,0.0,0.0,-0.3004,-0.315,-0.3606,-0.4106,0.0,0.0,-0.4935,-0.5007,-0.4997,0.0,0.0,0.0,0.0,0.0,0.0,0.0,0.0,0.0,0.0,0.0,0.0,0.0,0.0,0.0,0.0,0.0,0.0,0.0,0.0,0.0,0.0,0.0,0.0,0.0,0.0,0.0,0.0,0.0,0.0,0.0,0.0,0.0,0.0,0.0,0.0,0.0,0.0,0.0,0.0,0.0,0.0,0.0,0.0,0.0,0.0,0.0,0.0,0.0,0.0,0.0,0.0,0.0,0.0,0.0,-0.6071,-0.6282,-0.6639,-0.6608,-0.6213,-0.6077,-0.5782,-0.5417,-0.5002,-0.4639,0.0,0.0,0.0,0.0,0.0,0.0,0.0,0.0,0.0,0.0,0.0,0.0,0.0,0.0,0.0,0.0,0.0,0.0,0.0,0.0,0.0,0.0,0.0,0.0,0.0,0.0,0.0,0.0,0.0,0.0,0.0,0.0,0.0,0.0,0.0,0.0,0.0,0.0,0.0,0.0,0.0,0.0,-0.483,-0.4996,0.0,0.0,0.0,-0.5994,-0.5997,0.0,0.0,0.0,0.0,0.0,0.0,0.0,0.0,0.0,0.0,0.0,0.0,0.0,0.0,0.0,0.0,0.0,0.0,0.0,0.0,0.0,0.0,0.0,0.0,0.0,0.0,0.0,0.0,0.0,0.0,0.0,0.0,0.0,0.0,0.0,0.0,0.0,0.0,0.0,0.0,0.0,0.0,0.0,0.0,0.0,0.0,0.0,0.0,0.0,0.0,0.0,0.0,0.0,0.0,0.0,0.0,0.0,-0.778,-0.8263,-0.8255,-0.7767,-0.7693,-0.7381,-0.691,-0.6438,0.0,0.0,0.0,0.0,0.0,0.0,0.0,0.0,0.0,0.0,0.0,0.0,0.0,0.0,0.0,0.0,0.0,0.0,0.0,0.0,0.0,0.0,0.0,0.0,0.0,0.0,0.0,-0.2463,0.0,0.0,0.0,0.0,0.0,0.0,0.0,0.0,0.0,0.0,0.0,0.0,0.0,0.0,-0.5815,-0.6441,-0.6371,-0.6463,0.0,0.0,-0.7163,-0.7059,-0.7,-0.6821,0.0,0.0,0.0,0.0,0.0,0.0,0.0,0.0,0.0,0.0,0.0,0.0,0.0,0.0,0.0,0.0,0.0,0.0,0.0,0.0,0.0,0.0,0.0,0.0,0.0,0.0,0.0,0.0,0.0,0.0,0.0,0.0,0.0,0.0,0.0,0.0,0.0,0.0,0.0,0.0,0.0,0.0,0.0,0.0,0.0,0.0,0.0,0.0,0.0,0.0,0.0,0.0,0.0,0.0,-0.8581,-0.9317,-0.9556,-0.988,-1.0188,-0.9911,-0.9569,-0.9255,-0.8348,-0.756,0.0,0.0,0.0,0.0,0.0,0.0,0.0,0.0,0.0,0.0,0.0,0.0,0.0,0.0,0.0,0.0,0.0,0.0,0.0,0.0,0.0,0.0,0.0,0.0,0.0,0.0,0.0,0.0,0.0,0.0,0.0,0.0,0.0,0.0,0.0,0.0,0.0,0.0,0.0,0.0,0.0,-0.6919,-0.76,-0.7761,-0.804,0.0,-0.8947,-0.8997,-0.8578,-0.8706,-0.8613,-0.8043,0.0,0.0,0.0,0.0,0.0,0.0,0.0,0.0,0.0,0.0,0.0,0.0,0.0,0.0,0.0,0.0,0.0,0.0,0.0,0.0,0.0,0.0,0.0,0.0,0.0,0.0,0.0,0.0,0.0,0.0,0.0,0.0,0.0,0.0,0.0,0.0,0.0,0.0,0.0,0.0,0.0,0.0,0.0,0.0,0.0,0.0,0.0,0.0,0.0,0.0,0.0,0.0,0.0,-0.9152,-0.9998,-1.0513,-1.0902,-1.1092,-1.096,-1.08,-1.0618,-0.9904,-0.924,0.0,0.0,0.0,0.0,0.0,0.0,0.0,0.0,0.0,0.0,0.0,0.0,0.0,0.0,0.0,0.0,0.0,0.0,0.0,0.0,0.0,0.0,0.0,0.0,0.0,0.0,0.0,0.0,-0.5831,-0.5947,-0.5864,0.0,0.0,0.0,0.0,0.0,0.0,0.0,0.0,0.0,0.0,-0.7974,-0.8784,-0.8822,0.0,0.0,-0.9638,-0.9602,-0.9442,-0.9319,-0.9076,-0.8552,-0.8347,0.0,0.0,0.0,0.0,0.0,0.0,0.0,0.0,0.0,0.0,0.0,0.0,0.0,0.0,0.0,0.0,0.0,0.0,0.0,0.0,0.0,0.0,0.0,0.0,0.0,0.0,0.0,0.0,0.0,0.0,0.0,0.0,0.0,0.0,0.0,0.0,0.0,0.0,0.0,0.0,0.0,0.0,0.0,0.0,0.0,0.0,0.0,0.0,0.0,0.0,0.0,0.0,-0.9737,-1.0625,-1.1332,-1.1772,-1.1961,-1.1967,-1.1879,-1.165,-1.1151,-1.0551,0.0,0.0,0.0,0.0,0.0,0.0,0.0,0.0,0.0,0.0,0.0,0.0,0.0,0.0,0.0,0.0,0.0,0.0,0.0,0.0,0.0,0.0,0.0,0.0,0.0,0.0,0.0,0.0,-0.7024,-0.7076,-0.692,0.0,0.0,0.0,0.0,0.0,0.0,0.0,0.0,0.0,0.0,-0.9238,-0.9852,-0.9815,-0.987,-1.0314,-1.0315,-1.0252,-1.0216,-0.9951,-0.9632,-0.9246,0.0,0.0,0.0,0.0,0.0,0.0,0.0,0.0,0.0,0.0,0.0,0.0,0.0,0.0,0.0,0.0,0.0,0.0,0.0,0.0,0.0,0.0,0.0,0.0,0.0,0.0,0.0,-0.8128,0.0,0.0,-0.7253,0.0,0.0,0.0,0.0,0.0,0.0,0.0,0.0,0.0,0.0,0.0,0.0,0.0,0.0,0.0,0.0,0.0,0.0,0.0,0.0,0.0,0.0,-1.048,-1.1369,-1.1942,-1.2508,-1.2942,-1.2956,-1.2774,-1.2483,-1.2001,-1.1367,-1.0507,0.0,0.0,0.0,0.0,0.0,0.0,0.0,0.0,0.0,0.0,0.0,0.0,0.0,0.0,0.0,0.0,0.0,0.0,0.0,0.0,0.0,0.0,0.0,0.0,0.0,0.0,-0.764,-0.785,-0.8008,0.0,0.0,0.0,0.0,0.0,0.0,0.0,0.0,0.0,-1.0168,-1.0616,-1.0799,-1.0724,-1.0793,-1.0917,-1.1085,-1.1053,-1.1009,-1.0896,-1.071,-1.0549,0.0,0.0,0.0,0.0,0.0,0.0,0.0,0.0,0.0,0.0,0.0,0.0,0.0,0.0,0.0,0.0,0.0,0.0,0.0,0.0,0.0,0.0,0.0,0.0,0.0,0.0,0.0,-0.9374,-0.9293,0.0,0.0,0.0,0.0,0.0,0.0,0.0,0.0,0.0,0.0,0.0,-1.1677,-1.1698,0.0,0.0,0.0,0.0,0.0,0.0,0.0,0.0,0.0,0.0,0.0,0.0,-1.0738,-1.1531,-1.2192,-1.2752,-1.3132,-1.3146,-1.3091,-1.2949,-1.2493,-1.1811,-1.0805,0.0,0.0,0.0,0.0,0.0,0.0,0.0,0.0,0.0,0.0,0.0,0.0,0.0,0.0,0.0,0.0,0.0,0.0,0.0,0.0,0.0,0.0,0.0,0.0,0.0,-0.8341,0.0,0.0,0.0,0.0,0.0,0.0,0.0,0.0,0.0,0.0,0.0,-1.0705,-1.1367,-1.1684,-1.1975,-1.2269,-1.2073,-1.1971,0.0,0.0,0.0,0.0,0.0,0.0,0.0,0.0,0.0,0.0,0.0,0.0,0.0,0.0,-1.04,-0.9726,-0.9526,-0.9404,-0.9404,0.0,0.0,0.0,0.0,0.0,0.0,0.0,0.0,0.0,0.0,0.0,0.0,0.0,0.0,-1.0905,-1.077,-1.029,0.0,0.0,0.0,0.0,0.0,0.0,0.0,0.0,-1.2413,-1.2684,-1.2916,-1.2874,-1.2752,-1.2589,-1.2203,-1.1423,0.0,0.0,0.0,0.0,0.0,0.0,0.0,0.0,-1.1199,-1.1955,-1.2637,-1.3085,-1.3315,-1.3329,-1.3281,-1.3214,-1.2739,-1.2135,-1.1362,-1.0618,-0.9934,0.0,0.0,0.0,0.0,0.0,0.0,0.0,0.0,0.0,0.0,0.0,0.0,0.0,0.0,0.0,0.0,0.0,0.0,0.0,0.0,0.0,0.0,0.0,-0.9103,0.0,0.0,0.0,0.0,0.0,0.0,0.0,0.0,0.0,-1.0923,-1.1321,-1.1876,-1.247,-1.2753,-1.296,-1.3128,0.0,0.0,0.0,0.0,0.0,0.0,0.0,-1.1654,-1.1816,-1.1379,-1.1107,-1.127,-1.1395,-1.1509,-1.1674,0.0,0.0,-1.0677,-1.052,-1.052,-1.052,-1.0585,-1.0578,-1.0456,-1.0551,-1.0592,0.0,0.0,0.0,0.0,-1.2089,0.0,0.0,0.0,-1.305,-1.2847,0.0,-1.2237,0.0,0.0,0.0,0.0,-1.1667,-1.1979,0.0,0.0,-1.3376,-1.36,-1.3829,-1.3829,-1.3754,-1.3605,-1.3342,-1.2963,-1.2454,-1.1084,0.0,0.0,0.0,0.0,0.0,0.0,-1.185,-1.2665,-1.3166,-1.3478,-1.3585,-1.3592,-1.3485,-1.3186,-1.2759,-1.2386,-1.2118,-1.1547,-1.0961,-1.0344,-0.9771,0.0,0.0,0.0,0.0,0.0,0.0,0.0,0.0,0.0,0.0,0.0,0.0,0.0,0.0,0.0,0.0,0.0,0.0,0.0,0.0,-0.9345,0.0,0.0,0.0,0.0,0.0,0.0,0.0,0.0,0.0,0.0,-1.2364,-1.269,-1.3147,-1.3583,0.0,0.0,0.0,0.0,-1.3349,-1.3355,-1.3303,-1.3352,-1.3486,-1.302,-1.2702,-1.2842,0.0,0.0,-1.2039,-1.2159,-1.2279,-1.24,-1.246,-1.2335,-1.169,-1.1537,-1.1521,-1.1521,-1.1526,-1.1619,-1.1786,-1.1789,-1.1876,-1.4686,0.0,0.0,0.0,0.0,-1.3964,-1.4211,-1.4431,-1.4278,-1.414,-1.4018,-1.3451,0.0,0.0,0.0,0.0,0.0,0.0,-1.3614,-1.4129,-1.4401,-1.4618,-1.4794,-1.4692,-1.457,-1.437,-1.4116,-1.3797,-1.3396,-1.282,-1.1904,-1.0771,0.0,0.0,0.0,0.0,-1.2318,-1.2921,-1.3336,-1.3592,-1.3734,-1.3741,-1.3599,-1.3342,-1.3105,-1.284,-1.2549,-1.2169,-1.1742,-1.1253,-1.0555,0.0,0.0,0.0,0.0,0.0,0.0,0.0,0.0,0.0,0.0,0.0,0.0,0.0,0.0,0.0,0.0,0.0,0.0,0.0,-0.9663,-1.0008,-1.0324,0.0,0.0,0.0,0.0,0.0,0.0,0.0,0.0,0.0,-1.4448,-1.4196,-1.424,0.0,0.0,-1.4925,-1.4929,-1.4663,-1.4425,-1.4473,-1.4139,0.0,-1.403,-1.3891,-1.383,-1.4061,-1.3915,-1.3665,-1.326,-1.3319,-1.3316,-1.2962,-1.296,-1.291,-1.277,-1.2449,-1.2243,-1.2232,-1.2286,-1.2395,-1.2542,-1.2645,-1.2748,-1.6571,-1.5588,-1.5181,-1.5038,-1.5113,-1.5242,-1.5397,-1.5574,-1.5425,-1.5282,-1.5242,-1.4626,-1.4333,-1.4129,-1.3559,0.0,0.0,0.0,-1.4496,-1.4875,-1.5059,-1.5221,-1.535,-1.5276,-1.5187,-1.5039,-1.4794,-1.4523,-1.4285,-1.3987,-1.3329,-1.237,0.0,0.0,-1.2064,-1.2488,-1.2949,-1.3431,-1.3729,-1.3896,-1.3977,-1.3862,-1.3687,-1.3498,-1.3403,-1.3214,-1.2915,-1.2623,-1.2284,-1.1898,-1.1219,-1.0643,0.0,0.0,0.0,0.0,0.0,0.0,0.0,0.0,0.0,0.0,0.0,-0.8927,-0.9318,0.0,0.0,0.0,-0.9876,-1.0134,-1.046,-1.0867,0.0,0.0,0.0,0.0,0.0,0.0,0.0,-1.4095,-1.4679,-1.5228,-1.5696,-1.5554,-1.5432,-1.5527,-1.5622,-1.571,-1.5798,0.0,-1.5371,-1.5371,-1.5126,-1.4932,-1.5066,-1.4873,-1.4694,-1.4705,-1.4791,-1.4721,-1.4372,-1.4259,-1.4117,-1.3829,-1.3601,-1.352,-1.352,-1.3287,-1.3042,-1.2922,-1.2982,-1.3096,-1.3221,-1.3308,-1.339,-1.7846,-1.7582,-1.6666,-1.6313,-1.6395,-1.6381,-1.6456,-1.6578,-1.6435,-1.63,-1.6151,-1.5859,-1.5479,-1.5091,-1.476,0.0,-1.4789,-1.4997,-1.5221,-1.5479,-1.5493,-1.5567,-1.5641,-1.5634,-1.5621,-1.56,-1.5357,-1.5153,-1.5011,-1.4713,-1.4428,-1.4143,-1.3315,-1.2942,-1.3098,-1.337,-1.3682,-1.4139,-1.4251,-1.4333,-1.4312,-1.3984,-1.3761,-1.3648,-1.3592,-1.3443,-1.322,-1.2901,-1.2571,-1.2311,-1.1755,-1.124,-1.0759,0.0,0.0,0.0,0.0,0.0,0.0,0.0,0.0,0.0,0.0,0.0,0.0,0.0,0.0,0.0,-1.0846,0.0,-1.1336,-1.188,0.0,0.0,0.0,-1.3417,-1.3736,-1.4272,-1.4733,-1.5091,0.0,0.0,-1.6341,-1.6574,-1.6601,-1.6239,-1.6157,-1.613,-1.6117,-1.6117,-1.6117,-1.6117,-1.6117,-1.6178,-1.6246,-1.5938,-1.5603,-1.5319,-1.5258,-1.5384,-1.5299,-1.5096,-1.4892,-1.4732,-1.4418,-1.4107,-1.4064,-1.4074,-1.3922,-1.3526,-1.3548,-1.3656,-1.376,-1.3803,-1.3852,-1.8457,-1.8237,-1.7935,-1.7541,-1.7148,-1.7032,-1.7066,-1.7195,-1.7046,-1.6958,-1.691,-1.656,-1.6239,-1.5811,-1.5744,-1.5662,-1.5601,-1.5872,-1.6029,-1.6103,-1.6205,-1.6225,-1.6144,-1.6035,-1.5913,-1.5847,-1.5622,-1.5513,-1.5418,-1.5174,-1.4991,-1.4896,-1.4482,-1.4109,-1.3867,-1.3994,-1.419,-1.4401,-1.4557,-1.4577,-1.4462,-1.4285,-1.4061,-1.3754,-1.3639,-1.3485,-1.3186,-1.3043,-1.2805,-1.2461,-1.2101,-1.1737,-1.1253,-1.0846,0.0,0.0,0.0,0.0,0.0,0.0,0.0,0.0,0.0,-1.0555,-1.1036,0.0,-1.1442,0.0,-1.1796,-1.2169,-1.269,-1.303,0.0,0.0,-1.4211,-1.4529,-1.4943,-1.5309,-1.5649,-1.5954,-1.6415,-1.6781,-1.6958,-1.7148,-1.7222,-1.7107,-1.675,-1.65,-1.6442,-1.6415,-1.6415,-1.6422,-1.6429,-1.6517,-1.6775,-1.6907,-1.6882,-1.6829,-1.6863,-1.6722,-1.6342,-1.6232,-1.6014,-1.559,-1.5398,-1.5152,-1.467,-1.4685,-1.4555,-1.4091,-1.3917,-1.3912,-1.4031,-1.4124,-1.4227,-1.8966,-1.881,-1.8606,-1.8321,-1.7996,-1.7711,-1.7643,-1.7704,-1.7487,-1.7392,-1.7378,-1.708,-1.6775,-1.6483,-1.6408,-1.6293,-1.6171,-1.6327,-1.6402,-1.6408,-1.6483,-1.6483,-1.6402,-1.632,-1.6205,-1.6056,-1.5906,-1.5798,-1.5723,-1.5499,-1.535,-1.5282,-1.512,-1.4882,-1.4629,-1.4584,-1.4638,-1.4719,-1.4801,-1.4767,-1.4572,-1.4468,-1.4251,-1.3953,-1.3754,-1.3511,-1.3186,-1.3077,-1.2854,-1.261,-1.2318,-1.2057,-1.1701,-1.1374,-1.1036,0.0,0.0,0.0,0.0,0.0,0.0,0.0,0.0,0.0,0.0,0.0,-1.2508,-1.2672,-1.2942,-1.3343,-1.3824,-1.4143,-1.4536,-1.5052,-1.5303,-1.5539,-1.5918,-1.6266,-1.6517,-1.6686,-1.7039,-1.7311,-1.7392,-1.7528,-1.7595,-1.7534,-1.7257,-1.7041,-1.6958,-1.6865,-1.6917,-1.6872,-1.6924,-1.6971,-1.7161,-1.7311,-1.7419,-1.7372,-1.7419,-1.7412,-1.7087,-1.6868,-1.6641,-1.6367,-1.604,-1.576,-1.5432,-1.5431,-1.5374,-1.5087,-1.4766,-1.4475,-1.4261,-1.4271,-1.4358,-1.94,-1.9237,-1.8966,-1.8895,-1.8789,-1.8355,-1.8145,-1.8077,-1.7764,-1.7642,-1.7602,-1.7378,-1.7182,-1.706,-1.6851,-1.6709,-1.6639,-1.6639,-1.6639,-1.6639,-1.656,-1.6598,-1.6578,-1.6558,-1.6476,-1.6334,-1.6185,-1.6042,-1.5956,-1.5744,-1.5594,-1.5472,-1.5445,-1.5364,-1.5215,-1.5086,-1.5018,-1.5044,-1.5044,-1.4923,-1.4728,-1.4624,-1.4401,-1.4109,-1.3933,-1.3641,-1.322,-1.3105,-1.2955,-1.2766,-1.2515,-1.2305,-1.2193,-1.1918,-1.1653,0.0,-1.1533,0.0,0.0,0.0,0.0,0.0,0.0,0.0,0.0,-1.3207,-1.3573,-1.3937,-1.417,-1.4455,-1.4856,-1.5194,-1.5533,-1.6024,-1.6266,-1.653,-1.6757,-1.708,-1.7249,-1.7249,-1.75,-1.7622,-1.7622,-1.7785,-1.7812,-1.7642,-1.7609,-1.7589,-1.7494,-1.7412,-1.7372,-1.7419,-1.7439,-1.7405,-1.7439,-1.7467,-1.7494,-1.75,-1.7589,-1.7615,-1.7622,-1.7332,-1.7141,-1.7086,-1.6735,-1.6354,-1.62,-1.6206,-1.6225,-1.6065,-1.5682,-1.5187,-1.4625,-1.4424,-1.4407,-1.9766,-1.9623,-1.9379,-1.923,-1.9094,-1.8776,-1.843,-1.8091,-1.803,-1.7935,-1.7812,-1.7636,-1.7548,-1.746,-1.7304,-1.7223,-1.7249,-1.7249,-1.7249,-1.7243,-1.7121,-1.7005,-1.689,-1.6768,-1.6574,-1.6476,-1.6334,-1.6252,-1.6218,-1.5947,-1.5847,-1.5813,-1.5649,-1.552,-1.5371,0.0,0.0,0.0,-1.5187,-1.5072,-1.493,-1.478,-1.4557,-1.4265,-1.3944,0.0,-1.3376,-1.3254,-1.3105,-1.2969,-1.2907,0.0,0.0,0.0,0.0,0.0,0.0,0.0,0.0,0.0,0.0,0.0,-1.4048,-1.4045,-1.3858,-1.4357,-1.4758,-1.4916,-1.5181,-1.5479,-1.5967,-1.6164,-1.6449,-1.6883,-1.6992,-1.7093,-1.7277,-1.7399,-1.7507,-1.7514,-1.7717,-1.7819,-1.7819,-1.7853,-1.7908,-1.7819,-1.7874,-1.7812,-1.7834,-1.7575,-1.7433,-1.7426,-1.7473,-1.7548,-1.7554,-1.7697,-1.7806,-1.7785,-1.7792,-1.7819,-1.7819,-1.7778,-1.7701,-1.7701,-1.7646,-1.7369,-1.6933,-1.6905,-1.687,-1.6366,-1.6284,-1.6038,-1.5325,-1.4881,-1.4646,-2.0876,-2.0345,-2.0116,-1.9796,0.0,-1.9108,-1.8769,-1.8409,-1.8267,-1.8118,-1.7968,-1.7819,-1.7717,-1.7588,-1.7514,-1.744,-1.7419,-1.7419,-1.7419,-1.7419,-1.7344,-1.7229,-1.7087,-1.7005,-1.6797,-1.6581,-1.6558,-1.6398,-1.6307,-1.6157,-1.6051,-1.5908,-1.5784,-1.5669,-1.5479,-1.5527,-1.5411,-1.5187,-1.5181,-1.5147,-1.5072,-1.493,-1.4713,-1.4414,-1.4183,0.0,0.0,0.0,0.0,0.0,0.0,0.0,0.0,0.0,0.0,-1.3037,-1.3342,-1.3615,-1.3722,-1.4007,-1.4329,-1.4814,-1.5323,-1.5398,-1.4882,-1.5262,-1.5608,-1.5825,-1.6056,-1.629,-1.67,-1.6809,-1.7005,-1.7365,-1.7419,-1.7473,-1.7616,-1.7704,-1.7751,-1.7758,-1.7819,-1.7915,-1.7915,-1.7915,-1.7915,-1.7915,-1.7915,-1.7915,-1.7908,-1.7738,-1.7643,-1.7636,-1.7697,-1.7751,-1.7758,-1.7806,-1.7915,-1.7915,-1.7915,-1.7915,-1.7915,-1.7915,-1.7915,-1.7922,-1.7976,-1.7864,-1.7655,-1.7649,-1.7636,-1.7361,-1.7129,-1.6903,-1.6481,-1.6038,-1.551,-2.1933,-2.1114,-2.0919,-2.0417,-1.9739,-1.952,-1.9331,-1.9124,-1.8514,0.0,0.0,-1.801,-1.7819,-1.7636,-1.7636,-1.7616,-1.75,-1.75,-1.75,-1.75,-1.7419,-1.7392,-1.727,-1.7216,-1.7066,-1.6784,-1.6723,-1.6574,-1.6388,-1.6361,-1.6205,-1.601,-1.5983,-1.5852,-1.5689,-1.56,-1.5513,-1.5276,-1.5235,-1.5208,-1.5181,-1.5045,-1.4848,-1.4597,-1.4428,-1.4163,-1.3804,-1.372,-1.3688,-1.3566,-1.3559,-1.3559,-1.3566,-1.3729,-1.3781,-1.3795,-1.4102,-1.4387,-1.4652,-1.4835,-1.5194,-1.5742,-1.6307,-1.6374,-1.5783,-1.609,-1.6374,-1.6625,-1.673,-1.6926,-1.7243,-1.727,-1.7385,-1.7663,-1.7629,-1.7731,-1.784,-1.7915,-1.7908,-1.7915,-1.7915,-1.7915,-1.7915,-1.7915,-1.7915,-1.7915,-1.7915,-1.7915,-1.7915,-1.7902,-1.7888,-1.7888,-1.7895,-1.7908,-1.7915,-1.7915,-1.7915,-1.7915,-1.7915,-1.7915,-1.7922,-1.7942,-1.7901,-1.797,-1.803,-1.8118,-1.8138,-1.8197,-1.8348,-1.8298,-1.7977,-1.7688,-1.7728,-1.7352,-1.6773,-2.2196,-2.1229,-2.1249,-2.0706,-1.9895,-2.0272,-2.0481,-2.0503,-1.8962,-1.8233,-1.8091,-1.807,-1.7975,-1.7833,-1.7888,-1.7874,-1.7799,-1.7799,-1.7799,-1.7792,-1.767,-1.7554,-1.7514,-1.7317,-1.7168,-1.7114,-1.6817,-1.6675,-1.6628,-1.65,-1.6408,-1.6259,-1.6246,-1.6103,-1.5881,-1.5703,-1.5566,-1.5526,-1.5445,-1.5316,-1.5187,-1.5045,-1.4996,-1.4942,-1.4631,-1.4455,-1.4387,-1.4265,-1.4197,-1.4177,-1.4177,-1.417,-1.4183,-1.4428,-1.4539,-1.4552,-1.4862,-1.5106,-1.5276,-1.554,-1.5954,-1.6479,-1.6795,-1.6768,-1.6449,-1.6788,-1.7053,-1.7107,-1.7229,-1.7345,-1.7507,-1.7521,-1.7643,-1.7799,-1.7881,-1.7846,-1.7915,-1.7915,-1.7915,-1.7915,-1.7915,-1.7915,-1.7915,-1.7915,-1.7915,-1.7915,-1.7915,-1.7915,-1.7915,-1.7915,-1.7915,-1.7915,-1.7915,-1.7915,-1.7915,-1.7915,-1.7915,-1.7915,-1.7915,-1.7922,-1.7936,-1.8024,-1.8043,-1.8057,-1.8186,-1.8274,-1.8294,-1.8403,-1.8427,-1.8511,-1.8471,-1.8507,-1.8554,-1.8505,-1.8183,-2.4881,-2.3834,-2.359,-2.3044,-2.2317,-2.2275,-2.2247,-2.2091,-2.1155,-2.0035,-1.8831,-1.8334,-1.805,-1.7982,-1.7901,-1.7915,-1.7915,-1.7915,-1.7915,-1.7915,-1.7792,-1.7724,-1.7588,-1.7446,-1.7392,-1.7304,-1.7093,-1.6951,-1.687,-1.672,-1.6513,-1.6435,-1.6422,-1.6313,-1.611,-1.6035,-1.592,-1.5757,-1.5527,-1.5377,-1.5303,-1.516,-1.5045,-1.4977,-1.4828,-1.4719,-1.4593,-1.4577,-1.4577,-1.4658,-1.471,-1.4744,-1.478,-1.4984,-1.5106,-1.5066,-1.5384,-1.5615,-1.5764,-1.6205,-1.6636,-1.6856,-1.7168,-1.7237,-1.7095,-1.7264,-1.7439,-1.7446,-1.7575,-1.769,-1.7758,-1.7765,-1.7792,-1.7853,-1.7915,-1.7915,-1.7915,-1.7915,-1.7915,-1.7915,-1.7915,-1.7915,-1.7915,-1.7915,-1.7915,-1.7915,-1.7915,-1.7915,-1.7915,-1.7915,-1.7922,-1.7915,-1.7915,-1.7915,-1.7915,-1.7915,-1.7915,-1.7915,-1.7915,-1.7956,-1.7962,-1.8057,-1.8118,-1.8206,-1.8335,-1.8366,-1.8379,-1.8559,-1.8633,-1.866,-1.8701,-1.8841,-1.8877,-1.9061,-1.8833,-2.7686,-2.6346,-2.6018,-2.5517,-2.4964,-2.4495,-2.4237,-2.4121,-2.3507,-2.2254,-2.0617,-1.9503,-1.8937,-1.8692,-1.8573,-1.8392,-1.8088,-1.8088,-1.8033,-1.7915,-1.7915,-1.7806,-1.7642,-1.7615,-1.7527,-1.7412,-1.7317,-1.7168,-1.7032,-1.6904,-1.6702,-1.6585,-1.6486,-1.6469,-1.6361,-1.632,-1.6191,-1.6003,-1.5662,-1.5493,-1.5459,-1.5343,-1.5235,-1.5133,-1.512,-1.5065,-1.4904,-1.4897,-1.4997,-1.5113,-1.512,-1.5174,-1.5282,-1.5459,-1.556,-1.5588,-1.5839,-1.609,-1.6293,-1.6714,-1.7026,-1.7134,-1.7453,-1.7602,-1.7636,-1.7697,-1.7642,-1.7711,-1.7785,-1.7908,-1.7908,-1.7915,-1.7915,-1.7915,-1.7915,-1.7915,-1.7915,-1.7915,-1.7915,-1.7915,-1.7915,-1.7915,-1.7915,-1.7915,-1.7915,-1.7915,-1.7915,-1.7915,-1.7915,-1.7915,-1.7929,-1.7956,-1.7942,-1.7922,-1.7915,-1.7915,-1.7915,-1.7915,-1.7956,-1.7962,-1.8063,-1.8131,-1.8226,-1.8355,-1.8484,-1.8572,-1.8593,-1.8667,-1.88,-1.8807,-1.8847,-1.8884,-1.9074,-1.9257,-1.9266,-2.9205,-2.7813,-2.7649,-2.7161,-2.6826,-2.6582,-2.6583,-2.6582,-2.5341,-2.4543,-2.4067,-2.2506,-2.1381,-2.0611,-2.0516,-1.9822,-1.8765,-1.8647,-1.8419,-1.8026,-1.7915,-1.7908,-1.7991,-1.7765,-1.7588,-1.7663,-1.7527,-1.7485,-1.7348,-1.7208,-1.7005,-1.6689,-1.654,-1.6473,-1.6439,-1.6381,-1.6293,-1.6259,-1.6017,-1.575,-1.5573,-1.5553,-1.5539,-1.5533,-1.5526,-1.5526,-1.5472,-1.5506,-1.5512,-1.5526,-1.5526,-1.5533,-1.5573,-1.5859,-1.6022,-1.6029,-1.6293,-1.6585,-1.6856,-1.6944,-1.7168,-1.748,-1.7561,-1.7649,-1.7819,-1.7895,-1.7846,-1.784,-1.7908,-1.7915,-1.7915,-1.7915,-1.7915,-1.7915,-1.7915,-1.7915,-1.7915,-1.7915,-1.7915,-1.7915,-1.7915,-1.7915,-1.7915,-1.7915,-1.7915,-1.7915,-1.7915,-1.7915,-1.7915,-1.7915,-1.797,-1.7996,-1.7962,-1.7942,-1.7936,-1.7922,-1.7936,-1.7942,-1.7982,-1.807,-1.8152,-1.8321,-1.8498,-1.8504,-1.862,-1.8708,-1.8721,-1.8813,-1.8813,-1.8782,-1.8877,-1.9047,-1.9298,-1.942,-1.9307,-3.3227,-3.2279,-3.1849,-3.1245,-3.0484,-2.9946,-2.9662,-2.9424,-2.8777,-2.8322,-2.8034,-2.7267,-2.4956,-2.1663,-2.1406,-2.0993,-2.0487,-2.0332,-2.0175,-1.9955,-1.9955,-1.9955,-1.9948,-1.9887,-1.9857,-1.9787,-1.9357,-1.9083,-1.8887,-1.8138,-1.7463,-1.6904,-1.6822,-1.6748,-1.6608,-1.6547,-1.6483,-1.6313,-1.6185,-1.6056,-1.59,-1.5681,-1.5587,-1.5587,-1.5587,-1.5587,-1.5587,-1.5587,-1.5627,-1.5764,-1.5852,-1.5947,-1.6035,-1.6232,-1.6341,-1.6354,-1.6625,-1.6883,-1.7093,-1.727,-1.7453,-1.7588,-1.7724,-1.7806,-1.7908,-1.7915,-1.7915,-1.7915,-1.7915,-1.7915,-1.7915,-1.7915,-1.7915,-1.7915,-1.7915,-1.7915,-1.7915,-1.7915,-1.7915,-1.7915,-1.7915,-1.7915,-1.7915,-1.7915,-1.7915,-1.7915,-1.7915,-1.7915,-1.7915,-1.7915,-1.7983,-1.8043,-1.803,-1.8002,-1.7996,-1.8002,-1.7996,-1.8002,-1.8043,-1.8118,-1.8328,-1.8423,-1.8552,-1.864,-1.8715,-1.8813,-1.8807,-1.882,-1.882,-1.8823,-1.8979,-1.9183,-1.9386,-1.9501,-1.9556,-3.6567,-3.5798,-3.5261,-3.4491,-3.3507,-3.2933,-3.2377,-3.1791,-3.1367,-3.0989,-3.0703,-3.0396,-2.8045,-2.4552,-2.3652,-2.2958,-2.2238,-2.2057,-2.1754,-2.1439,-2.1384,-2.1384,-2.1384,-2.1384,-2.1384,-2.1305,-2.081,-2.0567,-2.0434,-1.9425,-1.8518,-1.8047,-1.7787,-1.7597,-1.7439,-1.719,-1.6852,-1.6653,-1.6496,-1.6313,-1.6191,-1.5995,-1.5796,-1.5771,-1.5764,-1.5715,-1.5715,-1.5756,-1.5872,-1.6024,-1.6123,-1.6252,-1.6361,-1.6503,-1.6619,-1.6714,-1.691,-1.7121,-1.7304,-1.7467,-1.7609,-1.7711,-1.7812,-1.7915,-1.7915,-1.7915,-1.7915,-1.7915,-1.7915,-1.7915,-1.7915,-1.7915,-1.7915,-1.7915,-1.7915,-1.7915,-1.7915,-1.7915,-1.7915,-1.7915,-1.7915,-1.7915,-1.7915,-1.7915,-1.7915,-1.7915,-1.7915,-1.7915,-1.7915,-1.7922,-1.7928,-1.8118,-1.8152,-1.8152,-1.8152,-1.8152,-1.8152,-1.8165,-1.8192,-1.8308,-1.8504,-1.8545,-1.8606,-1.8708,-1.8807,-1.8827,-1.8834,-1.8834,-1.8877,-1.8966,-1.9115,-1.9312,-1.9481,-1.9596,-1.9705,-3.8132,-3.72,-3.6633,-3.5954,-3.5084,-3.4826,-3.4209,-3.3371,-3.2327,-3.1688,-3.1397,-3.0694,-2.9986,-2.9229,-2.7886,-2.6,-2.373,-2.3566,-2.2973,-2.1957,-2.1713,-2.1494,-2.1384,-2.1384,-2.1549,-2.1979,-2.1853,-2.148,-2.12,-2.0713,-2.0466,-2.0345,-1.9623,-1.9321,-1.9073,-1.8121,-1.7569,-1.7409,-1.6834,-1.6497,-1.649,-1.6469,-1.6313,-1.609,-1.6062,-1.6062,-1.6076,-1.6198,-1.6279,-1.6286,-1.6415,-1.6452,-1.6524,-1.6608,-1.6817,-1.7107,-1.7168,-1.7317,-1.7507,-1.7588,-1.7711,-1.7874,-1.7908,-1.7915,-1.7915,-1.7915,-1.7915,-1.7915,-1.7915,-1.7915,-1.7915,-1.7915,-1.7915,-1.7915,-1.7915,-1.7915,-1.7915,-1.7915,-1.7915,-1.7915,-1.7915,-1.7915,-1.7915,-1.7915,-1.7915,-1.7915,-1.7915,-1.7922,-1.7942,-1.7936,-1.8002,-1.8213,-1.8308,-1.8308,-1.8308,-1.8308,-1.8308,-1.8321,-1.8375,-1.8498,-1.8565,-1.8633,-1.8708,-1.8813,-1.882,-1.8827,-1.8847,-1.8898,-1.9074,-1.9196,-1.9291,-1.9454,-1.9563,-1.9691,-1.9725,-4.0313,-3.9537,-3.8722,-3.81,-3.7654,-3.6945,-3.6135,-3.526,-3.4676,-3.4027,-3.3419,-3.2931,-3.2389,-3.1739,-3.1094,-2.9493,-2.7348,-2.6955,-2.6564,-2.6092,-2.59,-2.5831,-2.5831,-2.5831,-2.5831,-2.5723,-2.5081,-2.3892,-2.2415,-2.2152,-2.1605,-2.0833,-2.0413,-2.0062,-1.9557,-1.8738,-1.8039,-1.7576,-1.6944,-1.6567,-1.6588,-1.6517,-1.6463,-1.6374,-1.6361,-1.6361,-1.6361,-1.6415,-1.6442,-1.6449,-1.6592,-1.6615,-1.6642,-1.6851,-1.7073,-1.7195,-1.7378,-1.748,-1.7588,-1.7731,-1.7806,-1.7908,-1.7915,-1.7915,-1.7915,-1.7915,-1.7915,-1.7915,-1.7915,-1.7915,-1.7915,-1.7915,-1.7915,-1.7915,-1.7915,-1.7915,-1.7915,-1.7915,-1.7915,-1.7915,-1.7915,-1.7915,-1.7929,-1.7915,-1.7915,-1.7915,-1.7922,-1.7963,-1.7989,-1.8009,-1.8118,-1.8362,-1.8457,-1.8491,-1.8599,-1.8511,-1.8457,-1.8407,-1.8504,-1.8586,-1.8654,-1.8694,-1.8813,-1.8827,-1.8827,-1.8875,-1.8857,-1.8966,-1.9162,-1.9352,-1.9454,-1.9522,-1.963,-1.9718,-1.9725,-4.1497,-4.0981,-4.0233,-3.9639,-3.917,-3.8373,-3.7508,-3.67,-3.6174,-3.5513,-3.4907,-3.4409,-3.3799,-3.3195,-3.2922,-3.2104,-3.0656,-2.9712,-2.9075,-2.8694,-2.8533,-2.8349,-2.8339,-2.8274,-2.8274,-2.8166,-2.7573,-2.6195,-2.4817,-2.458,-2.4047,-2.3312,-2.2654,-2.2056,-2.1407,-2.0345,-1.9417,-1.8767,-1.8166,-1.7752,-1.7497,-1.7483,-1.7284,-1.6975,-1.6924,-1.6766,-1.653,-1.6564,-1.6592,-1.656,-1.6741,-1.679,-1.6904,-1.708,-1.7236,-1.7344,-1.7473,-1.7615,-1.7717,-1.7812,-1.7915,-1.7915,-1.7915,-1.7915,-1.7915,-1.7915,-1.7915,-1.7915,-1.7915,-1.7915,-1.7915,-1.7915,-1.7915,-1.7915,-1.7915,-1.7915,-1.7922,-1.7963,-1.8017,-1.8009,-1.7975,-1.7948,-1.7928,-1.7942,-1.7949,-1.7928,-1.7941,-1.7996,-1.8124,-1.8172,-1.824,-1.8413,-1.8461,-1.8586,-1.8667,-1.864,-1.8606,-1.8606,-1.8593,-1.8667,-1.8708,-1.8807,-1.8834,-1.8776,-1.8816,-1.8877,-1.8959,-1.9061,-1.923,-1.9447,-1.9529,-1.959,-1.9698,-1.9718,-1.9725,-4.1603,-4.1234,-4.0954,-4.0342,-3.9513,-3.8956,-3.8351,-3.7555,-3.6555,-3.5913,-3.5478,-3.4651,-3.4109,-3.3787,-3.3453,-3.3252,-3.2776,-3.127,-3.0043,-2.9174,-2.8978,-2.8826,-2.8641,-2.8716,-2.8651,-2.8597,-2.8382,-2.8263,-2.7908,-2.7685,-2.7525,-2.7472,-2.616,-2.5124,-2.4761,-2.2906,-2.1759,-2.0996,-2.0336,-1.9843,-1.9574,-1.9334,-1.8798,-1.7932,-1.7834,-1.746,-1.6622,-1.6686,-1.6696,-1.6716,-1.6897,-1.7046,-1.7154,-1.7222,-1.7338,-1.7514,-1.7595,-1.7724,-1.7888,-1.7908,-1.7915,-1.7915,-1.7915,-1.7915,-1.7915,-1.7915,-1.7915,-1.7915,-1.7915,-1.7915,-1.7915,-1.7915,-1.7915,-1.7915,-1.7915,-1.7922,-1.7956,-1.8002,-1.8145,-1.8233,-1.8172,-1.8097,-1.8063,-1.8002,-1.7982,-1.8063,-1.8097,-1.8145,-1.828,-1.8321,-1.8382,-1.844,-1.8572,-1.8647,-1.8708,-1.8813,-1.8807,-1.8807,-1.8786,-1.8807,-1.8813,-1.8841,-1.8823,-1.8843,-1.8945,-1.9013,-1.9183,-1.9284,-1.9379,-1.9549,-1.9596,-1.9691,-1.9711,-1.9725,-1.9725,-4.1617,-4.1248,-4.1029,-4.0613,-4.0138,-3.9753,-3.913,-3.8371,-3.7688,-3.71,-3.6316,-3.53,-3.4766,-3.448,-3.3819,-3.342,-3.3308,-3.2709,-3.2173,-3.1612,-3.1219,-3.101,-3.0905,-3.0742,-3.05,-3.0167,-3.0059,-2.9684,-2.9028,-2.8908,-2.8661,-2.8081,-2.7301,-2.6527,-2.5831,-2.4071,-2.2795,-2.2108,-2.1083,-2.0385,-2.0264,-2.0115,-1.9694,-1.9067,-1.9069,-1.8595,-1.7622,-1.7147,-1.691,-1.691,-1.7046,-1.7195,-1.7331,-1.7392,-1.7494,-1.7582,-1.7745,-1.7806,-1.7902,-1.7915,-1.7915,-1.7915,-1.7915,-1.7915,-1.7915,-1.7915,-1.7915,-1.7915,-1.7915,-1.7915,-1.7915,-1.7915,-1.7922,-1.7922,-1.7922,-1.7976,-1.803,-1.8158,-1.8253,-1.8301,-1.828,-1.8253,-1.8247,-1.8186,-1.8179,-1.8226,-1.8247,-1.8308,-1.8423,-1.8464,-1.8525,-1.866,-1.8681,-1.8681,-1.8786,-1.882,-1.882,-1.882,-1.882,-1.8854,-1.8868,-1.8895,-1.8877,-1.8972,-1.9074,-1.9196,-1.9366,-1.9474,-1.9542,-1.9657,-1.9698,-1.9718,-1.9725,-1.9725,-1.9725,-4.1777,-4.1483,-4.1189,-4.0895,-4.0588,-4.0214,-3.9681,-3.9111,-3.8493,-3.7866,-3.714,-3.6064,-3.5532,-3.5256,-3.4336,-3.3854,-3.3712,-3.3532,-3.3335,-3.3086,-3.27,-3.2398,-3.2205,-3.1928,-3.1647,-3.1314,-3.1261,-3.0886,-3.0232,-3.0124,-2.9964,-2.9543,-2.8895,-2.8283,-2.7558,-2.6251,-2.5194,-2.4451,-2.3738,-2.304,-2.2706,-2.2459,-2.1864,-2.0839,-2.0568,-1.9767,-1.855,-1.7826,-1.7353,-1.7208,-1.7229,-1.7351,-1.744,-1.7541,-1.7615,-1.7738,-1.7806,-1.7915,-1.7915,-1.7915,-1.7915,-1.7915,-1.7915,-1.7915,-1.7915,-1.7915,-1.7915,-1.7915,-1.7915,-1.7915,-1.7922,-1.7983,-1.7941,-1.7948,-1.7955,-1.8043,-1.8213,-1.8335,-1.843,-1.8464,-1.8437,-1.8409,-1.8396,-1.8342,-1.8355,-1.8375,-1.8396,-1.8457,-1.8565,-1.862,-1.8687,-1.8793,-1.8793,-1.88,-1.8807,-1.882,-1.882,-1.882,-1.882,-1.8881,-1.8922,-1.8918,-1.8966,-1.9142,-1.9264,-1.9352,-1.9501,-1.9535,-1.959,-1.963,-1.9725,-1.9725,-1.9725,-1.9725,-1.9725,-4.2044,-4.1764,-4.1456,-4.1149,-4.0829,-4.0321,-3.9994,-3.9814,-3.8848,-3.829,-3.8016,-3.6987,-3.634,-3.5902,-3.5132,-3.4575,-3.4265,-3.3768,-3.3476,-3.3335,-3.305,-3.2712,-3.2217,-3.1976,-3.1814,-3.17,-3.17,-3.17,-3.1486,-3.154,-3.1807,-3.1421,-3.0798,-3.0491,-2.9573,-2.9133,-2.8184,-2.7493,-2.7408,-2.6744,-2.59,-2.5912,-2.4899,-2.2841,-2.2281,-2.1239,-1.9409,-1.851,-1.7918,-1.7487,-1.7426,-1.75,-1.7575,-1.7609,-1.7731,-1.7833,-1.7915,-1.7915,-1.7915,-1.7915,-1.7915,-1.7915,-1.7915,-1.7915,-1.7915,-1.7915,-1.7915,-1.7922,-1.7942,-1.7942,-1.797,-1.8016,-1.8097,-1.8118,-1.8138,-1.8253,-1.842,-1.8525,-1.8593,-1.8674,-1.8633,-1.8488,-1.8545,-1.8443,-1.8457,-1.8511,-1.8545,-1.8613,-1.8681,-1.8721,-1.8807,-1.882,-1.882,-1.882,-1.882,-1.882,-1.882,-1.8834,-1.8854,-1.8877,-1.8966,-1.9033,-1.9149,-1.9318,-1.942,-1.9515,-1.9569,-1.9596,-1.9617,-1.9711,-1.9725,-1.9725,-1.9725,-1.9725,-1.9759,-4.2058,-4.1764,-4.147,-4.1176,-4.0882,-4.0508,-4.0227,-3.994,-3.9461,-3.9051,-3.8668,-3.7676,-3.7101,-3.6914,-3.5856,-3.5069,-3.4632,-3.4246,-3.3768,-3.342,-3.3316,-3.2845,-3.2314,-3.2133,-3.2,-3.1843,-3.1831,-3.1807,-3.1807,-3.1807,-3.1807,-3.1754,-3.1261,-3.0851,-3.0502,-2.9689,-2.9089,-2.8722,-2.8228,-2.7887,-2.76,-2.7345,-2.6354,-2.4736,-2.4453,-2.2857,-2.0186,-1.8667,-1.7909,-1.7595,-1.7534,-1.7656,-1.7779,-1.7799,-1.7812,-1.7902,-1.7915,-1.7915,-1.7915,-1.7915,-1.7915,-1.7915,-1.7915,-1.7915,-1.7915,-1.7922,-1.7922,-1.7936,-1.7955,-1.8085,-1.8057,-1.8165,-1.8287,-1.8396,-1.8403,-1.8437,-1.8531,-1.8633,-1.8779,-1.8807,-1.8773,-1.8694,-1.8674,-1.8654,-1.864,-1.8674,-1.8687,-1.8694,-1.88,-1.882,-1.882,-1.882,-1.882,-1.882,-1.882,-1.882,-1.8827,-1.8847,-1.885,-1.8959,-1.9074,-1.9189,-1.9359,-1.9549,-1.9542,-1.961,-1.9691,-1.9705,-1.9725,-1.9725,-1.9725,-1.9725,-1.9725,-1.9732,-1.98,-4.2124,-4.1937,-4.1523,-4.1181,-4.1042,-4.0655,-4.0374,-4.0161,-3.9773,-3.9519,-3.9121,-3.8383,-3.7879,-3.7663,-3.6765,-3.5844,-3.512,-3.4675,-3.4046,-3.3476,-3.3364,-3.3038,-3.2616,-3.2435,-3.2229,-3.2,-3.1976,-3.1916,-3.1831,-3.1807,-3.1807,-3.1754,-3.1474,-3.1261,-3.1249,-3.0672,-3.0285,-3.0262,-2.9816,-2.9481,-2.9234,-2.9122,-2.7941,-2.6566,-2.5928,-2.4197,-2.0747,-1.8748,-1.7874,-1.7751,-1.7745,-1.7779,-1.7908,-1.7915,-1.7915,-1.7915,-1.7915,-1.7915,-1.7915,-1.7915,-1.7915,-1.7915,-1.7915,-1.7956,-1.7997,-1.8017,-1.8024,-1.807,-1.8138,-1.8179,-1.8206,-1.8321,-1.847,-1.8593,-1.8626,-1.8626,-1.8626,-1.8708,-1.8813,-1.882,-1.882,-1.882,-1.882,-1.882,-1.882,-1.8813,-1.88,-1.8807,-1.882,-1.882,-1.882,-1.882,-1.882,-1.882,-1.882,-1.882,-1.8861,-1.8823,-1.8945,-1.9047,-1.9217,-1.9352,-1.9488,-1.9684,-1.9711,-1.9725,-1.9725,-1.9725,-1.9725,-1.9725,-1.9725,-1.9725,-1.9725,-1.978,-1.9848,-4.2218,-4.2165,-4.1617,-4.1301,-4.1181,-4.0762,-4.0508,-4.0361,-3.9907,-3.964,-3.9466,-3.9012,-3.8566,-3.8303,-3.7478,-3.6715,-3.5641,-3.5038,-3.4218,-3.3666,-3.3388,-3.3207,-3.3045,-3.2724,-3.2495,-3.2278,-3.2242,-3.2133,-3.2,-3.1916,-3.1855,-3.1867,-3.179,-3.17,-3.1486,-3.1486,-3.1593,-3.1154,-3.0863,-3.0453,-3.0067,-2.9872,-2.8886,-2.7176,-2.562,-2.3856,-2.0913,-1.8909,-1.7908,-1.7915,-1.7915,-1.7908,-1.7915,-1.7915,-1.7915,-1.7915,-1.7922,-1.7922,-1.7949,-1.7963,-1.797,-1.7997,-1.7997,-1.8017,-1.8084,-1.8118,-1.8158,-1.8253,-1.8328,-1.8355,-1.8403,-1.8491,-1.8599,-1.8766,-1.8807,-1.8813,-1.882,-1.882,-1.882,-1.882,-1.882,-1.882,-1.882,-1.882,-1.882,-1.882,-1.882,-1.882,-1.882,-1.882,-1.882,-1.882,-1.882,-1.882,-1.882,-1.882,-1.8875,-1.8877,-1.9047,-1.9189,-1.9386,-1.9515,-1.9657,-1.9725,-1.9725,-1.9725,-1.9725,-1.9725,-1.9725,-1.9725,-1.9725,-1.9725,-1.9732,-1.9827,-1.9847,-4.2218,-4.2191,-4.1844,-4.155,-4.1248,-4.0976,-4.0682,-4.0441,-4.0094,-3.98,-3.9559,-3.9153,-3.8833,-3.854,-3.7763,-3.6922,-3.6111,-3.5363,-3.4582,-3.3759,-3.3517,-3.3364,-3.3231,-3.3014,-3.2761,-3.2567,-3.2507,-3.2459,-3.2374,-3.2193,-3.2121,-3.2097,-3.191,-3.154,-3.1219,-3.1136,-3.0607,-2.9964,-2.9802,-2.9576,-2.9135,-2.8974,-2.8328,-2.6718,-2.4165,-2.2088,-2.0615,-1.8798,-1.797,-1.7915,-1.7915,-1.7915,-1.7915,-1.7915,-1.7915,-1.7922,-1.7929,-1.7976,-1.8072,-1.8043,-1.8091,-1.8179,-1.8186,-1.8233,-1.826,-1.8274,-1.8287,-1.8342,-1.8416,-1.8525,-1.862,-1.8687,-1.8721,-1.8807,-1.882,-1.882,-1.882,-1.882,-1.882,-1.882,-1.882,-1.882,-1.882,-1.882,-1.882,-1.882,-1.882,-1.882,-1.882,-1.882,-1.882,-1.882,-1.882,-1.882,-1.8834,-1.8861,-1.8898,-1.8979,-1.9142,-1.9305,-1.9501,-1.9657,-1.9711,-1.9725,-1.9725,-1.9725,-1.9725,-1.9725,-1.9725,-1.9725,-1.9725,-1.9739,-1.978,-1.9813,-1.9949,-4.2218,-4.2191,-4.1897,-4.1617,-4.1261,-4.1029,-4.0748,-4.0454,-4.0161,-3.9867,-3.9586,-3.9233,-3.894,-3.866,-3.8153,-3.7443,-3.6327,-3.5226,-3.4383,-3.3867,-3.3618,-3.3509,-3.342,-3.3287,-3.3082,-3.2809,-3.2773,-3.2724,-3.2579,-3.2471,-3.2374,-3.2386,-3.2229,-3.1797,-3.1128,-3.0835,-3.0174,-2.9384,-2.8878,-2.8597,-2.8328,-2.8274,-2.7573,-2.5841,-2.2964,-2.078,-2.0395,-1.8853,-1.8081,-1.7915,-1.7915,-1.7922,-1.7922,-1.7922,-1.7922,-1.7922,-1.7941,-1.7996,-1.8084,-1.8158,-1.8226,-1.8314,-1.8321,-1.8362,-1.8396,-1.8359,-1.8464,-1.8518,-1.8599,-1.8681,-1.8807,-1.882,-1.882,-1.882,-1.882,-1.882,-1.882,-1.882,-1.882,-1.882,-1.882,-1.882,-1.882,-1.882,-1.882,-1.882,-1.882,-1.882,-1.882,-1.882,-1.882,-1.882,-1.882,-1.8827,-1.8841,-1.8857,-1.8986,-1.9101,-1.9244,-1.9413,-1.959,-1.9698,-1.9725,-1.9725,-1.9725,-1.9725,-1.9725,-1.9725,-1.9725,-1.9725,-1.9732,-1.9759,-1.978,-1.9915,-2.0058,-4.2218,-4.2191,-4.1951,-4.1657,-4.1323,-4.1082,-4.0788,-4.0454,-4.0214,-3.9933,-3.9599,-3.926,-3.902,-3.8713,-3.8544,-3.7676,-3.6313,-3.5082,-3.4218,-3.4004,-3.3895,-3.3714,-3.3589,-3.3493,-3.3304,-3.3062,-3.3038,-3.2917,-3.2797,-3.2676,-3.2652,-3.264,-3.2579,-3.1987,-3.1289,-3.0657,-2.9685,-2.8522,-2.7667,-2.7118,-2.687,-2.6752,-2.5885,-2.4264,-2.2088,-2.0293,-1.9798,-1.875,-1.7915,-1.7915,-1.7915,-1.7929,-1.7949,-1.7956,-1.7949,-1.7963,-1.8043,-1.8152,-1.8213,-1.8287,-1.8362,-1.8375,-1.8396,-1.845,-1.8538,-1.8572,-1.862,-1.8687,-1.88,-1.88,-1.882,-1.882,-1.882,-1.882,-1.882,-1.882,-1.882,-1.882,-1.882,-1.882,-1.882,-1.882,-1.882,-1.882,-1.882,-1.882,-1.882,-1.882,-1.882,-1.882,-1.882,-1.882,-1.882,-1.8881,-1.8915,-1.8966,-1.9088,-1.921,-1.9352,-1.9474,-1.9624,-1.9711,-1.9725,-1.9725,-1.9725,-1.9725,-1.9725,-1.9725,-1.9725,-1.9725,-1.9773,-1.9827,-1.9881,-2.0017,-2.0159,-4.2218,-4.2218,-4.2165,-4.1831,-4.1314,-4.1221,-4.0949,-4.0521,-4.0414,-4.0094,-3.9626,-3.9533,-3.9199,-3.8721,-3.8137,-3.7212,-3.6096,-3.5072,-3.452,-3.4354,-3.4209,-3.398,-3.3762,-3.3771,-3.3569,-3.3376,-3.3328,-3.3292,-3.3159,-3.3038,-3.293,-3.2869,-3.2736,-3.2087,-3.1175,-3.0196,-2.9042,-2.7361,-2.6161,-2.5116,-2.4193,-2.3373,-2.2872,-2.1894,-2.0466,-1.9687,-1.9081,-1.8419,-1.7915,-1.7915,-1.7915,-1.799,-1.803,-1.8057,-1.8063,-1.8084,-1.8192,-1.8314,-1.8346,-1.847,-1.8565,-1.8647,-1.866,-1.8667,-1.8759,-1.8773,-1.8721,-1.8735,-1.882,-1.882,-1.882,-1.882,-1.882,-1.882,-1.8834,-1.8834,-1.8834,-1.8841,-1.8841,-1.8854,-1.8841,-1.882,-1.882,-1.882,-1.882,-1.882,-1.882,-1.882,-1.882,-1.882,-1.882,-1.882,-1.882,-1.8909,-1.8938,-1.9081,-1.9217,-1.9312,-1.9427,-1.9501,-1.961,-1.9711,-1.9725,-1.9725,-1.9725,-1.9725,-1.9725,-1.9725,-1.9725,-1.9725,-1.9807,-1.9895,-1.9956,-2.0085,-2.0234,-4.2218,-4.2205,-4.2058,-4.175,-4.1301,-4.1176,-4.0882,-4.0521,-4.0468,-4.0147,-3.9733,-3.9573,-3.9279,-3.8735,-3.8427,-3.7542,-3.6442,-3.5608,-3.5053,-3.4687,-3.4438,-3.4245,-3.4016,-3.3992,-3.3823,-3.3702,-3.3702,-3.3606,-3.3388,-3.3311,-3.3195,-3.3215,-3.3038,-3.2487,-3.1484,-3.0576,-2.9114,-2.7231,-2.5678,-2.4245,-2.292,-2.1737,-2.0859,-2.0456,-1.9677,-1.9033,-1.8695,-1.8198,-1.7963,-1.8024,-1.7982,-1.8063,-1.8179,-1.8267,-1.828,-1.8253,-1.8348,-1.845,-1.8481,-1.8593,-1.8687,-1.8793,-1.882,-1.882,-1.882,-1.8813,-1.882,-1.882,-1.882,-1.882,-1.882,-1.882,-1.882,-1.8834,-1.8888,-1.8877,-1.8877,-1.8884,-1.8877,-1.8871,-1.8881,-1.8854,-1.882,-1.882,-1.882,-1.882,-1.882,-1.8827,-1.8827,-1.8841,-1.8854,-1.8895,-1.8864,-1.8979,-1.9094,-1.923,-1.9325,-1.942,-1.9495,-1.9569,-1.961,-1.9711,-1.9725,-1.9725,-1.9725,-1.9725,-1.9725,-1.9725,-1.9725,-1.9745,-1.9848,-1.9895,-2.0017,-2.0146,-2.0239,-4.2218,-4.2191,-4.1911,-4.1617,-4.1261,-4.1029,-4.0748,-4.0521,-4.0481,-4.0147,-3.9653,-3.9573,-3.9279,-3.8793,-3.8427,-3.7846,-3.6784,-3.6129,-3.5421,-3.4833,-3.4668,-3.4511,-3.433,-3.4233,-3.4125,-3.3931,-3.4004,-3.3931,-3.3593,-3.3601,-3.3545,-3.3557,-3.3545,-3.3168,-3.2296,-3.1161,-2.9762,-2.8084,-2.6187,-2.4546,-2.2777,-2.1223,-2.0195,-2.0187,-1.9185,-1.8642,-1.8552,-1.8218,-1.8099,-1.8104,-1.8152,-1.8206,-1.8348,-1.847,-1.8491,-1.8443,-1.8518,-1.8565,-1.8613,-1.8674,-1.8742,-1.882,-1.882,-1.882,-1.882,-1.882,-1.882,-1.882,-1.882,-1.882,-1.882,-1.8854,-1.8868,-1.8902,-1.8945,-1.9033,-1.9033,-1.9033,-1.9033,-1.8986,-1.8956,-1.8922,-1.8864,-1.8843,-1.8864,-1.8823,-1.8823,-1.8888,-1.8895,-1.8909,-1.8929,-1.8938,-1.9013,-1.9135,-1.9257,-1.9386,-1.9461,-1.9508,-1.9569,-1.9684,-1.9705,-1.9725,-1.9725,-1.9725,-1.9725,-1.9725,-1.9725,-1.9725,-1.9725,-1.9773,-1.9827,-1.9942,-2.0058,-2.0227,-2.034,-4.2218,-4.2191,-4.1897,-4.1617,-4.1261,-4.1029,-4.0735,-4.0495,-4.0481,-4.0147,-3.964,-3.9573,-3.9279,-3.8721,-3.8195,-3.7555,-3.6784,-3.6246,-3.5578,-3.499,-3.4932,-3.4811,-3.4559,-3.4593,-3.4378,-3.4197,-3.4197,-3.4016,-3.3859,-3.3956,-3.404,-3.4016,-3.3992,-3.3742,-3.2903,-3.1602,-3.0035,-2.8034,-2.5582,-2.2875,-2.0437,-1.9213,-1.8796,-1.8676,-1.8536,-1.8395,-1.8382,-1.8262,-1.8247,-1.8274,-1.8294,-1.8362,-1.8484,-1.8454,-1.8606,-1.8674,-1.8728,-1.8793,-1.8742,-1.8807,-1.8841,-1.8841,-1.8769,-1.882,-1.882,-1.882,-1.882,-1.882,-1.8827,-1.8854,-1.8837,-1.8898,-1.8945,-1.9013,-1.9088,-1.9156,-1.9176,-1.9183,-1.9183,-1.9176,-1.9115,-1.9054,-1.902,-1.8993,-1.8966,-1.8918,-1.8884,-1.8898,-1.8977,-1.8945,-1.9013,-1.9101,-1.9162,-1.9278,-1.9379,-1.9515,-1.9549,-1.9596,-1.9684,-1.9725,-1.9725,-1.9725,-1.9725,-1.9725,-1.9725,-1.9725,-1.9725,-1.9725,-1.9725,-1.9814,-1.9888,-1.999,-2.0085,-2.0282,-2.0422,-4.2218,-4.2178,-4.1724,-4.1456,-4.1283,-4.0869,-4.0601,-4.0495,-4.0468,-4.0241,-3.9867,-3.9653,-3.9279,-3.8695,-3.8369,-3.7775,-3.6901,-3.6492,-3.5849,-3.5146,-3.5016,-3.4968,-3.4883,-3.4835,-3.4656,-3.4499,-3.4523,-3.4569,-3.433,-3.4173,-3.4185,-3.4209,-3.4197,-3.3862,-3.3255,-3.1942,-3.0496,-2.8325,-2.5399,-2.2342,-2.03,-1.8998,-1.8386,-1.8379,-1.8312,-1.8342,-1.8335,-1.8321,-1.8369,-1.8409,-1.8379,-1.8511,-1.862,-1.8674,-1.8728,-1.8871,-1.8891,-1.8891,-1.8884,-1.8881,-1.8888,-1.8902,-1.8823,-1.882,-1.882,-1.8834,-1.8881,-1.8949,-1.8891,-1.8918,-1.8986,-1.9067,-1.9094,-1.9149,-1.9244,-1.9298,-1.9332,-1.9332,-1.9332,-1.9332,-1.9332,-1.9271,-1.921,-1.9169,-1.9135,-1.9088,-1.9061,-1.9061,-1.9081,-1.9101,-1.9189,-1.9305,-1.9359,-1.9427,-1.9515,-1.9617,-1.9671,-1.9698,-1.9698,-1.9725,-1.9725,-1.9725,-1.9725,-1.9725,-1.9725,-1.9725,-1.9725,-1.9732,-1.9739,-1.9807,-1.9956,-2.0058,-2.0173,-2.0349,-2.0455,-4.2111,-4.2071,-4.163,-4.1354,-4.1234,-4.0802,-4.0548,-4.0481,-4.0481,-4.0308,-3.9987,-3.964,-3.9185,-3.8825,-3.8602,-3.8079,-3.7076,-3.6901,-3.62,-3.5485,-3.5075,-3.5016,-3.4992,-3.4992,-3.4849,-3.468,-3.4813,-3.4859,-3.4714,-3.4581,-3.4438,-3.4378,-3.445,-3.4067,-3.3268,-3.2041,-3.0445,-2.7591,-2.4331,-2.1929,-2.0364,-1.918,-1.8721,-1.8559,-1.8498,-1.843,-1.843,-1.8443,-1.8511,-1.8559,-1.8593,-1.8647,-1.8728,-1.8796,-1.8857,-1.8966,-1.9,-1.9074,-1.9061,-1.9013,-1.8966,-1.8966,-1.8966,-1.8911,-1.8898,-1.8877,-1.8905,-1.9033,-1.904,-1.9101,-1.9176,-1.9217,-1.9257,-1.9312,-1.9393,-1.9447,-1.9481,-1.9474,-1.9474,-1.9488,-1.9488,-1.9488,-1.9434,-1.9373,-1.9318,-1.9264,-1.9244,-1.923,-1.925,-1.9271,-1.9359,-1.9474,-1.9495,-1.9542,-1.959,-1.9718,-1.9725,-1.9725,-1.9725,-1.9725,-1.9725,-1.9725,-1.9725,-1.9725,-1.9725,-1.9725,-1.9725,-1.9739,-1.9705,-1.9841,-1.9976,-2.0139,-2.0282,-2.0374,-2.0469,-4.1817,-4.1804,-4.1764,-4.159,-4.1261,-4.1016,-4.0722,-4.0521,-4.0495,-4.0294,-3.9874,-3.942,-3.902,-3.8726,-3.866,-3.8311,-3.7671,-3.7076,-3.6375,-3.579,-3.5322,-3.5028,-3.5028,-3.5016,-3.5004,-3.498,-3.5016,-3.5004,-3.498,-3.4883,-3.4907,-3.4897,-3.466,-3.4439,-3.3325,-3.1621,-2.8921,-2.6028,-2.3046,-2.1419,-2.0211,-1.9289,-1.88,-1.8786,-1.8786,-1.8786,-1.8786,-1.8752,-1.8681,-1.8715,-1.8708,-1.8742,-1.8803,-1.8884,-1.8966,-1.9061,-1.9149,-1.9244,-1.9291,-1.921,-1.9169,-1.9176,-1.9156,-1.9108,-1.9088,-1.9142,-1.9176,-1.9176,-1.9189,-1.921,-1.9271,-1.9318,-1.9406,-1.9447,-1.9508,-1.9556,-1.959,-1.9603,-1.9671,-1.9698,-1.963,-1.9596,-1.959,-1.9515,-1.9474,-1.9427,-1.9373,-1.9359,-1.9427,-1.9461,-1.9603,-1.9677,-1.9684,-1.9698,-1.9705,-1.9725,-1.9725,-1.9725,-1.9725,-1.9725,-1.9725,-1.9725,-1.9725,-1.9725,-1.9725,-1.9725,-1.9739,-1.978,-1.9773,-1.9936,-2.0003,-2.0193,-2.0329,-2.0401,-2.0462,-4.167,-4.1537,-4.171,-4.1617,-4.1261,-4.1029,-4.0842,-4.0722,-4.0548,-4.0201,-3.976,-3.9519,-3.9159,-3.8825,-3.866,-3.8369,-3.7788,-3.7076,-3.6492,-3.5907,-3.538,-3.5028,-3.5028,-3.5028,-3.5028,-3.5028,-3.5028,-3.5028,-3.5016,-3.5028,-3.5028,-3.4911,-3.4605,-3.3723,-3.2476,-3.0176,-2.6934,-2.4596,-2.2406,-2.1019,-2.0042,-1.9297,-1.8915,-1.8827,-1.882,-1.882,-1.8813,-1.8813,-1.882,-1.8827,-1.8834,-1.883,-1.8898,-1.8979,-1.9088,-1.921,-1.9305,-1.9413,-1.9481,-1.9359,-1.921,-1.9203,-1.9196,-1.921,-1.9237,-1.921,-1.9264,-1.9298,-1.9345,-1.9359,-1.9488,-1.9535,-1.9576,-1.959,-1.961,-1.9711,-1.9725,-1.9725,-1.9725,-1.9718,-1.9718,-1.9711,-1.9711,-1.9711,-1.9677,-1.9583,-1.9529,-1.9501,-1.9549,-1.959,-1.9698,-1.9725,-1.9725,-1.9725,-1.9725,-1.9725,-1.9725,-1.9725,-1.9725,-1.9725,-1.9725,-1.9725,-1.9725,-1.9725,-1.9745,-1.9773,-1.9807,-1.9841,-1.9929,-1.9997,-2.0139,-2.0295,-2.0347,-2.0435,-2.0455,-4.1483,-4.1256,-4.1523,-4.1537,-4.1261,-4.1122,-4.0989,-4.0855,-4.0601,-4.0147,-3.9613,-3.9573,-3.9279,-3.8851,-3.866,-3.8544,-3.8021,-3.7426,-3.6784,-3.6187,-3.5661,-3.5204,-3.5087,-3.5028,-3.5028,-3.5028,-3.5028,-3.5028,-3.5028,-3.5028,-3.5028,-3.4735,-3.4135,-3.3145,-3.1537,-2.8185,-2.5129,-2.3298,-2.1757,-2.0698,-1.9765,-1.9255,-1.9006,-1.8905,-1.8925,-1.8983,-1.8932,-1.8938,-1.8925,-1.8925,-1.899,-1.8966,-1.9033,-1.9115,-1.923,-1.9366,-1.9481,-1.9556,-1.9563,-1.9501,-1.9339,-1.9379,-1.9373,-1.9366,-1.9339,-1.9332,-1.9427,-1.9481,-1.9501,-1.9542,-1.9725,-1.9705,-1.9637,-1.9691,-1.9698,-1.9725,-1.9725,-1.9725,-1.9725,-1.9725,-1.9725,-1.9725,-1.9725,-1.9725,-1.9711,-1.9691,-1.9671,-1.9643,-1.9671,-1.9698,-1.9711,-1.9725,-1.9725,-1.9725,-1.9725,-1.9725,-1.9725,-1.9725,-1.9725,-1.9725,-1.9725,-1.9732,-1.9732,-1.9732,-1.9766,-1.9766,-1.9847,-1.9936,-2.0037,-2.0146,-2.0282,-2.0417,-2.0451,-2.0462,-2.0462,-4.1141,-4.0962,-4.1181,-4.1288,-4.1248,-4.1274,-4.1176,-4.0922,-4.0601,-4.0161,-3.968,-3.9613,-3.9292,-3.8851,-3.87,-3.8602,-3.8427,-3.7962,-3.7322,-3.6609,-3.6024,-3.5556,-3.5204,-3.5028,-3.5028,-3.5028,-3.5028,-3.5028,-3.5028,-3.5028,-3.5028,-3.4546,-3.3664,-3.2425,-3.1596,-2.7647,-2.4536,-2.2627,-2.1041,-2.0123,-1.9544,-1.9208,-1.9115,-1.9067,-1.9108,-1.9108,-1.9061,-1.9094,-1.9094,-1.9101,-1.9108,-1.9142,-1.9196,-1.9305,-1.9333,-1.9447,-1.9576,-1.9698,-1.9718,-1.9705,-1.9671,-1.9583,-1.9609,-1.963,-1.9677,-1.9684,-1.9596,-1.9603,-1.9684,-1.9698,-1.9725,-1.9725,-1.9725,-1.9732,-1.9732,-1.9766,-1.9773,-1.9773,-1.9786,-1.9773,-1.9745,-1.9725,-1.9725,-1.9725,-1.9725,-1.9718,-1.9725,-1.9725,-1.9732,-1.9725,-1.9725,-1.9725,-1.9725,-1.9725,-1.9725,-1.9725,-1.9725,-1.9725,-1.9732,-1.9739,-1.9759,-1.978,-1.9773,-1.9759,-1.9786,-1.9902,-2.001,-2.0112,-2.022,-2.0322,-2.0417,-2.0512,-2.0532,-2.0546,-2.0553,-4.1176,-4.0935,-4.1154,-4.1168,-4.1034,-4.1208,-4.1221,-4.1061,-4.0695,-4.0254,-3.9907,-3.9706,-3.9399,-3.9006,-3.8766,-3.87,-3.8628,-3.8079,-3.7438,-3.6784,-3.6258,-3.5556,-3.5146,-3.5028,-3.5028,-3.5028,-3.5028,-3.497,-3.5028,-3.4852,-3.497,-3.4617,-3.2768,-3.0815,-2.8663,-2.573,-2.3339,-2.1948,-2.0636,-1.9736,-1.9427,-1.9325,-1.9217,-1.9108,-1.9183,-1.9196,-1.9142,-1.9203,-1.9237,-1.9244,-1.9244,-1.9271,-1.9332,-1.938,-1.9481,-1.9549,-1.9718,-1.9718,-1.9725,-1.9718,-1.9725,-1.9725,-1.9725,-1.9725,-1.9725,-1.9725,-1.9725,-1.9725,-1.9725,-1.9725,-1.9725,-1.9725,-1.9732,-1.9752,-1.978,-1.9854,-1.9882,-1.9813,-1.9813,-1.9848,-1.9814,-1.978,-1.9766,-1.978,-1.978,-1.9773,-1.978,-1.9752,-1.9752,-1.9732,-1.9725,-1.9725,-1.9725,-1.9725,-1.9732,-1.9793,-1.9807,-1.98,-1.9786,-1.9773,-1.9793,-1.9793,-1.9854,-1.9895,-1.9976,-2.0058,-2.0173,-2.0295,-2.0334,-2.0435,-2.0462,-2.0539,-2.0539,-2.056,-2.0594,-4.1176,-4.0949,-4.1154,-4.1114,-4.0976,-4.1154,-4.1181,-4.1002,-4.0628,-4.0308,-3.998,-3.9813,-3.9586,-3.9319,-3.9132,-3.886,-3.8833,-3.847,-3.7814,-3.716,-3.6492,-3.5966,-3.5497,-3.5075,-3.5028,-3.497,-3.4735,-3.4605,-3.4558,-3.4441,-3.397,-3.3074,-3.1763,-2.9497,-2.7049,-2.4657,-2.2977,-2.1631,-2.0416,-1.9596,-1.9495,-1.944,-1.9359,-1.9312,-1.9318,-1.9339,-1.9284,-1.9298,-1.9359,-1.9352,-1.9373,-1.94,-1.9481,-1.9522,-1.9563,-1.9698,-1.9725,-1.9725,-1.9725,-1.9725,-1.9725,-1.9725,-1.9725,-1.9725,-1.9725,-1.9725,-1.9725,-1.9725,-1.9725,-1.9725,-1.9725,-1.9725,-1.9759,-1.978,-1.9861,-1.9881,-1.9956,-1.9949,-1.9949,-1.9915,-1.9881,-1.9888,-1.9848,-1.9834,-1.9793,-1.978,-1.978,-1.982,-1.98,-1.98,-1.9814,-1.9841,-1.9861,-1.9895,-1.9854,-1.9868,-1.9861,-1.982,-1.982,-1.9882,-1.9943,-1.9956,-2.0024,-2.0092,-2.0139,-2.022,-2.0349,-2.0401,-2.0435,-2.0455,-2.0469,-2.0539,-2.0539,-2.0594,-2.0648,-4.1128,-4.0989,-4.1181,-4.1189,-4.0989,-4.1088,-4.0976,-4.0508,-4.0495,-4.0321,-4.0007,-3.998,-3.984,-3.964,-3.9573,-3.9399,-3.9113,-3.9028,-3.8445,-3.7808,-3.7101,-3.6505,-3.5895,-3.5427,-3.5146,-3.4781,-3.437,-3.39,-3.3841,-3.331,-3.2495,-3.1489,-3.0528,-2.8374,-2.609,-2.4175,-2.2735,-2.1321,-2.0249,-1.9637,-1.9576,-1.9522,-1.9495,-1.9488,-1.9542,-1.9549,-1.9535,-1.9563,-1.9657,-1.9677,-1.9691,-1.9705,-1.9718,-1.9725,-1.9725,-1.9718,-1.9725,-1.9725,-1.9725,-1.9725,-1.9725,-1.9725,-1.9745,-1.9732,-1.9725,-1.9725,-1.9725,-1.9725,-1.9725,-1.9725,-1.9725,-1.9766,-1.9746,-1.9813,-1.9895,-1.999,-2.0085,-2.0105,-2.0105,-2.0092,-2.0064,-2.0024,-1.999,-1.9963,-1.9908,-1.9922,-1.9936,-1.9942,-1.9922,-1.9888,-1.9915,-1.9983,-2.001,-2.0051,-2.0051,-2.001,-1.999,-1.9949,-1.9997,-2.001,-2.0071,-2.0119,-2.0173,-2.0227,-2.0282,-2.0363,-2.0388,-2.0435,-2.0462,-2.0546,-2.0566,-2.06,-2.0627,-2.0682,-2.075,-4.1483,-4.1256,-4.1537,-4.1363,-4.0922,-4.0788,-4.0615,-4.0481,-4.0481,-4.0401,-4.0334,-4.012,-4.0,-3.9893,-3.9693,-3.9573,-3.9426,-3.9148,-3.8662,-3.8107,-3.7659,-3.7114,-3.6492,-3.5895,-3.5439,-3.4735,-3.397,-3.3015,-3.2543,-3.2011,-3.13,-3.0528,-2.9338,-2.7418,-2.5499,-2.3701,-2.2319,-2.104,-2.0021,-1.9738,-1.9705,-1.9603,-1.9583,-1.9563,-1.963,-1.9617,-1.9569,-1.963,-1.9711,-1.9725,-1.9725,-1.9725,-1.9725,-1.9725,-1.9725,-1.9725,-1.9725,-1.9725,-1.9725,-1.9725,-1.9732,-1.9766,-1.9759,-1.9732,-1.9766,-1.9745,-1.9745,-1.9732,-1.9725,-1.9725,-1.9759,-1.98,-1.98,-1.9888,-2.0003,-2.0153,-2.0241,-2.0261,-2.0261,-2.0248,-2.0227,-2.018,-2.0153,-2.0098,-2.0051,-2.0078,-2.0092,-2.0105,-2.0105,-2.0071,-2.0092,-2.0159,-2.0173,-2.02,-2.0146,-2.0098,-2.0092,-2.0085,-2.0146,-2.0193,-2.0234,-2.0282,-2.0259,-2.03,-2.0404,-2.0451,-2.0512,-2.0539,-2.0483,-2.0594,-2.0621,-2.0668,-2.0722,-2.0804,-2.0885,-4.1577,-4.1537,-4.171,-4.151,-4.1082,-4.0775,-4.0588,-4.0495,-4.0481,-4.0481,-4.0454,-4.0294,-4.0201,-4.0187,-4.004,-3.9893,-3.976,-3.9567,-3.9189,-3.861,-3.8153,-3.7672,-3.7069,-3.6317,-3.5556,-3.4605,-3.331,-3.1952,-3.1122,-3.0102,-2.9269,-2.8613,-2.7777,-2.6279,-2.4545,-2.3045,-2.1835,-2.069,-1.9901,-1.9786,-1.9725,-1.9725,-1.9596,-1.9563,-1.963,-1.9583,-1.9542,-1.963,-1.9711,-1.9725,-1.9725,-1.9725,-1.9725,-1.9725,-1.9725,-1.9725,-1.9725,-1.9725,-1.9732,-1.9793,-1.98,-1.9786,-1.9875,-1.9908,-1.9854,-1.9882,-1.9807,-1.9739,-1.9732,-1.9732,-1.9786,-1.9841,-1.9936,-1.9963,-2.0146,-2.0336,-2.0313,-2.034,-2.0404,-2.0397,-2.0363,-2.0322,-2.0275,-2.022,-2.022,-2.0268,-2.0282,-2.0275,-2.0268,-2.0248,-2.0275,-2.0336,-2.0329,-2.0322,-2.0261,-2.0234,-2.0261,-2.0288,-2.0329,-2.0376,-2.0404,-2.0417,-2.0368,-2.0408,-2.0519,-2.0539,-2.0539,-2.0483,-2.0489,-2.0621,-2.0716,-2.0797,-2.0885,-2.0987,-2.1075,-4.1563,-4.1777,-4.1764,-4.1577,-4.131,-4.0976,-4.0695,-4.0495,-4.0441,-4.0441,-4.0414,-4.0468,-4.0414,-4.0321,-4.0308,-4.0241,-4.008,-3.9947,-3.9633,-3.9108,-3.8506,-3.8068,-3.7464,-3.653,-3.5253,-3.4041,-3.2295,-3.0092,-2.915,-2.7946,-2.6819,-2.6228,-2.5988,-2.4786,-2.3037,-2.244,-2.135,-2.0144,-1.9786,-1.9725,-1.9725,-1.9725,-1.9725,-1.9718,-1.9725,-1.9711,-1.9718,-1.9725,-1.9725,-1.9725,-1.9725,-1.9725,-1.9725,-1.9725,-1.9725,-1.9725,-1.9725,-1.9752,-1.9786,-1.9786,-1.9861,-1.9929,-2.0031,-2.0058,-2.001,-1.9895,-1.9793,-1.9786,-1.9773,-1.978,-1.9814,-1.9875,-1.9976,-2.0105,-2.0275,-2.041,-2.0401,-2.0415,-2.0478,-2.0471,-2.0465,-2.0424,-2.0354,-2.037,-2.0349,-2.0438,-2.0451,-2.0424,-2.041,-2.039,-2.041,-2.0465,-2.0381,-2.0368,-2.0438,-2.0424,-2.0471,-2.0499,-2.0492,-2.0492,-2.0478,-2.0499,-2.0532,-2.0539,-2.0539,-2.0539,-2.0476,-2.0483,-2.0594,-2.0702,-2.0804,-2.0933,-2.1041,-2.115,-2.1224,-4.1911,-4.1764,-4.1537,-4.1341,-4.1208,-4.0788,-4.0548,-4.0454,-4.0227,-4.0147,-4.0174,-4.0334,-4.0348,-4.0201,-4.0401,-4.0401,-4.0348,-4.0161,-3.99,-3.9495,-3.8933,-3.8375,-3.7728,-3.6286,-3.4725,-3.2447,-3.0259,-2.7817,-2.603,-2.4898,-2.4416,-2.4175,-2.3942,-2.2984,-2.1948,-2.1532,-2.069,-1.9786,-1.9725,-1.9725,-1.9725,-1.9725,-1.9725,-1.9725,-1.9725,-1.9725,-1.9725,-1.9725,-1.9725,-1.9725,-1.9725,-1.9725,-1.9725,-1.9725,-1.9725,-1.9725,-1.9745,-1.9793,-1.9882,-1.9888,-1.9956,-2.0071,-2.0153,-2.0153,-2.0098,-1.9956,-1.9861,-1.9868,-1.9841,-1.9841,-1.9888,-1.9963,-2.0098,-2.0241,-2.0383,-2.0465,-2.0539,-2.0539,-2.0539,-2.0539,-2.0539,-2.0469,-2.0469,-2.0462,-2.0455,-2.0455,-2.0519,-2.0505,-2.0499,-2.0485,-2.0471,-2.0505,-2.0512,-2.0512,-2.0539,-2.0539,-2.0539,-2.0539,-2.0519,-2.0526,-2.0539,-2.0539,-2.0539,-2.0539,-2.0539,-2.0539,-2.0476,-2.0483,-2.0614,-2.0763,-2.0912,-2.1034,-2.1163,-2.1272,-2.1267,-4.2004,-4.1937,-4.1657,-4.1376,-4.1122,-4.0802,-4.0535,-4.0281,-4.0094,-3.988,-3.9687,-4.004,-4.0187,-4.008,-4.0348,-4.0481,-4.0454,-4.0321,-4.0134,-3.9807,-3.9209,-3.8734,-3.7635,-3.5963,-3.4513,-3.2225,-2.8573,-2.573,-2.3391,-2.2795,-2.2674,-2.2614,-2.2198,-2.1774,-2.1222,-2.0683,-2.0265,-1.9725,-1.9725,-1.9725,-1.9725,-1.9725,-1.9725,-1.9725,-1.9725,-1.9725,-1.9725,-1.9725,-1.9725,-1.9725,-1.9725,-1.9725,-1.9725,-1.9725,-1.9759,-1.9746,-1.978,-1.982,-1.9942,-2.0031,-2.0092,-2.0214,-2.0329,-2.0286,-2.0336,-2.0207,-2.0064,-2.0003,-1.9956,-1.9956,-1.9997,-2.0112,-2.0193,-2.0309,-2.0424,-2.0512,-2.0539,-2.0539,-2.0539,-2.0539,-2.0539,-2.0476,-2.0469,-2.0469,-2.0469,-2.0462,-2.0532,-2.0539,-2.0539,-2.0539,-2.0539,-2.0539,-2.0539,-2.0539,-2.0539,-2.0539,-2.0539,-2.0539,-2.0539,-2.0539,-2.0539,-2.0539,-2.0539,-2.0539,-2.0539,-2.0539,-2.0483,-2.058,-2.0709,-2.0872,-2.1014,-2.115,-2.1265,-2.1367,-2.1328,-4.1978,-4.2111,-4.179,-4.1376,-4.0935,-4.0855,-4.0535,-4.0094,-3.9987,-3.9607,-3.926,-3.97,-3.9947,-4.008,-4.0321,-4.0428,-4.0468,-4.0414,-4.0267,-3.9812,-3.9265,-3.8262,-3.687,-3.531,-3.3104,-3.0359,-2.6935,-2.4493,-2.2259,-2.1835,-2.1532,-2.1418,-2.1236,-2.1054,-2.0622,-2.0387,-2.0144,-1.9847,-1.9725,-1.9725,-1.9725,-1.9725,-1.9725,-1.9725,-1.9725,-1.9725,-1.9725,-1.9725,-1.9725,-1.9725,-1.9732,-1.9752,-1.9773,-1.9786,-1.9827,-1.982,-1.9895,-1.9983,-2.0105,-2.022,-2.0288,-2.0313,-2.0422,-2.0455,-2.0492,-2.0417,-2.0268,-2.02,-2.0153,-2.0126,-2.0166,-2.0214,-2.0288,-2.037,-2.0471,-2.0539,-2.0539,-2.0539,-2.0539,-2.0539,-2.0539,-2.0539,-2.0539,-2.0539,-2.0539,-2.0539,-2.0539,-2.0539,-2.0539,-2.0539,-2.0539,-2.0539,-2.0539,-2.0539,-2.0539,-2.0539,-2.0539,-2.0539,-2.0539,-2.0539,-2.0539,-2.0539,-2.0539,-2.0539,-2.0539,-2.056,-2.0614,-2.0675,-2.0817,-2.098,-2.1082,-2.1204,-2.1326,-2.1341,-2.1355,-4.2031,-4.1817,-4.131,-4.1002,-4.0882,-4.0668,-4.0361,-3.9967,-3.9773,-3.9466,-3.9174,-3.9407,-3.968,-3.972,-4.0254,-4.0407,-4.036,-4.036,-4.0043,-3.9539,-3.8746,-3.7489,-3.5729,-3.3613,-3.0055,-2.7148,-2.4751,-2.2751,-2.1835,-2.1236,-2.0569,-2.0265,-2.0204,-2.0083,-2.0029,-1.9908,-1.9914,-1.9739,-1.9752,-1.9752,-1.9752,-1.9745,-1.9725,-1.9725,-1.9725,-1.9725,-1.9725,-1.9725,-1.9725,-1.9725,-1.9739,-1.9793,-1.9848,-1.9827,-1.9881,-1.9949,-2.0017,-2.0139,-2.0261,-2.0329,-2.032,-2.0401,-2.0469,-2.0469,-2.0519,-2.0519,-2.0417,-2.039,-2.0329,-2.0241,-2.0261,-2.0295,-2.0293,-2.0438,-2.0532,-2.0539,-2.0539,-2.0539,-2.0539,-2.0539,-2.0539,-2.0539,-2.0539,-2.0539,-2.0539,-2.0539,-2.0539,-2.0539,-2.0539,-2.0539,-2.0539,-2.0539,-2.0539,-2.0539,-2.0539,-2.0539,-2.0539,-2.0539,-2.0539,-2.0539,-2.0539,-2.0539,-2.0539,-2.0539,-2.0573,-2.06,-2.0668,-2.077,-2.0926,-2.1075,-2.1143,-2.1245,-2.1374,-2.1375,-2.1375]},{"header":{"parameterUnit":"m.s-1","parameterCategory":1,"la1":31.0,"la2":29.5877,"lo1":-88.7671,"lo2":-86.6584,"dy":0.0162,"dx":0.0185,"nx":115,"ny":88,"refTime":"2024-06-16T00:00:00:Z","depth":0,"parameterNumber":3,"parameterNumberName":"V-component_of_WINDS"},"data":[0.0,0.0,0.0,0.0,0.0,0.0,0.0,0.0,0.0,0.0,0.0,0.0,0.0,0.0,0.0,0.0,0.0,0.0,0.0,0.0,0.0,0.0,0.0,0.0,0.0,0.0,0.0,0.0,0.0,0.0,0.0,0.0,0.0,0.0,0.0,0.0,0.0,0.0,0.0,0.0,0.0,0.0,0.0,0.0,0.0,0.0,0.0,0.0,0.0,0.0,0.0,0.0,0.0,0.0,0.0,0.0,0.0,0.0,0.0,0.0,0.0,0.0,0.0,0.0,0.0,0.0,0.0,0.0,0.0,0.0,0.0,0.0,0.0,0.0,0.0,0.0,0.0,0.0,0.0,0.0,0.0,0.0,0.0,0.0,0.0,0.0,0.0,0.0,0.0,0.0,0.0,0.0,0.0,0.0,0.0,0.0,0.0,0.0,0.0,0.0,0.0,0.0,0.0,0.0,0.0,0.0,0.0,0.0,0.0,0.0,0.0,0.0,0.0,0.0,0.0,0.0,0.0,0.0,0.0,0.0,0.0,0.0,0.0,0.0,0.0,0.0,0.0,0.0,0.0,0.0,0.0,0.0,0.0,0.0,0.0,0.0,0.0,0.0,0.0,0.0,0.0,0.0,0.0,0.0,0.0,0.0,0.0,0.0,0.0,0.0,0.0,0.0,0.0,0.0,0.0,0.0,0.0,0.0,0.0,0.0,0.0,0.0,0.0,0.0,0.0,0.0,0.0,0.0,0.0,0.0,0.0,0.0,0.0,0.0,0.0,0.0,0.0,0.0,0.0,0.0,0.0,0.0,0.0,0.0,0.0,0.0,0.0,0.0,0.0,0.0,0.0,0.0,0.0,0.0,0.0,0.0,0.0,0.0,0.0,0.0,0.0,0.0,0.0,0.0,0.0,0.0,0.0,0.0,0.0,0.0,0.0,0.0,0.0,0.0,0.0,0.0,0.0,0.0,0.0,0.0,0.0,0.0,0.0,0.0,0.0,0.0,0.0,0.0,0.0,0.0,0.0,0.0,0.0,0.0,0.0,0.0,0.0,0.0,0.0,0.0,0.0,0.0,0.0,0.0,0.0,0.0,0.0,0.0,0.0,0.0,0.0,0.0,0.0,0.0,0.0,0.0,0.0,0.0,0.0,0.0,0.0,0.0,0.0,0.0,0.0,0.0,0.0,0.0,0.0,0.0,0.0,0.0,0.0,0.0,0.0,0.0,0.0,0.0,0.0,0.0,0.0,0.0,0.0,0.0,0.0,0.0,0.0,0.0,0.0,0.0,0.0,0.0,0.0,0.0,0.0,0.0,0.0,0.0,0.0,0.0,0.0,0.0,0.0,0.0,0.0,0.0,0.0,0.0,0.0,0.0,0.0,0.0,0.0,0.0,0.0,0.0,0.0,0.0,0.0,0.0,0.0,0.0,0.0,0.0,0.0,0.0,0.0,0.0,0.0,0.0,0.0,0.0,0.0,0.0,0.0,0.0,0.0,0.0,0.0,0.0,0.0,0.0,0.0,0.0,0.0,0.0,0.0,0.0,0.0,0.0,0.0,0.0,0.0,0.0,0.0,0.0,0.0,0.0,0.0,0.0,0.0,0.0,0.0,0.0,0.0,0.0,0.0,0.0,0.0,0.0,0.0,0.0,0.0,0.0,0.0,0.0,0.0,0.0,0.0,0.0,0.0,0.0,0.0,0.0,0.0,0.0,0.0,0.0,0.0,0.0,0.0,0.0,0.0,0.0,0.0,0.0,0.0,0.0,0.0,0.0,0.0,0.0,0.0,0.0,0.0,0.0,0.0,0.0,0.0,0.0,0.0,0.0,0.0,0.0,0.0,0.0,0.0,0.0,0.0,0.0,0.0,0.0,0.0,0.0,0.0,0.0,0.0,0.0,0.0,0.0,0.0,0.0,0.0,0.0,0.0,0.0,0.0,0.0,0.0,0.0,0.0,0.0,0.0,0.0,0.0,0.0,0.0,0.0,0.0,0.0,0.0,0.0,0.0,0.0,0.0,0.0,0.0,0.0,0.0,0.0,0.0,0.0,0.0,0.0,0.0,0.0,0.0,0.0,0.0,0.0,0.0,0.0,0.0,0.0,0.0,0.0,0.0,0.0,0.0,0.0,0.0,0.0,0.0,0.0,0.0,0.0,0.0,0.0,0.0,0.0,0.0,0.0,0.0,0.0,0.0,0.0,0.0,0.0,0.0,0.0,0.0,0.0,0.0,0.0,0.0,0.0,0.0,0.0,0.0,0.0,0.0,0.0,0.0,0.0,0.0,0.0,0.0,0.0,0.0,0.0,0.0,0.0,0.0,0.0,0.0,0.0,0.0,0.0,0.0,0.0,0.0,0.0,0.0,0.0,0.0,0.0,0.0,0.0,0.0,0.0,0.0,0.0,0.0,0.0,0.0,0.0,0.0,0.0,0.0,0.0,0.0,0.0,0.0,0.0,0.0,0.0,0.0,0.0,0.0,0.0,0.0,0.0,0.0,0.0,0.0,0.0,0.0,0.0,0.0,0.0,0.0,0.0,0.0,0.0,0.0,0.0,0.0,0.0,0.0,0.0,0.0,0.0,0.0,0.0,0.0,0.0,0.0,0.0,0.0,0.0,0.0,0.0,0.0,0.0,0.0,0.0,0.0,0.0,0.0,0.0,0.0,0.0,0.0,0.0,0.0,0.0,0.0,0.0,0.0,0.0,0.0,0.0,0.0,0.0,0.0,0.0,0.0,0.0,0.0,0.0,0.0,0.0,0.0,0.0,0.0,0.0,0.0,0.0,0.0,0.0,0.0,0.0,0.0,0.0,0.0,0.0,0.0,0.0,0.0,0.0,0.0,0.0,0.0,0.0,0.0,0.0,0.0,0.0,0.0,0.0,0.0,0.0,0.0,0.0,0.0,0.0,0.0,0.0,0.0,0.0,0.0,0.0,0.0,0.0,0.0,0.0,0.0,0.0,0.0,0.0,0.0,0.0,0.0,0.0,0.0,0.0,0.0,0.0,0.0,0.0,0.0,0.0,0.0,0.0,0.0,0.0,0.0,0.0,0.0,0.0,0.0,0.0,0.0,0.0,0.0,0.0,0.0,0.0,0.0,0.0,0.0,0.0,0.0,0.0,0.0,0.0,0.0,0.0,0.0,0.0,0.0,0.0,0.0,0.0,0.0,0.0,0.0,0.0,0.0,0.0,0.0,0.0,0.0,0.0,0.0,0.0,0.0,0.0,0.0,0.0,0.0,0.0,0.0,0.0,0.0,0.0,0.0,0.0,0.0,0.0,0.0,0.0,0.0,0.0,0.0,0.0,0.0,0.0,0.0,0.0,0.0,0.0,0.0,0.0,0.0,0.0,0.0,0.0,0.0,0.0,0.0,0.0,0.0,0.0,0.0,0.0,0.0,0.0,0.0,0.0,0.0,0.0,0.0,0.0,0.0,0.0,0.0,0.0,0.0,0.0,0.0,0.0,0.0,0.0,0.0,0.0,0.0,0.0,0.0,0.0,0.0,0.0,0.0,0.0,0.0,0.0,0.0,0.0,0.0,0.0,0.0,0.0,0.0,0.0,0.0,0.0,0.0,0.0,0.0,0.0,0.0,0.0,0.0,0.0,0.0,0.0,0.0,0.0,0.0,0.0,0.0,0.0,0.0,0.0,0.0,0.0,0.0,0.0,0.0,0.0,0.0,0.0,0.0,0.0,0.0,0.0,0.0,0.0,0.0,0.0,0.0,0.0,0.0,0.0,0.0,0.0,0.0,0.0,0.0,0.0,0.0,0.0,0.0,0.0,0.0,0.0,0.0,0.0,0.0,0.0,0.0,0.0,0.0,0.0,0.0,0.0,0.0,0.0,0.0,0.0,0.0,0.0,0.0,0.0,0.0,0.0,0.0,0.0,0.0,0.0,0.0,0.0,0.0,0.0,0.0,0.0,0.0,0.0,0.0,0.0,0.0,0.0,0.0,0.0,0.0,0.0,0.0,0.0,0.0,0.0,0.0,0.0,0.0,0.0,0.0,0.0,0.0,0.0,0.0,0.0,0.0,0.0,0.0,0.0,0.0,0.0,0.0,0.0,0.0,0.0,0.0,0.0,0.0,0.0,0.0,0.0,0.0,0.0,0.0,0.0,0.0,0.0,0.0,0.0,0.0,0.0,0.0,0.0,0.0,0.0,0.0,0.0,0.0,0.0,0.0,0.0,0.0,0.0,0.0,0.0,0.0,0.0,0.0,0.0,0.0,0.0,0.0,0.0,0.0,0.0,0.0,0.0,0.0,0.0,0.0,0.0,3.0717,0.0,0.0,0.0,0.0,0.0,0.0,0.0,0.0,0.0,0.0,0.0,0.0,0.0,0.0,0.0,0.0,0.0,0.0,0.0,0.0,0.0,0.0,0.0,0.0,0.0,0.0,0.0,0.0,0.0,0.0,0.0,0.0,0.0,0.0,0.0,0.0,0.0,0.0,0.0,0.0,0.0,0.0,0.0,0.0,0.0,0.0,0.0,0.0,0.0,0.0,0.0,0.0,0.0,0.0,0.0,0.0,0.0,0.0,0.0,0.0,0.0,0.0,0.0,0.0,0.0,0.0,0.0,0.0,0.0,0.0,0.0,0.0,0.0,0.0,0.0,0.0,0.0,0.0,0.0,0.0,0.0,0.0,0.0,0.0,0.0,0.0,0.0,0.0,0.0,0.0,0.0,0.0,0.0,0.0,0.0,0.0,0.0,0.0,0.0,0.0,0.0,0.0,0.0,0.0,0.0,0.0,0.0,0.0,0.0,0.0,3.1469,3.1469,3.19,3.214,3.2153,0.0,0.0,0.0,0.0,0.0,0.0,0.0,0.0,0.0,0.0,0.0,0.0,0.0,0.0,0.0,0.0,0.0,0.0,0.0,0.0,0.0,0.0,0.0,0.0,0.0,0.0,0.0,0.0,0.0,0.0,0.0,0.0,0.0,0.0,0.0,0.0,0.0,0.0,0.0,0.0,0.0,0.0,0.0,0.0,0.0,0.0,0.0,0.0,0.0,0.0,0.0,0.0,0.0,0.0,0.0,0.0,0.0,0.0,0.0,0.0,0.0,0.0,0.0,0.0,0.0,0.0,0.0,0.0,0.0,0.0,0.0,0.0,0.0,0.0,0.0,0.0,0.0,0.0,0.0,0.0,0.0,0.0,0.0,0.0,0.0,0.0,0.0,0.0,0.0,0.0,0.0,0.0,0.0,0.0,0.0,0.0,0.0,0.0,0.0,0.0,0.0,0.0,0.0,0.0,0.0,0.0,0.0,0.0,0.0,0.0,0.0,0.0,3.2997,3.3352,3.3357,0.0,0.0,0.0,0.0,0.0,0.0,0.0,0.0,0.0,0.0,0.0,0.0,0.0,0.0,0.0,0.0,0.0,0.0,0.0,0.0,0.0,0.0,0.0,0.0,0.0,0.0,0.0,0.0,0.0,0.0,0.0,0.0,0.0,0.0,0.0,0.0,0.0,0.0,0.0,0.0,0.0,0.0,0.0,0.0,0.0,0.0,0.0,0.0,0.0,0.0,0.0,0.0,0.0,0.0,0.0,0.0,0.0,0.0,0.0,0.0,0.0,0.0,0.0,0.0,0.0,0.0,0.0,0.0,0.0,0.0,0.0,0.0,0.0,0.0,0.0,0.0,0.0,0.0,0.0,0.0,0.0,0.0,0.0,0.0,0.0,0.0,0.0,0.0,0.0,0.0,0.0,0.0,0.0,0.0,0.0,0.0,0.0,0.0,0.0,0.0,0.0,0.0,0.0,0.0,0.0,0.0,0.0,0.0,0.0,0.0,3.3275,3.3275,3.3353,0.0,3.3353,0.0,0.0,0.0,0.0,0.0,0.0,0.0,0.0,0.0,0.0,0.0,0.0,0.0,0.0,0.0,0.0,0.0,0.0,0.0,0.0,0.0,0.0,0.0,0.0,0.0,0.0,0.0,0.0,0.0,0.0,0.0,0.0,0.0,0.0,0.0,0.0,0.0,0.0,0.0,0.0,0.0,0.0,0.0,0.0,0.0,0.0,0.0,0.0,0.0,0.0,0.0,0.0,0.0,0.0,0.0,0.0,0.0,0.0,0.0,0.0,0.0,0.0,0.0,0.0,0.0,0.0,0.0,0.0,0.0,0.0,0.0,0.0,0.0,0.0,0.0,0.0,0.0,0.0,0.0,0.0,0.0,0.0,0.0,0.0,0.0,0.0,0.0,0.0,0.0,0.0,0.0,0.0,0.0,0.0,0.0,0.0,0.0,0.0,0.0,0.0,0.0,0.0,0.0,0.0,0.0,0.0,0.0,0.0,0.0,0.0,3.4956,3.4956,3.5425,3.5465,0.0,0.0,0.0,0.0,0.0,0.0,0.0,0.0,0.0,0.0,0.0,0.0,0.0,0.0,0.0,0.0,0.0,0.0,0.0,0.0,0.0,0.0,0.0,0.0,0.0,0.0,0.0,0.0,0.0,0.0,0.0,0.0,0.0,0.0,0.0,0.0,0.0,0.0,0.0,0.0,0.0,0.0,0.0,0.0,0.0,0.0,0.0,0.0,0.0,0.0,0.0,0.0,0.0,0.0,0.0,0.0,0.0,0.0,0.0,0.0,0.0,0.0,0.0,0.0,0.0,0.0,0.0,0.0,0.0,0.0,0.0,0.0,0.0,0.0,0.0,0.0,0.0,0.0,0.0,0.0,0.0,0.0,0.0,0.0,0.0,0.0,0.0,0.0,0.0,0.0,0.0,0.0,0.0,0.0,0.0,0.0,0.0,0.0,0.0,0.0,0.0,0.0,0.0,0.0,0.0,0.0,0.0,0.0,0.0,0.0,3.5154,0.0,3.6716,3.7107,3.699,3.6366,0.0,0.0,0.0,0.0,0.0,0.0,0.0,0.0,0.0,0.0,0.0,0.0,0.0,0.0,0.0,0.0,0.0,0.0,0.0,0.0,0.0,0.0,0.0,0.0,0.0,0.0,0.0,0.0,0.0,0.0,0.0,0.0,0.0,0.0,0.0,0.0,0.0,0.0,0.0,0.0,0.0,0.0,0.0,0.0,0.0,0.0,0.0,0.0,0.0,0.0,0.0,0.0,0.0,0.0,0.0,0.0,0.0,0.0,0.0,0.0,0.0,0.0,0.0,0.0,0.0,0.0,0.0,0.0,0.0,0.0,0.0,0.0,0.0,0.0,0.0,0.0,0.0,0.0,0.0,0.0,0.0,0.0,0.0,0.0,0.0,0.0,0.0,0.0,0.0,0.0,0.0,0.0,0.0,0.0,0.0,0.0,0.0,0.0,0.0,0.0,0.0,0.0,0.0,0.0,0.0,0.0,0.0,0.0,0.0,3.6328,3.7656,3.8437,3.7734,3.7305,0.0,0.0,0.0,0.0,0.0,0.0,0.0,0.0,0.0,0.0,0.0,0.0,0.0,0.0,0.0,0.0,0.0,0.0,0.0,0.0,0.0,0.0,0.0,0.0,0.0,0.0,0.0,0.0,0.0,0.0,0.0,0.0,0.0,0.0,0.0,0.0,0.0,0.0,0.0,0.0,0.0,0.0,0.0,0.0,0.0,0.0,0.0,0.0,0.0,0.0,0.0,0.0,0.0,0.0,0.0,0.0,0.0,0.0,0.0,0.0,0.0,0.0,0.0,0.0,0.0,0.0,0.0,0.0,0.0,0.0,0.0,0.0,0.0,0.0,0.0,0.0,0.0,0.0,0.0,0.0,0.0,0.0,0.0,0.0,0.0,0.0,0.0,0.0,0.0,0.0,0.0,0.0,0.0,0.0,0.0,0.0,0.0,0.0,0.0,0.0,0.0,0.0,0.0,0.0,0.0,0.0,0.0,0.0,0.0,3.5547,3.7773,3.9375,4.0195,3.8867,3.8125,0.0,0.0,0.0,0.0,0.0,0.0,0.0,0.0,0.0,0.0,0.0,0.0,0.0,0.0,0.0,0.0,0.0,0.0,0.0,0.0,0.0,0.0,0.0,0.0,0.0,0.0,0.0,0.0,0.0,0.0,0.0,0.0,0.0,0.0,0.0,0.0,0.0,0.0,0.0,0.0,0.0,0.0,0.0,0.0,0.0,0.0,0.0,0.0,0.0,0.0,0.0,0.0,0.0,0.0,0.0,0.0,0.0,0.0,0.0,0.0,0.0,0.0,0.0,0.0,0.0,0.0,0.0,0.0,0.0,0.0,0.0,0.0,0.0,0.0,0.0,0.0,0.0,0.0,0.0,0.0,0.0,0.0,0.0,0.0,0.0,0.0,0.0,0.0,0.0,0.0,0.0,0.0,0.0,0.0,0.0,0.0,0.0,0.0,0.0,0.0,0.0,0.0,0.0,0.0,0.0,0.0,0.0,0.0,0.0,3.7617,0.0,4.0976,0.0,3.9922,3.8906,0.0,0.0,0.0,0.0,0.0,0.0,0.0,0.0,0.0,0.0,0.0,0.0,0.0,0.0,0.0,0.0,0.0,0.0,0.0,0.0,0.0,0.0,0.0,0.0,0.0,0.0,0.0,0.0,0.0,0.0,0.0,0.0,0.0,0.0,0.0,0.0,0.0,0.0,0.0,0.0,0.0,0.0,0.0,0.0,0.0,0.0,0.0,0.0,0.0,0.0,0.0,0.0,0.0,0.0,0.0,0.0,0.0,0.0,0.0,0.0,0.0,0.0,0.0,0.0,0.0,0.0,0.0,0.0,0.0,0.0,0.0,0.0,0.0,0.0,0.0,0.0,0.0,0.0,0.0,0.0,0.0,0.0,0.0,0.0,0.0,0.0,0.0,0.0,0.0,0.0,0.0,0.0,0.0,0.0,0.0,0.0,0.0,0.0,0.0,0.0,0.0,0.0,0.0,0.0,0.0,0.0,0.0,0.0,3.7773,4.1016,4.1953,4.2461,4.2383,4.082,3.9531,0.0,0.0,0.0,0.0,0.0,0.0,0.0,0.0,0.0,0.0,0.0,0.0,0.0,0.0,0.0,0.0,0.0,0.0,0.0,0.0,0.0,0.0,0.0,0.0,0.0,0.0,0.0,0.0,0.0,0.0,0.0,0.0,0.0,0.0,0.0,0.0,0.0,0.0,0.0,0.0,0.0,0.0,0.0,0.0,0.0,0.0,0.0,0.0,0.0,0.0,0.0,0.0,0.0,0.0,0.0,0.0,0.0,0.0,0.0,0.0,0.0,0.0,0.0,0.0,0.0,0.0,0.0,0.0,0.0,0.0,0.0,0.0,0.0,0.0,0.0,0.0,0.0,0.0,0.0,0.0,0.0,0.0,0.0,0.0,0.0,0.0,0.0,0.0,0.0,0.0,0.0,0.0,0.0,0.0,0.0,0.0,0.0,0.0,0.0,0.0,0.0,0.0,0.0,0.0,0.0,0.0,0.0,0.0,0.0,4.2031,4.3437,4.418,4.4141,4.2539,4.0976,0.0,0.0,0.0,0.0,0.0,0.0,0.0,0.0,0.0,0.0,0.0,0.0,0.0,0.0,0.0,0.0,0.0,0.0,0.0,0.0,0.0,0.0,0.0,0.0,0.0,0.0,0.0,0.0,0.0,0.0,0.0,0.0,0.0,0.0,0.0,0.0,0.0,0.0,0.0,0.0,0.0,0.0,0.0,0.0,0.0,0.0,0.0,0.0,0.0,0.0,0.0,0.0,0.0,0.0,0.0,0.0,0.0,0.0,0.0,0.0,0.0,0.0,0.0,0.0,0.0,0.0,0.0,0.0,0.0,0.0,0.0,0.0,0.0,0.0,0.0,0.0,0.0,0.0,0.0,0.0,0.0,0.0,0.0,0.0,0.0,0.0,0.0,0.0,0.0,0.0,0.0,0.0,0.0,0.0,0.0,0.0,0.0,0.0,0.0,0.0,0.0,0.0,0.0,0.0,0.0,0.0,0.0,0.0,0.0,4.5742,4.6523,4.6758,4.6484,4.4766,4.2891,4.0859,0.0,0.0,0.0,0.0,0.0,0.0,0.0,0.0,0.0,0.0,0.0,0.0,0.0,0.0,0.0,0.0,0.0,0.0,0.0,0.0,0.0,0.0,0.0,0.0,0.0,0.0,0.0,0.0,0.0,0.0,0.0,0.0,0.0,0.0,0.0,0.0,0.0,0.0,0.0,0.0,0.0,0.0,0.0,0.0,0.0,0.0,0.0,0.0,0.0,0.0,0.0,0.0,0.0,0.0,0.0,0.0,0.0,0.0,0.0,0.0,0.0,0.0,0.0,0.0,0.0,0.0,0.0,0.0,0.0,0.0,0.0,0.0,0.0,0.0,0.0,0.0,0.0,0.0,0.0,0.0,0.0,0.0,0.0,0.0,0.0,0.0,0.0,0.0,0.0,0.0,0.0,0.0,0.0,0.0,0.0,0.0,0.0,0.0,0.0,0.0,0.0,0.0,0.0,0.0,0.0,0.0,0.0,0.0,5.1639,5.1093,5.0273,4.9219,4.75,4.5312,0.0,0.0,0.0,0.0,0.0,0.0,0.0,0.0,0.0,0.0,0.0,0.0,0.0,0.0,0.0,0.0,0.0,0.0,0.0,0.0,0.0,0.0,0.0,0.0,0.0,0.0,0.0,0.0,0.0,0.0,0.0,0.0,0.0,0.0,0.0,0.0,0.0,0.0,0.0,0.0,0.0,0.0,0.0,0.0,0.0,0.0,0.0,0.0,0.0,0.0,0.0,0.0,0.0,0.0,0.0,0.0,0.0,0.0,0.0,0.0,0.0,0.0,0.0,0.0,0.0,0.0,0.0,0.0,0.0,0.0,0.0,0.0,0.0,0.0,0.0,0.0,0.0,0.0,0.0,0.0,0.0,0.0,0.0,0.0,0.0,0.0,0.0,0.0,0.0,0.0,0.0,0.0,0.0,0.0,0.0,0.0,0.0,0.0,0.0,0.0,0.0,0.0,0.0,0.0,0.0,0.0,0.0,0.0,0.0,5.5109,5.6868,5.613,5.2773,5.0976,4.8242,0.0,0.0,0.0,0.0,0.0,0.0,0.0,0.0,0.0,0.0,0.0,0.0,0.0,0.0,0.0,0.0,0.0,0.0,0.0,0.0,0.0,0.0,0.0,0.0,0.0,0.0,0.0,0.0,0.0,0.0,0.0,0.0,0.0,0.0,0.0,0.0,0.0,0.0,0.0,0.0,0.0,0.0,0.0,0.0,0.0,0.0,0.0,0.0,0.0,0.0,0.0,0.0,0.0,0.0,0.0,0.0,0.0,0.0,0.0,0.0,0.0,0.0,0.0,0.0,0.0,0.0,0.0,0.0,0.0,0.0,0.0,0.0,0.0,0.0,0.0,0.0,0.0,0.0,0.0,0.0,0.0,0.0,0.0,0.0,0.0,0.0,0.0,0.0,0.0,0.0,0.0,0.0,0.0,0.0,0.0,0.0,0.0,0.0,0.0,0.0,0.0,0.0,0.0,0.0,0.0,0.0,0.0,0.0,5.4707,5.811,6.0336,6.0146,5.7302,5.453,5.121,0.0,0.0,0.0,0.0,0.0,0.0,0.0,0.0,0.0,0.0,0.0,0.0,0.0,0.0,0.0,0.0,0.0,0.0,0.0,0.0,0.0,0.0,0.0,0.0,0.0,0.0,0.0,0.0,0.0,0.0,0.0,0.0,0.0,0.0,0.0,0.0,0.0,0.0,0.0,0.0,0.0,0.0,0.0,0.0,0.0,0.0,0.0,0.0,0.0,0.0,0.0,0.0,0.0,0.0,0.0,0.0,0.0,0.0,0.0,0.0,0.0,0.0,0.0,0.0,0.0,0.0,0.0,0.0,0.0,0.0,0.0,0.0,0.0,0.0,0.0,0.0,0.0,0.0,0.0,0.0,0.0,0.0,0.0,0.0,0.0,0.0,0.0,0.0,0.0,0.0,0.0,0.0,0.0,0.0,0.0,0.0,0.0,0.0,0.0,0.0,0.0,0.0,0.0,0.0,0.0,0.0,0.0,0.0,5.7236,6.0602,6.2359,6.2871,6.202,5.7923,5.3982,0.0,0.0,0.0,0.0,0.0,0.0,0.0,0.0,0.0,0.0,0.0,0.0,0.0,0.0,0.0,0.0,0.0,0.0,0.0,0.0,0.0,0.0,0.0,0.0,0.0,0.0,0.0,0.0,0.0,0.0,0.0,0.0,0.0,0.0,0.0,0.0,0.0,0.0,0.0,0.0,0.0,0.0,0.0,0.0,0.0,0.0,0.0,0.0,0.0,0.0,0.0,0.0,0.0,0.0,0.0,0.0,0.0,0.0,0.0,0.0,0.0,0.0,0.0,0.0,0.0,0.0,0.0,0.0,0.0,0.0,0.0,0.0,0.0,0.0,0.0,0.0,0.0,0.0,0.0,0.0,0.0,0.0,0.0,0.0,0.0,0.0,0.0,0.0,0.0,0.0,0.0,0.0,0.0,0.0,0.0,0.0,0.0,0.0,0.0,0.0,0.0,0.0,0.0,0.0,0.0,0.0,0.0,0.0,5.8951,6.2348,6.4144,6.4968,6.4783,6.0573,5.6049,0.0,0.0,0.0,0.0,0.0,0.0,0.0,0.0,0.0,0.0,0.0,0.0,0.0,0.0,0.0,0.0,0.0,0.0,0.0,0.0,0.0,0.0,0.0,0.0,0.0,0.0,0.0,0.0,0.0,0.0,0.0,0.0,0.0,0.0,0.0,0.0,0.0,0.0,0.0,0.0,0.0,0.0,0.0,0.0,0.0,0.0,0.0,0.0,4.4336,0.0,0.0,0.0,0.0,0.0,0.0,0.0,0.0,0.0,0.0,0.0,0.0,0.0,0.0,0.0,0.0,0.0,0.0,0.0,0.0,0.0,0.0,0.0,0.0,0.0,0.0,0.0,0.0,0.0,0.0,0.0,0.0,0.0,0.0,0.0,0.0,0.0,0.0,0.0,0.0,0.0,0.0,0.0,0.0,0.0,0.0,0.0,0.0,0.0,0.0,0.0,0.0,0.0,0.0,0.0,0.0,0.0,0.0,0.0,6.051,6.3517,6.5274,6.5978,6.5515,6.2162,5.811,0.0,0.0,0.0,0.0,0.0,0.0,0.0,0.0,0.0,0.0,0.0,0.0,0.0,0.0,0.0,0.0,0.0,0.0,0.0,0.0,0.0,0.0,0.0,0.0,0.0,0.0,0.0,0.0,0.0,0.0,0.0,0.0,0.0,0.0,0.0,0.0,0.0,0.0,0.0,0.0,0.0,0.0,0.0,0.0,0.0,0.0,0.0,0.0,0.0,0.0,0.0,0.0,0.0,0.0,0.0,0.0,0.0,0.0,0.0,0.0,0.0,0.0,0.0,0.0,0.0,0.0,0.0,0.0,0.0,0.0,0.0,0.0,0.0,0.0,0.0,0.0,0.0,0.0,0.0,0.0,0.0,0.0,0.0,0.0,0.0,0.0,0.0,0.0,0.0,0.0,0.0,0.0,0.0,0.0,0.0,0.0,0.0,0.0,0.0,0.0,0.0,0.0,0.0,0.0,0.0,0.0,0.0,5.8441,6.1876,6.4415,6.6016,6.6406,6.5585,6.3085,5.9698,5.5417,0.0,0.0,0.0,0.0,0.0,0.0,0.0,0.0,0.0,0.0,0.0,0.0,0.0,0.0,0.0,0.0,0.0,0.0,0.0,0.0,0.0,0.0,0.0,0.0,0.0,0.0,0.0,0.0,0.0,0.0,0.0,0.0,0.0,0.0,0.0,0.0,0.0,0.0,4.5547,4.7812,0.0,0.0,0.0,0.0,0.0,0.0,0.0,0.0,4.8592,0.0,0.0,0.0,0.0,0.0,0.0,0.0,0.0,0.0,0.0,0.0,0.0,0.0,0.0,0.0,0.0,0.0,0.0,0.0,0.0,0.0,0.0,0.0,0.0,0.0,0.0,0.0,0.0,0.0,0.0,0.0,0.0,0.0,0.0,0.0,0.0,0.0,0.0,0.0,0.0,0.0,0.0,0.0,0.0,0.0,0.0,0.0,0.0,0.0,0.0,0.0,0.0,0.0,0.0,0.0,0.0,5.5045,5.93,6.2773,6.5312,6.6328,6.6406,6.5546,6.3046,5.9691,5.5402,0.0,0.0,0.0,0.0,0.0,0.0,0.0,0.0,0.0,0.0,0.0,0.0,0.0,0.0,0.0,0.0,0.0,0.0,0.0,0.0,0.0,0.0,0.0,0.0,0.0,0.0,0.0,0.0,0.0,0.0,0.0,0.0,0.0,0.0,0.0,0.0,0.0,0.0,0.0,5.0309,5.1245,0.0,0.0,0.0,0.0,0.0,0.0,0.0,0.0,4.9827,0.0,0.0,0.0,0.0,0.0,0.0,0.0,0.0,0.0,0.0,0.0,0.0,0.0,0.0,0.0,0.0,0.0,0.0,0.0,0.0,0.0,0.0,0.0,0.0,0.0,0.0,0.0,0.0,0.0,0.0,0.0,0.0,0.0,0.0,0.0,0.0,0.0,0.0,0.0,0.0,0.0,0.0,0.0,0.0,0.0,0.0,0.0,0.0,0.0,0.0,0.0,0.0,0.0,0.0,0.0,5.5909,6.0592,6.38,6.5532,6.6823,6.6865,6.5623,6.3046,5.9689,0.0,0.0,0.0,0.0,0.0,0.0,0.0,0.0,0.0,0.0,0.0,0.0,0.0,0.0,0.0,0.0,0.0,0.0,0.0,0.0,0.0,0.0,0.0,0.0,0.0,0.0,0.0,0.0,0.0,0.0,0.0,0.0,0.0,0.0,0.0,0.0,0.0,0.0,0.0,0.0,5.1624,5.3027,5.3889,0.0,0.0,0.0,0.0,0.0,0.0,5.2775,5.2579,0.0,0.0,0.0,0.0,0.0,0.0,0.0,0.0,0.0,0.0,0.0,0.0,0.0,0.0,0.0,0.0,0.0,0.0,0.0,0.0,0.0,0.0,0.0,0.0,0.0,0.0,0.0,0.0,0.0,0.0,0.0,0.0,0.0,0.0,0.0,0.0,0.0,0.0,0.0,0.0,0.0,0.0,0.0,0.0,0.0,0.0,0.0,0.0,0.0,0.0,0.0,0.0,0.0,0.0,0.0,5.6708,6.1625,6.4766,6.5966,6.7337,6.727,6.5604,6.3032,5.96,0.0,0.0,0.0,0.0,0.0,0.0,0.0,0.0,0.0,0.0,0.0,0.0,0.0,0.0,0.0,0.0,0.0,0.0,0.0,0.0,0.0,0.0,0.0,0.0,0.0,0.0,0.0,0.0,0.0,0.0,0.0,0.0,0.0,0.0,0.0,0.0,0.0,0.0,0.0,0.0,0.0,5.5071,5.6083,5.5493,0.0,0.0,0.0,0.0,5.6064,5.6056,0.0,0.0,0.0,0.0,0.0,0.0,0.0,0.0,0.0,0.0,0.0,0.0,0.0,0.0,0.0,0.0,0.0,0.0,0.0,0.0,0.0,0.0,0.0,0.0,0.0,0.0,0.0,0.0,0.0,0.0,0.0,0.0,0.0,0.0,0.0,0.0,0.0,0.0,0.0,0.0,0.0,0.0,0.0,0.0,0.0,0.0,0.0,0.0,0.0,0.0,0.0,0.0,0.0,0.0,0.0,0.0,5.7409,6.1793,6.5197,6.7503,6.7878,6.7192,6.5443,6.2966,5.9233,0.0,0.0,0.0,0.0,0.0,0.0,0.0,0.0,0.0,0.0,0.0,0.0,0.0,0.0,0.0,0.0,0.0,0.0,0.0,0.0,0.0,0.0,0.0,0.0,0.0,0.0,0.0,0.0,0.0,0.0,0.0,0.0,0.0,0.0,0.0,0.0,0.0,0.0,0.0,0.0,0.0,5.793,5.9487,5.8952,5.8724,0.0,0.0,5.8621,5.9477,5.8968,0.0,0.0,0.0,0.0,0.0,0.0,0.0,0.0,0.0,0.0,0.0,0.0,0.0,0.0,0.0,0.0,0.0,0.0,0.0,0.0,0.0,0.0,0.0,0.0,0.0,0.0,0.0,0.0,0.0,0.0,0.0,0.0,0.0,0.0,0.0,0.0,0.0,0.0,0.0,0.0,0.0,0.0,0.0,0.0,0.0,0.0,0.0,0.0,0.0,0.0,0.0,0.0,0.0,0.0,0.0,5.3288,5.8845,6.3168,6.6351,6.8429,6.903,6.8232,6.6067,6.3553,5.9781,0.0,0.0,0.0,0.0,0.0,0.0,0.0,0.0,0.0,0.0,0.0,0.0,0.0,0.0,0.0,0.0,0.0,0.0,0.0,0.0,0.0,0.0,0.0,0.0,0.0,0.0,0.0,0.0,0.0,0.0,0.0,0.0,0.0,0.0,0.0,0.0,0.0,0.0,0.0,0.0,0.0,0.0,6.1373,6.1751,0.0,0.0,0.0,6.2604,6.2996,0.0,0.0,0.0,0.0,0.0,0.0,0.0,0.0,0.0,0.0,0.0,0.0,0.0,0.0,0.0,0.0,0.0,0.0,0.0,0.0,0.0,0.0,0.0,0.0,0.0,0.0,0.0,0.0,0.0,0.0,0.0,0.0,0.0,0.0,0.0,0.0,0.0,0.0,0.0,0.0,0.0,0.0,0.0,0.0,0.0,0.0,0.0,0.0,0.0,0.0,0.0,0.0,0.0,0.0,0.0,0.0,0.0,5.9848,6.4118,6.7229,6.9175,6.989,6.9138,6.6792,6.4288,0.0,0.0,0.0,0.0,0.0,0.0,0.0,0.0,0.0,0.0,0.0,0.0,0.0,0.0,0.0,0.0,0.0,0.0,0.0,0.0,0.0,0.0,0.0,0.0,0.0,0.0,0.0,3.7262,0.0,0.0,0.0,0.0,0.0,0.0,0.0,0.0,0.0,0.0,0.0,0.0,0.0,0.0,6.1091,6.362,6.4687,6.562,0.0,0.0,6.6412,6.6462,6.5565,6.4562,0.0,0.0,0.0,0.0,0.0,0.0,0.0,0.0,0.0,0.0,0.0,0.0,0.0,0.0,0.0,0.0,0.0,0.0,0.0,0.0,0.0,0.0,0.0,0.0,0.0,0.0,0.0,0.0,0.0,0.0,0.0,0.0,0.0,0.0,0.0,0.0,0.0,0.0,0.0,0.0,0.0,0.0,0.0,0.0,0.0,0.0,0.0,0.0,0.0,0.0,0.0,0.0,0.0,0.0,5.4564,5.9667,6.3938,6.7365,6.9728,6.9965,6.9185,6.7454,6.5052,6.1293,0.0,0.0,0.0,0.0,0.0,0.0,0.0,0.0,0.0,0.0,0.0,0.0,0.0,0.0,0.0,0.0,0.0,0.0,0.0,0.0,0.0,0.0,0.0,0.0,0.0,0.0,0.0,0.0,0.0,0.0,0.0,0.0,0.0,0.0,0.0,0.0,0.0,0.0,0.0,0.0,0.0,6.4473,6.7031,6.8114,6.9222,0.0,7.0331,6.9813,6.9866,6.8433,6.683,6.5209,0.0,0.0,0.0,0.0,0.0,0.0,0.0,0.0,0.0,0.0,0.0,0.0,0.0,0.0,0.0,0.0,0.0,0.0,0.0,0.0,0.0,0.0,0.0,0.0,0.0,0.0,0.0,0.0,0.0,0.0,0.0,0.0,0.0,0.0,0.0,0.0,0.0,0.0,0.0,0.0,0.0,0.0,0.0,0.0,0.0,0.0,0.0,0.0,0.0,0.0,0.0,0.0,0.0,5.5619,6.118,6.545,6.8829,7.1291,7.1469,7.094,6.9743,6.6769,6.2998,0.0,0.0,0.0,0.0,0.0,0.0,0.0,0.0,0.0,0.0,0.0,0.0,0.0,0.0,0.0,0.0,0.0,0.0,0.0,0.0,0.0,0.0,0.0,0.0,0.0,0.0,0.0,0.0,4.4857,4.6142,4.7333,0.0,0.0,0.0,0.0,0.0,0.0,0.0,0.0,0.0,0.0,6.6752,7.0273,7.1528,0.0,0.0,7.3827,7.324,7.3261,7.1386,6.9527,6.8413,6.5328,0.0,0.0,0.0,0.0,0.0,0.0,0.0,0.0,0.0,0.0,0.0,0.0,0.0,0.0,0.0,0.0,0.0,0.0,0.0,0.0,0.0,0.0,0.0,0.0,0.0,0.0,0.0,0.0,0.0,0.0,0.0,0.0,0.0,0.0,0.0,0.0,0.0,0.0,0.0,0.0,0.0,0.0,0.0,0.0,0.0,0.0,0.0,0.0,0.0,0.0,0.0,0.0,5.7224,6.2858,6.6819,7.0112,7.2694,7.2733,7.2193,7.1043,6.8473,6.5009,0.0,0.0,0.0,0.0,0.0,0.0,0.0,0.0,0.0,0.0,0.0,0.0,0.0,0.0,0.0,0.0,0.0,0.0,0.0,0.0,0.0,0.0,0.0,0.0,0.0,0.0,0.0,0.0,4.7175,4.8431,4.9045,0.0,0.0,0.0,0.0,0.0,0.0,0.0,0.0,0.0,0.0,6.9585,7.3286,7.4552,7.5608,7.7047,7.6731,7.6267,7.5996,7.4022,7.2251,7.1435,0.0,0.0,0.0,0.0,0.0,0.0,0.0,0.0,0.0,0.0,0.0,0.0,0.0,0.0,0.0,0.0,0.0,0.0,0.0,0.0,0.0,0.0,0.0,0.0,0.0,0.0,0.0,5.0601,0.0,0.0,4.5796,0.0,0.0,0.0,0.0,0.0,0.0,0.0,0.0,0.0,0.0,0.0,0.0,0.0,0.0,0.0,0.0,0.0,0.0,0.0,0.0,0.0,0.0,5.9435,6.4474,6.7943,7.0937,7.3399,7.3476,7.2675,7.1021,7.0073,6.7249,6.2165,0.0,0.0,0.0,0.0,0.0,0.0,0.0,0.0,0.0,0.0,0.0,0.0,0.0,0.0,0.0,0.0,0.0,0.0,0.0,0.0,0.0,0.0,0.0,0.0,0.0,0.0,4.8068,4.9736,5.0739,0.0,0.0,0.0,0.0,0.0,0.0,0.0,0.0,0.0,6.8033,7.0771,7.335,7.6005,7.71,7.7989,7.8873,7.8957,7.8647,7.7835,7.6204,7.4767,0.0,0.0,0.0,0.0,0.0,0.0,0.0,0.0,0.0,0.0,0.0,0.0,0.0,0.0,0.0,0.0,0.0,0.0,0.0,0.0,0.0,0.0,0.0,0.0,0.0,0.0,0.0,5.776,5.7258,0.0,0.0,0.0,0.0,0.0,0.0,0.0,0.0,0.0,0.0,0.0,6.7077,6.6558,0.0,0.0,0.0,0.0,0.0,0.0,0.0,0.0,0.0,0.0,0.0,0.0,6.0896,6.5397,6.9366,7.2322,7.4238,7.4315,7.4007,7.3437,7.1534,6.7847,6.2272,0.0,0.0,0.0,0.0,0.0,0.0,0.0,0.0,0.0,0.0,0.0,0.0,0.0,0.0,0.0,0.0,0.0,0.0,0.0,0.0,0.0,0.0,0.0,0.0,0.0,4.8863,0.0,0.0,0.0,0.0,0.0,0.0,0.0,0.0,0.0,0.0,0.0,6.8069,7.2276,7.4559,7.6964,8.0002,8.0782,8.1311,0.0,0.0,0.0,0.0,0.0,0.0,0.0,0.0,0.0,0.0,0.0,0.0,0.0,0.0,7.3999,6.9203,6.8323,6.8261,6.7985,0.0,0.0,0.0,0.0,0.0,0.0,0.0,0.0,0.0,0.0,0.0,0.0,0.0,0.0,6.495,6.4141,6.1489,0.0,0.0,0.0,0.0,0.0,0.0,0.0,0.0,7.0398,7.1937,7.3483,7.3014,7.2322,7.1398,6.9206,6.4782,0.0,0.0,0.0,0.0,0.0,0.0,0.0,0.0,6.3512,6.802,7.1668,7.4207,7.5515,7.5592,7.5322,7.47,7.2245,6.8821,6.4436,6.0997,5.7626,0.0,0.0,0.0,0.0,0.0,0.0,0.0,0.0,0.0,0.0,0.0,0.0,0.0,0.0,0.0,0.0,0.0,0.0,0.0,0.0,0.0,0.0,0.0,5.1625,0.0,0.0,0.0,0.0,0.0,0.0,0.0,0.0,0.0,6.661,6.9276,7.2669,7.6569,7.8304,8.013,8.2596,0.0,0.0,0.0,0.0,0.0,0.0,0.0,8.1002,8.1807,8.0331,7.9343,8.0188,8.1078,8.189,8.2735,0.0,0.0,7.5972,7.485,7.485,7.485,7.5314,7.5867,7.6515,7.7527,7.8468,0.0,0.0,0.0,0.0,7.1287,0.0,0.0,0.0,7.3776,7.286,0.0,6.9398,0.0,0.0,0.0,0.0,6.6167,6.7936,0.0,0.0,7.5861,7.713,7.8677,7.8677,7.8253,7.7407,7.5668,7.3514,7.0629,6.2858,0.0,0.0,0.0,0.0,0.0,0.0,6.7205,7.2059,7.4668,7.6438,7.7292,7.733,7.6476,7.4784,7.236,7.0244,6.8507,6.5276,6.1968,5.8665,5.5236,0.0,0.0,0.0,0.0,0.0,0.0,0.0,0.0,0.0,0.0,0.0,0.0,0.0,0.0,0.0,0.0,0.0,0.0,0.0,0.0,5.3169,0.0,0.0,0.0,0.0,0.0,0.0,0.0,0.0,0.0,0.0,7.2904,7.483,7.7526,8.0899,0.0,0.0,0.0,0.0,8.3985,8.4023,8.3992,8.4301,8.5149,8.459,8.4361,8.5288,0.0,0.0,8.5327,8.6177,8.7028,8.7879,8.866,8.777,8.2851,8.1768,8.1652,8.1652,8.1691,8.2348,8.3863,8.4218,8.4837,8.5189,0.0,0.0,0.0,0.0,7.9446,8.0592,8.1585,8.0977,8.0446,7.9754,7.6284,0.0,0.0,0.0,0.0,0.0,0.0,7.7207,8.0131,8.167,8.2901,8.3901,8.3324,8.2631,8.1754,8.0054,7.8246,7.6214,7.2706,6.7513,6.089,0.0,0.0,0.0,0.0,6.986,7.3046,7.563,7.733,7.8138,7.8176,7.7369,7.5668,7.4322,7.2822,7.1168,6.9013,6.659,6.382,5.9858,0.0,0.0,0.0,0.0,0.0,0.0,0.0,0.0,0.0,0.0,0.0,0.0,0.0,0.0,0.0,0.0,0.0,0.0,0.0,5.4977,5.694,5.855,0.0,0.0,0.0,0.0,0.0,0.0,0.0,0.0,0.0,8.2732,8.1547,8.1539,0.0,0.0,8.6297,8.7168,8.7332,8.7372,8.7364,8.7418,0.0,8.8583,8.8012,8.7942,8.9409,8.9432,8.9431,8.9728,9.047,9.1141,9.1508,9.2218,9.2226,9.0865,8.8582,8.7112,8.7035,8.7422,8.8196,8.924,8.9975,9.071,9.398,8.8402,8.6094,8.5286,8.5709,8.6717,8.7602,8.8325,8.7478,8.6948,8.644,8.3216,8.1285,8.0131,7.6899,0.0,0.0,0.0,8.2208,8.4362,8.5401,8.6324,8.7055,8.6632,8.6132,8.5563,8.3901,8.2362,8.1016,7.9323,7.5592,6.993,0.0,0.0,6.8199,7.0821,7.3437,7.593,7.7861,7.9061,7.9523,7.8869,7.7869,7.6553,7.6015,7.4938,7.3245,7.1591,6.9667,6.7475,6.3628,6.0358,0.0,0.0,0.0,0.0,0.0,0.0,0.0,0.0,0.0,0.0,0.0,5.0625,5.3015,0.0,0.0,0.0,5.6011,5.7473,5.9319,6.1627,0.0,0.0,0.0,0.0,0.0,0.0,0.0,7.9939,8.3247,8.6363,8.9017,8.8209,8.7517,8.8055,8.8594,8.9094,8.9594,0.0,8.9748,8.9748,8.9789,9.0138,9.0948,9.0702,9.085,9.2194,9.2734,9.2943,9.3037,9.4003,9.4814,9.5014,9.5639,9.6203,9.6203,9.4539,9.2799,9.1948,9.2373,9.3186,9.4075,9.4694,9.5274,10.1212,10.0029,9.4518,9.2518,9.2979,9.2903,9.3326,9.4018,9.321,9.2441,9.1595,8.994,8.7786,8.5316,8.3708,0.0,8.414,8.5055,8.6324,8.7786,8.7863,8.8286,8.8987,8.8949,8.8872,8.8756,8.7094,8.594,8.5132,8.3439,8.1823,8.0208,7.5515,7.3399,7.4046,7.5584,7.7592,7.9931,8.0823,8.1285,8.117,7.9561,7.8292,7.74,7.733,7.6484,7.4738,7.3168,7.1521,6.9821,6.6667,6.3743,6.121,0.0,0.0,0.0,0.0,0.0,0.0,0.0,0.0,0.0,0.0,0.0,0.0,0.0,0.0,0.0,6.171,0.0,6.4083,6.716,0.0,0.0,0.0,7.6092,7.79,8.0939,8.3555,8.5316,0.0,0.0,9.2672,9.4296,9.445,9.2095,9.1633,9.1479,9.1402,9.1402,9.1402,9.1402,9.1402,9.1748,9.2728,9.3059,9.3551,9.439,9.4993,9.5448,9.558,9.668,9.7818,9.7842,9.8679,9.9197,9.9282,9.8965,9.8671,9.6241,9.6396,9.717,9.7905,9.8214,9.8562,10.4674,10.3761,10.1712,9.9481,9.725,9.6596,9.6788,9.7519,9.6673,9.6172,9.5903,9.422,9.2095,8.9671,8.9286,8.8825,8.8479,9.0017,9.0902,9.1325,9.1902,9.2018,9.1556,9.0941,9.0248,8.9586,8.8594,8.7979,8.7718,8.6055,8.5016,8.4478,8.2131,8.0015,7.8392,7.9361,8.0477,8.167,8.2554,8.267,8.2016,8.1016,7.9746,7.8253,7.7599,7.6476,7.4784,7.3738,7.2392,7.0667,6.8629,6.6353,6.382,6.171,0.0,0.0,0.0,0.0,0.0,0.0,0.0,0.0,0.0,5.9858,6.2589,0.0,6.5096,0.0,6.6898,6.9013,7.1738,7.3899,0.0,0.0,8.0592,8.2401,8.4747,8.6824,8.8748,9.0479,9.3095,9.5172,9.6172,9.725,9.7673,9.7019,9.5297,9.3873,9.3249,9.3095,9.3095,9.3133,9.3172,9.3672,9.5134,9.6499,9.7296,9.7622,9.7815,9.7958,9.7982,9.8317,9.867,9.8777,9.8965,9.9161,9.9273,9.9745,10.0001,9.9475,9.9027,9.8988,9.9839,10.0496,10.1231,10.7559,10.6674,10.552,10.3905,10.2058,10.0442,10.0058,10.0404,9.9173,9.8634,9.8557,9.6865,9.5134,9.348,9.3056,9.2402,9.171,9.2595,9.3018,9.3056,9.348,9.348,9.3018,9.2556,9.1902,9.1056,9.021,8.9594,8.9171,8.7902,8.7055,8.6671,8.5747,8.4401,8.27,8.2708,8.3016,8.3478,8.3939,8.3747,8.2909,8.2054,8.0823,7.9131,7.8253,7.6868,7.4784,7.393,7.2899,7.1514,6.986,6.816,6.6359,6.4711,6.2589,0.0,0.0,0.0,0.0,0.0,0.0,0.0,0.0,0.0,0.0,0.0,7.0937,7.2098,7.3399,7.543,7.84,8.0208,8.2439,8.5363,8.6786,8.841,9.0565,9.2249,9.3672,9.4634,9.6634,9.8173,9.8634,9.9404,9.9788,9.9442,9.8182,9.6951,9.6172,9.5951,9.5942,9.5989,9.598,9.6249,9.7326,9.8173,9.8788,9.8836,9.9106,9.9384,9.9441,9.9795,10.0111,10.0156,10.0209,10.0213,10.0264,10.062,10.0985,10.0949,10.0681,10.0604,10.1069,10.1541,10.216,11.0021,10.9098,10.7559,10.6818,10.6559,10.4097,10.2904,10.252,10.1068,10.0375,10.0144,9.8557,9.7442,9.6749,9.5874,9.5066,9.4364,9.4364,9.4364,9.4364,9.422,9.4134,9.4018,9.3903,9.3441,9.2633,9.1787,9.0979,9.0201,8.9286,8.844,8.7748,8.7594,8.7132,8.6286,8.5555,8.517,8.5047,8.5047,8.4632,8.3793,8.2939,8.167,8.0015,7.9015,7.7361,7.4976,7.4084,7.3238,7.2399,7.0975,6.9783,6.893,6.759,6.609,0.0,6.5199,0.0,0.0,0.0,0.0,0.0,0.0,0.0,0.0,7.4899,7.6976,7.9292,8.0362,8.1977,8.4524,8.617,8.8094,9.0586,9.2249,9.3749,9.5335,9.6865,9.7827,9.7827,9.925,10.026,10.026,10.0866,10.1019,10.0375,10.0183,9.975,9.9211,9.875,9.8519,9.8788,9.8904,9.8711,9.8904,9.9058,9.9211,9.925,9.975,10.0221,10.026,10.0865,10.1413,10.1422,10.1362,10.1464,10.1567,10.1606,10.1722,10.1787,10.1886,10.2,10.2043,10.2229,10.2508,11.1742,11.0934,10.9906,10.906,10.829,10.6482,10.452,10.2597,10.2251,10.1712,10.1019,10.0019,9.9519,9.9336,9.8452,9.799,9.7827,9.7827,9.7827,9.7788,9.7096,9.6442,9.5788,9.5095,9.4296,9.3441,9.2633,9.2172,9.1979,9.0441,8.9586,8.9393,8.8748,8.8017,8.7171,0.0,0.0,0.0,8.5854,8.5478,8.467,8.3824,8.2554,8.09,7.9331,0.0,7.5861,7.493,7.4084,7.3315,7.2969,0.0,0.0,0.0,0.0,0.0,0.0,0.0,0.0,0.0,0.0,0.0,7.9669,7.9908,7.8592,8.1162,8.3431,8.4593,8.6094,8.8064,9.0556,9.1672,9.3287,9.5749,9.6365,9.6942,9.798,9.899,9.9606,9.9644,10.0481,10.1058,10.1058,10.125,10.1241,10.1058,10.1048,10.1019,10.0817,9.9673,9.8865,9.8827,9.9413,9.9837,9.9875,10.0366,10.0664,10.0866,10.0904,10.1058,10.1058,10.1145,10.1356,10.1356,10.1366,10.1414,10.1527,10.2046,10.2527,10.2609,10.3176,10.3451,10.2928,10.3427,10.421,11.3327,11.2511,11.1242,11.0506,0.0,10.8367,10.6444,10.4405,10.3597,10.2751,10.1904,10.1058,10.0481,10.0067,9.9644,9.9221,9.8788,9.8788,9.8788,9.8788,9.8365,9.7711,9.6903,9.6442,9.5566,9.4335,9.3903,9.3296,9.2479,9.1633,9.074,8.9932,8.9517,8.8863,8.8064,8.8055,8.7401,8.6132,8.6094,8.5901,8.5478,8.467,8.3439,8.1747,8.0439,0.0,0.0,0.0,0.0,0.0,0.0,0.0,0.0,0.0,0.0,7.4175,7.5668,7.6969,7.7823,7.9438,8.1524,8.4016,8.6901,8.7325,8.4401,8.6555,8.8517,8.9748,9.1056,9.2681,9.4711,9.5326,9.6442,9.8481,9.8788,9.9096,9.9904,10.0404,10.0673,10.0712,10.1058,10.1279,10.1279,10.1279,10.1279,10.1279,10.1279,10.1279,10.1241,10.0596,10.0058,10.0019,10.0366,10.0673,10.0712,10.0981,10.1279,10.1279,10.1279,10.1279,10.1279,10.1279,10.1279,10.1317,10.1625,10.1962,10.2078,10.2713,10.331,10.3396,10.3751,10.4145,10.4054,10.4202,10.4559,11.4838,11.3919,11.2525,11.1863,11.1588,11.0,10.8248,10.642,10.4664,0.0,0.0,10.1818,10.1058,10.0337,10.0337,9.9904,9.925,9.925,9.925,9.925,9.9106,9.8634,9.7942,9.7634,9.6788,9.5489,9.5143,9.4296,9.2941,9.2787,9.1902,9.0509,9.0355,8.9902,8.8979,8.8756,8.7979,8.6632,8.6401,8.6247,8.6094,8.5324,8.4209,8.2785,8.1823,8.0323,7.8284,7.8061,7.763,7.6938,7.6899,7.6899,7.6938,7.7861,7.8407,7.8484,7.9977,8.1593,8.3093,8.4132,8.617,8.9564,9.2479,9.2864,8.9795,9.1248,9.2864,9.4287,9.5181,9.6297,9.7788,9.7942,9.8596,10.0173,10.0298,10.0558,10.1173,10.1279,10.1241,10.1279,10.1279,10.1279,10.1279,10.1279,10.1279,10.1279,10.1279,10.1279,10.1279,10.1202,10.1125,10.1125,10.1164,10.1241,10.1279,10.1279,10.1279,10.1279,10.1279,10.1279,10.1317,10.1433,10.152,10.1587,10.2251,10.2751,10.2866,10.353,10.4059,10.4107,10.4282,10.4648,10.5236,10.51,10.5155,11.6219,11.4891,11.4649,11.3795,11.2472,11.1413,10.9507,10.7038,10.4862,10.3405,10.2597,10.2481,10.1943,10.1135,10.1125,10.1048,10.0943,10.0943,10.0943,10.0904,10.0212,9.9875,9.9644,9.8211,9.7365,9.7057,9.5681,9.4874,9.4604,9.3873,9.3056,9.221,9.2133,9.1325,8.9778,8.9056,8.8564,8.8333,8.7594,8.6863,8.6132,8.5324,8.4777,8.447,8.2978,8.1977,8.1593,8.09,8.0516,8.04,8.04,8.0362,8.0439,8.1823,8.2716,8.2793,8.4286,8.567,8.6632,8.8132,9.0479,9.3758,9.5249,9.5095,9.3287,9.5211,9.6711,9.7019,9.7711,9.8682,9.9606,9.9683,10.0058,10.0943,10.1087,10.1212,10.1279,10.1279,10.1279,10.1279,10.1279,10.1279,10.1279,10.1279,10.1279,10.1279,10.1279,10.1279,10.1279,10.1279,10.1279,10.1279,10.1279,10.1279,10.1279,10.1279,10.1279,10.1279,10.1279,10.1317,10.1394,10.1894,10.2327,10.2404,10.3135,10.3635,10.3751,10.4366,10.4838,10.4982,10.5425,10.5974,10.6243,10.6648,10.7219,11.6433,11.5855,11.4988,11.4222,11.349,11.1667,10.9959,10.8277,10.6354,10.4901,10.3813,10.299,10.2366,10.1981,10.152,10.1279,10.1279,10.1279,10.1279,10.1279,10.0904,10.0519,10.0067,9.9259,9.8634,9.8134,9.6942,9.6134,9.5672,9.4826,9.395,9.321,9.3133,9.2518,9.1364,9.0941,9.0287,8.9363,8.8055,8.7209,8.6786,8.5978,8.5324,8.4939,8.4093,8.3478,8.3024,8.267,8.267,8.3131,8.3162,8.3354,8.3824,8.4978,8.567,8.5717,8.7248,8.8556,8.9402,9.1902,9.4048,9.5595,9.7365,9.8067,9.7259,9.8221,9.8904,9.8942,9.9673,10.0327,10.0712,10.075,10.0904,10.125,10.1279,10.1279,10.1279,10.1279,10.1279,10.1279,10.1279,10.1279,10.1279,10.1279,10.1279,10.1279,10.1279,10.1279,10.1279,10.1279,10.1317,10.1279,10.1279,10.1279,10.1279,10.1279,10.1279,10.1279,10.1279,10.151,10.1866,10.2404,10.2751,10.3251,10.3982,10.4492,10.4569,10.5251,10.5674,10.5828,10.6059,10.651,10.7059,10.8098,10.8891,11.6441,11.6431,11.4983,11.4215,11.3778,11.1641,11.0178,10.9083,10.7699,10.6408,10.5146,10.365,10.2801,10.2409,10.1756,10.1392,10.1288,10.1288,10.1298,10.1279,10.1279,10.0981,10.0375,10.0221,9.9721,9.9067,9.8211,9.7365,9.6596,9.5865,9.5027,9.4057,9.3796,9.3403,9.2787,9.2556,9.1825,9.047,8.8825,8.7863,8.7671,8.7017,8.6401,8.5824,8.5747,8.544,8.4794,8.4755,8.5055,8.5709,8.5747,8.6055,8.6671,8.7671,8.8248,8.8402,8.9825,9.1248,9.2402,9.4788,9.6557,9.7173,9.8981,10.0144,10.0337,10.0366,10.0375,10.0442,10.0866,10.1241,10.1241,10.1279,10.1279,10.1279,10.1279,10.1279,10.1279,10.1279,10.1279,10.1279,10.1279,10.1279,10.1279,10.1279,10.1279,10.1279,10.1279,10.1279,10.1279,10.1279,10.1356,10.151,10.1433,10.1317,10.1279,10.1279,10.1279,10.1279,10.151,10.1866,10.2443,10.2828,10.3366,10.4097,10.4828,10.5328,10.5443,10.5867,10.628,10.6318,10.6549,10.7098,10.8175,10.9213,10.9965,11.6593,11.613,11.5165,11.3956,11.255,11.1524,11.0198,10.8631,10.7884,10.7107,10.6093,10.4758,10.3358,10.216,10.198,10.1679,10.1244,10.1226,10.1228,10.1259,10.1279,10.1241,10.1067,10.0433,10.0067,9.9856,9.9087,9.8221,9.7452,9.7279,9.6442,9.4951,9.4104,9.3719,9.3527,9.2903,9.2402,9.221,9.0547,8.9325,8.8603,8.8487,8.841,8.8372,8.8333,8.8333,8.8025,8.8218,8.8256,8.8333,8.8333,8.8372,8.8603,8.994,9.0864,9.0902,9.2402,9.4057,9.5595,9.6095,9.7365,9.9452,9.9913,10.0414,10.1058,10.1164,10.1212,10.1173,10.1241,10.1279,10.1279,10.1279,10.1279,10.1279,10.1279,10.1279,10.1279,10.1279,10.1279,10.1279,10.1279,10.1279,10.1279,10.1279,10.1279,10.1279,10.1279,10.1279,10.1279,10.1279,10.1587,10.2058,10.1866,10.1433,10.1394,10.1317,10.1394,10.1433,10.1981,10.2481,10.2943,10.3905,10.4905,10.4943,10.5597,10.6097,10.6174,10.6356,10.6356,10.6521,10.7059,10.8021,10.9444,11.0137,11.0196,11.5877,11.5658,11.4359,11.2905,11.1574,11.1275,11.0219,10.8624,10.7868,10.7099,10.6246,10.5195,10.4201,10.33,10.2356,10.1763,10.1547,10.1061,10.0853,10.0897,10.0897,10.0897,10.0859,10.0552,10.0399,10.0333,9.9581,9.9037,9.8598,9.7864,9.6876,9.5865,9.5403,9.498,9.4489,9.4143,9.348,9.2518,9.1787,9.1056,9.0171,8.9218,8.8679,8.8679,8.8679,8.8679,8.8679,8.8679,8.891,8.9402,8.9902,9.0441,9.0941,9.2056,9.2672,9.2749,9.4287,9.5749,9.6942,9.7942,9.8981,10.0067,10.0519,10.0981,10.1241,10.1279,10.1279,10.1279,10.1279,10.1279,10.1279,10.1279,10.1279,10.1279,10.1279,10.1279,10.1279,10.1279,10.1279,10.1279,10.1279,10.1279,10.1279,10.1279,10.1279,10.1279,10.1279,10.1279,10.1279,10.1279,10.1664,10.2327,10.2251,10.2097,10.2058,10.2097,10.2058,10.2097,10.2327,10.2751,10.3943,10.4482,10.5213,10.5713,10.6136,10.6356,10.6318,10.6395,10.6395,10.6751,10.7636,10.879,10.9944,11.0598,11.0906,11.5317,11.5068,11.3558,11.216,11.1112,11.0958,11.0185,10.8851,10.7835,10.6969,10.6198,10.5351,10.4667,10.4016,10.2702,10.1979,10.1618,10.1058,10.0724,10.0592,10.0604,10.0604,10.0604,10.0604,10.0604,10.0501,10.0046,9.9697,9.9326,9.7936,9.6958,9.6491,9.6261,9.5819,9.5252,9.506,9.4366,9.3251,9.2962,9.2518,9.1825,9.071,8.9872,8.944,8.9402,8.941,8.941,8.9641,9.0017,9.0586,9.1441,9.2172,9.2787,9.3595,9.4249,9.4788,9.5903,9.7096,9.8134,9.9375,10.0183,10.0442,10.1019,10.1279,10.1279,10.1279,10.1279,10.1279,10.1279,10.1279,10.1279,10.1279,10.1279,10.1279,10.1279,10.1279,10.1279,10.1279,10.1279,10.1279,10.1279,10.1279,10.1279,10.1279,10.1279,10.1279,10.1279,10.1279,10.1279,10.1317,10.1673,10.2751,10.2943,10.2943,10.2943,10.2943,10.2943,10.302,10.3174,10.3828,10.4943,10.5174,10.552,10.6097,10.6318,10.6433,10.6472,10.6472,10.7059,10.7559,10.8406,10.9521,11.0483,11.1137,11.1395,11.5427,11.4704,11.3163,11.211,11.1485,11.0665,10.9958,10.9153,10.7837,10.6764,10.5994,10.5305,10.4575,10.3856,10.3172,10.2375,10.1521,10.1319,10.1014,10.06,10.0533,10.058,10.0604,10.0604,10.0569,10.0436,10.0383,9.9984,9.9205,9.7711,9.6805,9.6751,9.6182,9.5766,9.5616,9.5165,9.4792,9.4503,9.3973,9.3557,9.3518,9.3403,9.2518,9.1248,9.1095,9.1095,9.1171,9.1864,9.2326,9.2364,9.3095,9.3604,9.371,9.4489,9.5681,9.7019,9.7365,9.8211,9.9606,10.0067,10.0442,10.1048,10.1241,10.1279,10.1279,10.1279,10.1279,10.1279,10.1279,10.1279,10.1279,10.1279,10.1279,10.1279,10.1279,10.1279,10.1279,10.1279,10.1279,10.1279,10.1279,10.1279,10.1279,10.1279,10.1279,10.1279,10.1279,10.1317,10.1433,10.1394,10.2097,10.3289,10.3828,10.3828,10.3828,10.3828,10.3828,10.3905,10.4212,10.4905,10.529,10.5674,10.6097,10.6356,10.6395,10.6433,10.6549,10.7175,10.8175,10.8867,10.9406,11.0329,11.0944,11.1318,11.1511,11.4435,11.3217,11.2259,11.144,11.0726,11.0017,10.9381,10.8722,10.772,10.6902,10.6194,10.5446,10.4714,10.4015,10.3313,10.2643,10.2063,10.1036,10.0453,10.0213,9.9698,9.9434,9.9434,9.9434,9.9434,9.9462,9.9666,9.9516,9.9058,9.8396,9.7958,9.7486,9.6816,9.6451,9.6395,9.5841,9.53,9.483,9.4588,9.4258,9.3778,9.3672,9.3364,9.2864,9.2787,9.2787,9.2787,9.3095,9.3249,9.3287,9.4095,9.4527,9.4681,9.5874,9.6826,9.7519,9.8557,9.9452,10.0067,10.0558,10.0981,10.1241,10.1279,10.1279,10.1279,10.1279,10.1279,10.1279,10.1279,10.1279,10.1279,10.1279,10.1279,10.1279,10.1279,10.1279,10.1279,10.1279,10.1279,10.1279,10.1279,10.1279,10.1356,10.1279,10.1279,10.1279,10.1317,10.1548,10.202,10.2135,10.2751,10.4135,10.4674,10.4866,10.5482,10.4982,10.4674,10.4723,10.4943,10.5405,10.579,10.602,10.6356,10.6433,10.6433,10.6703,10.6944,10.7559,10.8675,10.9752,11.0329,11.0714,11.1329,11.1472,11.1511,11.4011,11.2785,11.2059,11.1358,11.0613,10.9692,10.9124,10.8698,10.7721,10.6912,10.6248,10.5507,10.4801,10.4093,10.3237,10.2799,10.2465,10.1319,10.0569,10.0069,9.9505,9.907,9.8829,9.8807,9.8807,9.8838,9.9005,9.9056,9.8846,9.8583,9.8272,9.7807,9.7159,9.6736,9.6562,9.6232,9.5706,9.5159,9.5117,9.4916,9.4408,9.4331,9.4407,9.4463,9.4472,9.4183,9.3749,9.3941,9.4095,9.422,9.4941,9.5528,9.5865,9.6865,9.775,9.8365,9.9413,10.0221,10.0481,10.1019,10.1279,10.1279,10.1279,10.1279,10.1279,10.1279,10.1279,10.1279,10.1279,10.1279,10.1279,10.1279,10.1279,10.1279,10.1279,10.1279,10.1317,10.1548,10.1856,10.2135,10.1943,10.1789,10.1673,10.1433,10.1471,10.1673,10.175,10.2058,10.2789,10.3058,10.3443,10.4761,10.503,10.5405,10.5867,10.5713,10.552,10.552,10.5443,10.5867,10.6097,10.6318,10.6472,10.6482,10.6713,10.7059,10.7521,10.8098,10.906,11.0291,11.0752,11.1098,11.1357,11.1472,11.1511,11.4305,11.3483,11.2712,11.1978,11.1196,10.9818,10.9245,10.9067,10.7881,10.6943,10.6224,10.5469,10.4783,10.3984,10.3148,10.272,10.2586,10.228,10.1425,10.0296,10.0028,9.9502,9.8864,9.8721,9.8699,9.8714,9.8776,9.877,9.8749,9.8163,9.7802,9.7614,9.7205,9.6712,9.5958,9.6337,9.6162,9.5692,9.5675,9.5659,9.5674,9.5564,9.5591,9.5876,9.5934,9.5368,9.3971,9.4634,9.4989,9.5104,9.5826,9.6673,9.7288,9.7673,9.8327,9.9644,10.0106,10.0519,10.1125,10.1241,10.1279,10.1279,10.1279,10.1279,10.1279,10.1279,10.1279,10.1279,10.1279,10.1279,10.1279,10.1279,10.1279,10.1279,10.1279,10.1317,10.151,10.2097,10.2904,10.3405,10.3058,10.2635,10.2443,10.2097,10.1981,10.2443,10.2635,10.2904,10.3674,10.3905,10.4251,10.4915,10.5328,10.5751,10.6097,10.6356,10.6318,10.6318,10.6203,10.6318,10.6356,10.651,10.6751,10.6867,10.7444,10.7829,10.879,10.9367,10.9906,11.0868,11.1137,11.1318,11.1434,11.1511,11.1511,11.4341,11.3519,11.2726,11.1963,11.1221,11.0155,10.9549,10.9113,10.8111,10.7364,10.6601,10.5501,10.4855,10.4374,10.3316,10.2666,10.2702,10.2567,10.204,10.1029,9.9965,9.9294,9.8958,9.8436,9.8225,9.8287,9.832,9.8434,9.8589,9.838,9.833,9.8334,9.7824,9.7511,9.7253,9.722,9.7046,9.6965,9.6593,9.6423,9.6369,9.5921,9.5729,9.5856,9.6413,9.6506,9.6251,9.602,9.5903,9.5903,9.6673,9.7519,9.8288,9.8952,9.9529,10.0029,10.0635,10.0981,10.1202,10.1279,10.1279,10.1279,10.1279,10.1279,10.1279,10.1279,10.1279,10.1279,10.1279,10.1279,10.1279,10.1279,10.1317,10.1317,10.1317,10.1625,10.2251,10.2981,10.352,10.3789,10.3674,10.352,10.3482,10.3135,10.3097,10.3366,10.3482,10.3828,10.4482,10.4713,10.5059,10.5828,10.5944,10.5944,10.6203,10.6395,10.6395,10.6395,10.6395,10.6587,10.6664,10.6818,10.7059,10.7598,10.8175,10.8867,10.9829,11.0444,11.0829,11.1126,11.1357,11.1472,11.1511,11.1511,11.1511,11.4782,11.3974,11.3167,11.2359,11.1515,11.0487,10.9766,10.9307,10.8325,10.7676,10.7102,10.5861,10.5052,10.4609,10.3557,10.2853,10.2612,10.2629,10.2406,10.183,10.0641,9.9712,9.9118,9.8263,9.7944,9.8009,9.8027,9.8145,9.8308,9.8341,9.839,9.8354,9.8139,9.7829,9.7712,9.7545,9.742,9.7166,9.678,9.6667,9.6666,9.6322,9.6139,9.6486,9.7023,9.7429,9.7708,9.7366,9.7173,9.7279,9.7711,9.8404,9.9221,9.9798,10.0221,10.0596,10.0981,10.1279,10.1279,10.1279,10.1279,10.1279,10.1279,10.1279,10.1279,10.1279,10.1279,10.1279,10.1279,10.1279,10.1317,10.1664,10.175,10.1789,10.1827,10.2327,10.3289,10.3982,10.452,10.4713,10.4559,10.4405,10.4328,10.402,10.4097,10.4212,10.4328,10.4674,10.529,10.5597,10.5982,10.6241,10.6241,10.628,10.6318,10.6395,10.6395,10.6395,10.6395,10.6741,10.6972,10.729,10.7559,10.8559,10.9252,10.9752,11.0598,11.0791,11.1098,11.1329,11.1511,11.1511,11.1511,11.1511,11.1511,11.5516,11.4745,11.3901,11.3057,11.2176,11.0781,11.0068,10.976,10.8572,10.7941,10.7541,10.6287,10.5354,10.4637,10.3868,10.3148,10.2593,10.2593,10.2648,10.2406,10.1718,10.0678,9.9155,9.8412,9.8095,9.7926,9.7926,9.7926,9.7995,9.7978,9.7892,9.7975,9.805,9.7819,9.7488,9.7376,9.7289,9.6877,9.6577,9.6641,9.6871,9.6706,9.6931,9.7477,9.7726,9.8078,9.8417,9.8669,9.8778,9.8856,9.8827,9.925,9.999,10.0183,10.0558,10.1135,10.1279,10.1279,10.1279,10.1279,10.1279,10.1279,10.1279,10.1279,10.1279,10.1279,10.1279,10.1317,10.1433,10.1433,10.1587,10.2174,10.2635,10.2751,10.2866,10.352,10.48,10.5059,10.5443,10.5905,10.5674,10.5184,10.5174,10.4597,10.4674,10.4982,10.5174,10.5559,10.5944,10.6174,10.6318,10.6395,10.6395,10.6395,10.6395,10.6395,10.6395,10.6472,10.6587,10.7059,10.7559,10.7944,10.8598,10.956,11.0137,11.0675,11.0983,11.1137,11.1252,11.1434,11.1511,11.1511,11.1511,11.1511,11.1703,11.5553,11.4745,11.3937,11.313,11.2322,11.1295,11.0524,10.9922,10.8973,10.8208,10.7515,10.6211,10.5502,10.5154,10.395,10.3311,10.3129,10.2723,10.2593,10.2666,10.2536,10.1087,9.9452,9.8895,9.8486,9.8003,9.7966,9.7892,9.7892,9.7892,9.7892,9.7909,9.8027,9.8033,9.7856,9.8065,9.8204,9.7945,9.7439,9.7252,9.7253,9.6757,9.6667,9.7174,9.785,9.8516,9.9217,10.011,10.0288,9.9788,9.976,10.0135,10.0827,10.0943,10.1019,10.1202,10.1279,10.1279,10.1279,10.1279,10.1279,10.1279,10.1279,10.1279,10.1279,10.1317,10.1317,10.1394,10.1827,10.2241,10.2404,10.302,10.3712,10.4328,10.4366,10.4559,10.5097,10.5674,10.6164,10.6318,10.6126,10.602,10.5905,10.579,10.5713,10.5905,10.5982,10.602,10.628,10.6395,10.6395,10.6395,10.6395,10.6395,10.6395,10.6395,10.6433,10.6549,10.6905,10.7521,10.8175,10.8829,10.979,11.0868,11.0829,11.1214,11.1318,11.1395,11.1511,11.1511,11.1511,11.1511,11.1511,11.1549,11.1934,11.5736,11.5222,11.4084,11.3336,11.2763,11.1698,11.0928,11.034,10.9276,10.8578,10.785,10.6539,10.5682,10.5261,10.4544,10.3913,10.3459,10.3073,10.2871,10.2648,10.2684,10.1681,10.0381,9.9824,9.9192,9.8486,9.8412,9.8226,9.7966,9.7892,9.7892,9.7909,9.7958,9.8027,9.7989,9.8212,9.8291,9.8217,9.7904,9.7761,9.7713,9.7338,9.744,9.7864,9.848,9.912,10.0019,10.085,10.1048,10.0673,10.0635,10.0827,10.1241,10.1279,10.1279,10.1279,10.1279,10.1279,10.1279,10.1279,10.1279,10.1279,10.1279,10.151,10.1741,10.1856,10.1894,10.2481,10.2866,10.3097,10.3251,10.3905,10.4751,10.5443,10.5636,10.5636,10.5636,10.6097,10.6356,10.6395,10.6395,10.6395,10.6395,10.6395,10.6395,10.6356,10.628,10.6318,10.6395,10.6395,10.6395,10.6395,10.6395,10.6395,10.6395,10.6395,10.6626,10.6751,10.7444,10.8021,10.8983,10.9752,11.0521,11.128,11.1434,11.1511,11.1511,11.1511,11.1511,11.1511,11.1511,11.1511,11.1511,11.1819,11.2203,11.5993,11.5846,11.4341,11.3666,11.3336,11.1992,11.1295,11.0891,10.9643,10.8909,10.8431,10.7183,10.614,10.5238,10.5286,10.4768,10.3694,10.3776,10.3391,10.3038,10.2758,10.2201,10.1514,10.0715,10.0009,9.9341,9.9229,9.8895,9.8486,9.8226,9.804,9.8077,9.8021,9.7926,9.7995,9.7995,9.7961,9.8061,9.8071,9.8076,9.8154,9.8091,9.8305,9.8831,9.9287,9.9846,10.0543,10.1098,10.1241,10.1279,10.1279,10.1241,10.1279,10.1279,10.1279,10.1279,10.1317,10.1317,10.1471,10.1548,10.1587,10.1741,10.1741,10.1856,10.2558,10.2751,10.2981,10.352,10.3943,10.4097,10.4366,10.4866,10.5482,10.6087,10.6318,10.6356,10.6395,10.6395,10.6395,10.6395,10.6395,10.6395,10.6395,10.6395,10.6395,10.6395,10.6395,10.6395,10.6395,10.6395,10.6395,10.6395,10.6395,10.6395,10.6395,10.6395,10.6703,10.7059,10.8021,10.8829,10.9944,11.0675,11.1126,11.1511,11.1511,11.1511,11.1511,11.1511,11.1511,11.1511,11.1511,11.1511,11.1549,11.2088,11.256,11.5993,11.592,11.4965,11.4158,11.3519,11.2579,11.1772,11.1111,11.0157,10.9349,10.8688,10.7755,10.6874,10.6067,10.5723,10.5358,10.5061,10.4738,10.4299,10.3706,10.2963,10.2684,10.2275,10.1607,10.0827,10.0232,10.0046,9.9898,9.9638,9.9081,9.8858,9.8783,9.8392,9.7978,9.8081,9.8189,9.8192,9.839,9.8439,9.8466,9.8557,9.8604,9.8792,9.928,9.9932,10.0411,10.0764,10.1119,10.1269,10.1279,10.1279,10.1279,10.1279,10.1279,10.1279,10.1317,10.1356,10.1625,10.2164,10.2327,10.2597,10.3097,10.3135,10.3405,10.3558,10.3635,10.3712,10.402,10.4443,10.5059,10.5597,10.5982,10.6174,10.6318,10.6395,10.6395,10.6395,10.6395,10.6395,10.6395,10.6395,10.6395,10.6395,10.6395,10.6395,10.6395,10.6395,10.6395,10.6395,10.6395,10.6395,10.6395,10.6395,10.6395,10.6472,10.6626,10.7175,10.7636,10.8559,10.9483,11.0598,11.1126,11.1434,11.1511,11.1511,11.1511,11.1511,11.1511,11.1511,11.1511,11.1511,11.1588,11.1819,11.2368,11.3137,11.5993,11.592,11.5112,11.4341,11.3556,11.2726,11.1955,11.1148,11.034,10.9533,10.8762,10.7976,10.7168,10.6397,10.6082,10.592,10.5689,10.5278,10.4653,10.404,10.3464,10.313,10.2666,10.2257,10.1626,10.0975,10.0864,10.0715,10.0269,9.9935,9.9638,9.9675,9.9192,9.8962,9.8724,9.8734,9.8693,9.8605,9.8673,9.8714,9.8792,9.8807,9.9005,9.9472,10.0215,10.073,10.0809,10.1109,10.125,10.1279,10.1279,10.1317,10.1317,10.1317,10.1317,10.1317,10.175,10.2058,10.2558,10.2981,10.3366,10.3866,10.3905,10.4135,10.4328,10.4453,10.4713,10.502,10.5482,10.5944,10.6318,10.6395,10.6395,10.6395,10.6395,10.6395,10.6395,10.6395,10.6395,10.6395,10.6395,10.6395,10.6395,10.6395,10.6395,10.6395,10.6395,10.6395,10.6395,10.6395,10.6395,10.6395,10.6395,10.6433,10.651,10.6944,10.7675,10.8329,10.9136,11.0098,11.1098,11.1357,11.1511,11.1511,11.1511,11.1511,11.1511,11.1511,11.1511,11.1511,11.1549,11.1703,11.2175,11.2945,11.3753,11.5993,11.592,11.5259,11.4451,11.3534,11.2873,11.2065,11.1148,11.0487,10.9716,10.8799,10.8049,10.7388,10.6544,10.6439,10.6211,10.6024,10.5615,10.5117,10.4653,10.4319,10.3762,10.3186,10.2889,10.2498,10.1755,10.1681,10.131,10.0938,10.0567,10.0492,10.0455,10.0269,9.9927,9.9615,9.9689,9.9616,9.9265,9.9344,9.9253,9.9198,9.919,9.942,9.9868,10.0411,10.0869,10.0968,10.1167,10.1279,10.1279,10.1279,10.1356,10.1471,10.151,10.1471,10.1548,10.2327,10.2943,10.3289,10.3712,10.4135,10.4212,10.4328,10.4636,10.5136,10.5328,10.5597,10.5982,10.628,10.628,10.6395,10.6395,10.6395,10.6395,10.6395,10.6395,10.6395,10.6395,10.6395,10.6395,10.6395,10.6395,10.6395,10.6395,10.6395,10.6395,10.6395,10.6395,10.6395,10.6395,10.6395,10.6395,10.6395,10.6741,10.6933,10.7559,10.8252,10.8944,10.9752,11.0444,11.1291,11.1434,11.1511,11.1511,11.1511,11.1511,11.1511,11.1511,11.1511,11.1511,11.178,11.2088,11.2753,11.3522,11.433,11.5993,11.5993,11.5846,11.4929,11.3703,11.3446,11.2506,11.1331,11.1038,11.0157,10.8872,10.8615,10.7697,10.6749,10.6585,10.6746,10.6717,10.6359,10.6046,10.573,10.5285,10.4579,10.391,10.3743,10.3316,10.2721,10.2573,10.2461,10.2053,10.1681,10.1347,10.1161,10.0752,10.0428,10.0592,10.0727,10.066,10.036,10.0478,10.0503,10.0287,10.0241,10.0316,10.0574,10.0874,10.0989,10.1106,10.1228,10.1279,10.1279,10.1279,10.1702,10.2251,10.2404,10.2443,10.2558,10.3174,10.3866,10.4376,10.4751,10.529,10.5751,10.5828,10.5867,10.6049,10.6126,10.6174,10.6251,10.6395,10.6395,10.6395,10.6395,10.6395,10.6395,10.6472,10.6472,10.6472,10.651,10.651,10.6587,10.651,10.6395,10.6395,10.6395,10.6395,10.6395,10.6395,10.6395,10.6395,10.6395,10.6395,10.6395,10.6395,10.6895,10.7405,10.8213,10.8983,10.9521,11.0175,11.0598,11.1214,11.1434,11.1511,11.1511,11.1511,11.1511,11.1511,11.1511,11.1511,11.1511,11.1972,11.2472,11.3176,11.3907,11.4753,11.5993,11.5956,11.5553,11.4708,11.3666,11.313,11.2322,11.1331,11.1184,11.0304,10.9166,10.8725,10.7918,10.6785,10.6481,10.6755,10.6971,10.7004,10.6694,10.6361,10.5991,10.5396,10.469,10.4616,10.4096,10.3724,10.3724,10.3427,10.2758,10.2332,10.2164,10.2034,10.1681,10.1489,10.1396,10.1592,10.1533,10.1407,10.157,10.1721,10.1547,10.1447,10.1392,10.1394,10.123,10.1154,10.1178,10.1268,10.1548,10.1894,10.1981,10.2443,10.3097,10.3597,10.3674,10.352,10.4059,10.4636,10.5146,10.5443,10.5982,10.6241,10.6395,10.6395,10.6395,10.6356,10.6395,10.6395,10.6395,10.6395,10.6395,10.6395,10.6395,10.6472,10.678,10.7059,10.7059,10.7098,10.7059,10.7021,10.6741,10.6587,10.6395,10.6395,10.6395,10.6395,10.6395,10.6433,10.6433,10.651,10.6587,10.6818,10.6982,10.7636,10.829,10.906,10.9598,11.0137,11.056,11.0983,11.1214,11.1434,11.1511,11.1511,11.1511,11.1511,11.1511,11.1511,11.1511,11.1626,11.2203,11.2829,11.3522,11.4253,11.5149,11.5993,11.592,11.5149,11.4341,11.3556,11.2726,11.1955,11.1331,11.1221,11.0304,10.8945,10.8725,10.7918,10.6764,10.6481,10.6689,10.7019,10.72,10.7025,10.6807,10.6696,10.6213,10.5656,10.5359,10.5025,10.443,10.4653,10.443,10.339,10.3223,10.3241,10.3279,10.3241,10.3035,10.282,10.2925,10.2525,10.235,10.2408,10.2733,10.274,10.2593,10.2402,10.2364,10.1961,10.1823,10.1958,10.2019,10.2318,10.2674,10.2943,10.3251,10.4059,10.4751,10.4866,10.4597,10.502,10.529,10.5559,10.5905,10.629,10.6395,10.6395,10.6395,10.6395,10.6395,10.6395,10.6395,10.6395,10.6395,10.6395,10.6587,10.6664,10.6856,10.7444,10.7944,10.7944,10.7944,10.7944,10.7675,10.7164,10.6972,10.6982,10.6867,10.6982,10.6751,10.6751,10.678,10.6818,10.6895,10.701,10.7405,10.7829,10.8521,10.9213,10.9944,11.0367,11.0637,11.0983,11.128,11.1395,11.1511,11.1511,11.1511,11.1511,11.1511,11.1511,11.1511,11.1511,11.178,11.2445,11.3099,11.3753,11.4714,11.5726,11.5993,11.592,11.5112,11.4341,11.3556,11.2726,11.1919,11.1258,11.1221,11.0304,10.8909,10.8725,10.7918,10.6749,10.6565,10.6792,10.7019,10.7161,10.7302,10.729,10.7309,10.6937,10.6362,10.6269,10.5805,10.5248,10.5248,10.469,10.4207,10.4505,10.4765,10.469,10.4616,10.482,10.4554,10.4383,10.4317,10.3942,10.3808,10.3718,10.3629,10.3664,10.3621,10.3603,10.347,10.3336,10.3259,10.3241,10.3482,10.3635,10.3751,10.4135,10.4828,10.4992,10.552,10.5905,10.6213,10.6241,10.629,10.6318,10.651,10.651,10.6444,10.6395,10.6395,10.6395,10.6395,10.6395,10.6433,10.6587,10.6828,10.7175,10.7444,10.7829,10.8252,10.8636,10.8752,10.879,10.879,10.8752,10.8406,10.8059,10.7867,10.7713,10.7559,10.729,10.7098,10.7175,10.728,10.7444,10.7829,10.8329,10.8675,10.9329,10.9906,11.0675,11.0868,11.1137,11.128,11.1511,11.1511,11.1511,11.1511,11.1511,11.1511,11.1511,11.1511,11.1511,11.1511,11.2011,11.2791,11.3368,11.3907,11.5022,11.6187,11.5993,11.5883,11.4635,11.3901,11.3424,11.2286,11.1552,11.1258,11.1184,11.056,10.9533,10.8945,10.7918,10.6675,10.6502,10.6673,10.6978,10.7118,10.7335,10.7568,10.7569,10.742,10.716,10.7012,10.6659,10.6176,10.6251,10.6195,10.5656,10.5173,10.521,10.5285,10.5248,10.5192,10.5672,10.5505,10.5485,10.5482,10.5541,10.5392,10.5048,10.4736,10.4607,10.4569,10.4184,10.402,10.3982,10.3905,10.4174,10.4405,10.4569,10.4982,10.5597,10.5905,10.6213,10.7021,10.7136,10.7136,10.7098,10.6741,10.678,10.6856,10.6751,10.6395,10.6395,10.6472,10.6741,10.7126,10.7136,10.729,10.7675,10.8136,10.829,10.8598,10.9136,10.9444,10.9637,10.9637,10.9637,10.9637,10.9637,10.929,10.8944,10.8713,10.8521,10.8252,10.8098,10.8098,10.8213,10.8329,10.8829,10.9483,10.979,11.0175,11.0675,11.1252,11.1203,11.1357,11.1357,11.1511,11.1511,11.1511,11.1511,11.1511,11.1511,11.1511,11.1511,11.1549,11.1588,11.2329,11.3176,11.3753,11.4407,11.5407,11.638,11.5699,11.5589,11.4378,11.3813,11.3483,11.2102,11.1405,11.1221,11.1221,11.0744,10.9863,10.8909,10.7661,10.667,10.6418,10.6606,10.6918,10.6978,10.7218,10.7415,10.755,10.7569,10.7495,10.7495,10.7254,10.6734,10.7142,10.7086,10.664,10.6232,10.5991,10.5805,10.6028,10.6028,10.6118,10.625,10.6393,10.6685,10.6714,10.6596,10.6309,10.5735,10.55,10.5251,10.4905,10.452,10.452,10.4597,10.4982,10.5251,10.5443,10.5751,10.6213,10.6597,10.6944,10.7559,10.7752,10.8175,10.8098,10.7829,10.7559,10.7559,10.7559,10.7251,10.7175,10.7059,10.7213,10.7944,10.7982,10.8329,10.8752,10.8983,10.9213,10.9521,10.9983,11.0291,11.0483,11.0444,11.0444,11.0521,11.0521,11.0521,11.0214,10.9867,10.956,10.9252,10.9136,10.906,10.9175,10.929,10.979,11.0444,11.056,11.0829,11.1098,11.1472,11.1511,11.1511,11.1511,11.1511,11.1511,11.1511,11.1511,11.1511,11.1511,11.1511,11.1511,11.1588,11.1752,11.2522,11.3291,11.4214,11.5022,11.5918,11.6457,11.4892,11.4855,11.4745,11.4268,11.3556,11.2689,11.1882,11.1331,11.1258,11.0707,10.9738,10.849,10.7388,10.6581,10.6397,10.6523,10.6751,10.6918,10.7158,10.7355,10.751,10.7606,10.7606,10.7569,10.7532,10.7458,10.7569,10.7532,10.7458,10.716,10.7235,10.7402,10.7069,10.7386,10.7532,10.7394,10.7465,10.764,10.7558,10.7376,10.7094,10.6668,10.628,10.6203,10.6203,10.6203,10.6203,10.601,10.5944,10.6136,10.6097,10.629,10.6636,10.7098,10.7559,10.8098,10.8598,10.9136,10.9406,10.8944,10.8713,10.8752,10.8636,10.8367,10.8252,10.8559,10.8752,10.8752,10.8829,10.8944,10.929,10.956,11.006,11.0291,11.0637,11.0906,11.1098,11.1175,11.1203,11.1357,11.1329,11.1137,11.1098,11.0675,11.0444,11.0175,10.9867,10.979,11.0175,11.0367,11.0818,11.1242,11.128,11.1357,11.1395,11.1511,11.1511,11.1511,11.1511,11.1511,11.1511,11.1511,11.1511,11.1511,11.1511,11.1511,11.1588,11.1819,11.2137,11.2703,11.3445,11.4522,11.5291,11.6072,11.6418,11.4488,11.4121,11.4598,11.4341,11.3556,11.2726,11.2212,11.1882,11.1405,11.045,10.9239,10.8578,10.7587,10.667,10.6397,10.6502,10.671,10.6918,10.7118,10.7316,10.7491,10.7606,10.7606,10.7606,10.7606,10.7606,10.7606,10.7606,10.7569,10.7606,10.7606,10.7644,10.7702,10.7981,10.8118,10.858,10.8785,10.8697,10.8611,10.845,10.7483,10.7381,10.6933,10.6433,10.6395,10.6395,10.6356,10.6356,10.6395,10.6433,10.6472,10.679,10.7175,10.7636,10.8252,10.8944,10.9483,11.0098,11.0483,10.979,10.8944,10.8906,10.8867,10.8944,10.9098,10.8944,10.9252,10.9444,10.9713,10.979,11.0521,11.0791,11.1021,11.1098,11.1214,11.1434,11.1511,11.1511,11.1511,11.1472,11.1472,11.1434,11.1434,11.1434,11.1242,11.106,11.0752,11.0598,11.0868,11.1098,11.1357,11.1511,11.1511,11.1511,11.1511,11.1511,11.1511,11.1511,11.1511,11.1511,11.1511,11.1511,11.1511,11.1511,11.1626,11.178,11.1972,11.2165,11.2665,11.3407,11.4214,11.5099,11.5764,11.6264,11.638,11.3974,11.335,11.4084,11.4121,11.3556,11.2983,11.2616,11.2249,11.1552,11.0304,10.8835,10.8725,10.7918,10.6743,10.6397,10.6439,10.6627,10.6796,10.7019,10.7181,10.7357,10.7549,10.7587,10.7606,10.7606,10.7606,10.7606,10.7606,10.7606,10.7606,10.7606,10.7701,10.7852,10.8201,10.864,10.9477,10.9938,10.9901,10.938,10.9347,10.8289,10.7825,10.779,10.7213,10.7328,10.7318,10.7367,10.7405,10.7328,10.7328,10.7357,10.7559,10.7944,10.8406,10.906,10.9829,11.0483,11.0906,11.0944,11.0598,10.9675,10.9906,10.9867,10.9829,10.9675,10.9637,11.0175,11.0483,11.0598,11.0829,11.1511,11.1395,11.1368,11.1318,11.1357,11.1511,11.1511,11.1511,11.1511,11.1511,11.1511,11.1511,11.1511,11.1511,11.1434,11.1318,11.1203,11.1049,11.1203,11.1357,11.1434,11.1511,11.1511,11.1511,11.1511,11.1511,11.1511,11.1511,11.1511,11.1511,11.1511,11.1549,11.1549,11.1549,11.1742,11.2099,11.256,11.306,11.3637,11.4253,11.5022,11.5792,11.5984,11.6418,11.6418,11.3226,11.2543,11.3336,11.363,11.3519,11.3593,11.313,11.2432,11.1552,11.034,10.9019,10.8835,10.7954,10.6743,10.6507,10.6418,10.6481,10.6648,10.6874,10.7079,10.7277,10.7433,10.7549,10.7606,10.7606,10.7606,10.7606,10.7606,10.7606,10.7606,10.7606,10.7721,10.8,10.8378,10.8623,10.9614,11.0392,11.0599,10.952,10.9574,10.944,10.8587,10.8406,10.8136,10.8367,10.8367,10.8098,10.829,10.829,10.8329,10.8367,10.8559,10.8867,10.9483,10.9993,11.0291,11.1021,11.1357,11.1472,11.1395,11.1203,11.106,11.0857,11.0972,11.1242,11.128,11.1137,11.1175,11.128,11.1357,11.1511,11.1511,11.1511,11.1549,11.1549,11.1742,11.178,11.178,11.1857,11.178,11.1626,11.1511,11.1511,11.1511,11.1511,11.1472,11.1511,11.1511,11.1549,11.1511,11.1511,11.1511,11.1511,11.1511,11.1511,11.1511,11.1511,11.1511,11.1549,11.1588,11.1703,11.1819,11.178,11.1703,11.2214,11.2868,11.3483,11.406,11.4676,11.5253,11.5792,11.633,11.6446,11.6522,11.6561,11.313,11.2469,11.3263,11.3299,11.2932,11.3409,11.3446,11.3006,11.1808,11.0597,10.9643,10.9092,10.8248,10.7352,10.6691,10.6507,10.6492,10.6606,10.6833,10.7019,10.7198,10.7433,10.7568,10.7606,10.7606,10.7606,10.7606,10.7625,10.7606,10.7663,10.7625,10.7739,10.8234,10.8806,10.9353,11.0079,11.0691,11.0975,11.067,11.0517,11.0175,10.9598,10.8983,10.8367,10.879,10.8867,10.8559,10.8906,10.9098,10.9136,10.9136,10.929,10.9637,11.0263,11.0483,11.0868,11.1472,11.1472,11.1511,11.1472,11.1511,11.1511,11.1511,11.1511,11.1511,11.1511,11.1511,11.1511,11.1511,11.1511,11.1511,11.1511,11.1549,11.1665,11.1819,11.2242,11.2395,11.2368,11.2368,11.2203,11.2011,11.1819,11.1742,11.1819,11.1819,11.178,11.1819,11.1665,11.1665,11.1549,11.1511,11.1511,11.1511,11.1511,11.1549,11.1895,11.1972,11.1934,11.1857,11.178,11.1895,11.2252,11.2599,11.2829,11.3291,11.3753,11.4407,11.5099,11.5687,11.6264,11.6418,11.6484,11.6484,11.6599,11.6792,11.313,11.2506,11.3263,11.3152,11.2579,11.3263,11.3336,11.2653,11.1625,11.0744,11.0032,10.9386,10.8762,10.8028,10.7514,10.6948,10.6874,10.6964,10.6783,10.6971,10.7118,10.7296,10.7452,10.755,10.7606,10.7625,10.7701,10.7702,10.7758,10.7796,10.7945,10.8182,10.8533,10.9131,10.9763,11.0365,11.0767,11.0958,11.083,11.078,11.056,11.0252,10.979,10.9521,10.956,10.9675,10.9367,10.9444,10.979,10.9752,10.9867,11.0021,11.0483,11.0714,11.0944,11.1357,11.1511,11.1511,11.1511,11.1511,11.1511,11.1511,11.1511,11.1511,11.1511,11.1511,11.1511,11.1511,11.1511,11.1511,11.1511,11.1511,11.1703,11.1819,11.228,11.2753,11.3176,11.3137,11.3137,11.2945,11.2753,11.2434,11.2203,11.2126,11.2252,11.2175,11.2175,11.2049,11.1934,11.1934,11.2011,11.2165,11.228,11.2472,11.2599,11.2676,11.2637,11.2406,11.2406,11.2395,11.2742,11.3176,11.356,11.3945,11.4214,11.4676,11.5407,11.6072,11.6264,11.638,11.6457,11.6484,11.6484,11.6792,11.71,11.3189,11.2616,11.3336,11.3167,11.2616,11.3079,11.2579,11.1295,11.1258,11.0781,11.0105,11.0032,10.9459,10.8909,10.8725,10.8248,10.7645,10.7593,10.7263,10.6951,10.6992,10.7155,10.7279,10.7434,10.7568,10.7645,10.7777,10.7926,10.7945,10.8109,10.8398,10.8695,10.8928,10.9468,10.9995,11.0471,11.0817,11.0978,11.094,11.1011,11.1021,11.0714,11.056,11.0521,11.0829,11.0868,11.0791,11.0944,11.1126,11.1242,11.1318,11.1395,11.1472,11.1511,11.1511,11.1472,11.1511,11.1511,11.1511,11.1511,11.1511,11.1511,11.1626,11.1549,11.1511,11.1511,11.1511,11.1511,11.1511,11.1511,11.1511,11.1742,11.1983,11.2368,11.2829,11.3368,11.3907,11.4022,11.4022,11.3945,11.3791,11.356,11.3368,11.3214,11.2906,11.2983,11.306,11.3099,11.2983,11.2791,11.2945,11.333,11.3483,11.3714,11.3714,11.3483,11.3368,11.3137,11.3407,11.3483,11.383,11.4099,11.4407,11.4714,11.5022,11.5484,11.5995,11.6264,11.6418,11.6522,11.6638,11.683,11.6984,11.7292,11.7677,11.3974,11.335,11.4121,11.3644,11.2432,11.2065,11.1588,11.1221,11.1221,11.1001,11.0817,11.023,10.99,10.9606,10.9055,10.8725,10.8321,10.7924,10.7684,10.7425,10.7087,10.7029,10.7118,10.7279,10.7472,10.7701,10.7945,10.82,10.8343,10.8501,10.8708,10.8928,10.9254,10.9712,11.0173,11.0614,11.0941,11.1151,11.1061,11.1231,11.1395,11.1175,11.106,11.0944,11.1329,11.1252,11.0983,11.1329,11.1434,11.1511,11.1511,11.1511,11.1511,11.1511,11.1511,11.1511,11.1511,11.1511,11.1511,11.1511,11.1549,11.1742,11.206,11.1906,11.1742,11.1626,11.1626,11.1549,11.1511,11.1511,11.1703,11.1934,11.2291,11.2791,11.3445,11.4291,11.4791,11.4907,11.4907,11.483,11.4714,11.4445,11.4291,11.3984,11.3714,11.3868,11.3945,11.4022,11.4022,11.383,11.3945,11.433,11.4407,11.4561,11.4253,11.3984,11.3945,11.3907,11.4253,11.4522,11.4753,11.5022,11.5264,11.5495,11.5715,11.5984,11.633,11.6484,11.6534,11.6792,11.6946,11.7215,11.7523,11.7984,11.8446,11.4231,11.4121,11.4598,11.4048,11.2873,11.2029,11.1515,11.1258,11.1221,11.1221,11.1148,11.0707,11.045,11.0414,11.001,10.9606,10.9239,10.8894,10.8407,10.7536,10.7368,10.7124,10.7086,10.7178,10.7433,10.7702,10.8109,10.8519,10.8759,10.9006,10.9232,10.9406,10.9621,10.999,11.043,11.0793,11.1037,11.1296,11.144,11.15,11.1511,11.1511,11.1137,11.0944,11.1329,11.106,11.0829,11.1329,11.1434,11.1511,11.1511,11.1511,11.1511,11.1511,11.1511,11.1511,11.1511,11.1511,11.1549,11.1895,11.1934,11.2214,11.2714,11.2906,11.2599,11.2395,11.1972,11.1588,11.1549,11.1549,11.1857,11.2165,11.2703,11.3214,11.4253,11.533,11.5572,11.5726,11.5715,11.5676,11.5484,11.5253,11.4984,11.4676,11.4676,11.4945,11.5022,11.4984,11.4945,11.483,11.4984,11.533,11.5291,11.5253,11.4907,11.4753,11.4907,11.5061,11.5291,11.5561,11.5715,11.5792,11.588,11.611,11.6369,11.6484,11.6484,11.6534,11.6572,11.6946,11.7484,11.7946,11.8446,11.9023,11.9523,11.4194,11.4782,11.4745,11.4231,11.3497,11.2579,11.1808,11.1258,11.1111,11.1111,11.1038,11.1184,11.1038,11.0781,11.0744,11.056,11.012,10.9753,10.9077,10.7813,10.7988,10.7688,10.7279,10.7229,10.7697,10.7963,10.8376,10.8968,10.9264,10.9538,10.986,11.0042,11.0099,11.0376,11.0754,11.0917,11.1132,11.1396,11.15,11.1511,11.1511,11.1511,11.1511,11.1472,11.1511,11.1434,11.1472,11.1511,11.1511,11.1511,11.1511,11.1511,11.1511,11.1511,11.1511,11.1511,11.1511,11.1665,11.1857,11.2214,11.2637,11.3022,11.3599,11.3753,11.3483,11.2829,11.2252,11.1857,11.178,11.1819,11.2011,11.2714,11.3291,11.4022,11.4984,11.5753,11.6072,11.6149,11.6138,11.6099,11.6061,11.583,11.5803,11.5522,11.5407,11.5907,11.5984,11.583,11.5753,11.5638,11.5753,11.6061,11.5957,11.588,11.5907,11.583,11.6099,11.6253,11.6215,11.6215,11.6138,11.6253,11.6446,11.6484,11.6484,11.6484,11.6495,11.6534,11.6792,11.7407,11.7984,11.8715,11.9331,11.9946,12.0369,11.5149,11.4745,11.4121,11.3776,11.3409,11.2065,11.1405,11.1148,11.0524,11.0304,11.0377,11.0817,11.0854,11.045,11.1001,11.1001,11.0854,11.034,10.9811,10.9252,10.8997,10.8367,10.7849,10.8054,10.8279,10.8453,10.8881,10.953,11.0009,11.0311,11.0418,11.0471,11.0562,11.0805,11.0975,11.1096,11.1296,11.15,11.1511,11.1511,11.1511,11.1511,11.1511,11.1511,11.1511,11.1511,11.1511,11.1511,11.1511,11.1511,11.1511,11.1511,11.1511,11.1511,11.1511,11.1511,11.1626,11.1895,11.2395,11.2791,11.3176,11.383,11.4291,11.4291,11.3984,11.3176,11.2637,11.2319,11.2165,11.2165,11.2434,11.3214,11.3984,11.4791,11.5599,11.6061,11.6484,11.6484,11.6484,11.6484,11.6484,11.6457,11.6457,11.6418,11.638,11.638,11.6369,11.6292,11.6253,11.6176,11.6099,11.6292,11.633,11.633,11.6484,11.6484,11.6484,11.6484,11.6369,11.6407,11.6484,11.6484,11.6484,11.6484,11.6484,11.6484,11.6495,11.6534,11.6907,11.7753,11.86,11.9292,12.0023,12.0639,12.0997,11.5406,11.5222,11.4451,11.3681,11.2983,11.2102,11.1368,11.0671,11.0157,10.9569,10.9224,11.001,11.0414,11.012,11.0854,11.1221,11.1148,11.0781,11.0267,10.9928,10.977,10.9192,10.8915,10.8862,10.8839,10.9008,10.9497,11.0079,11.064,11.0804,11.0829,11.0841,11.0965,11.1049,11.1116,11.1258,11.1374,11.1511,11.1511,11.1511,11.1511,11.1511,11.1511,11.1511,11.1511,11.1511,11.1511,11.1511,11.1511,11.1511,11.1511,11.1511,11.1511,11.1511,11.1703,11.1983,11.2175,11.2406,11.3099,11.3599,11.3945,11.4638,11.5291,11.5418,11.533,11.4599,11.3791,11.3445,11.3176,11.3176,11.3407,11.406,11.4522,11.5176,11.583,11.633,11.6484,11.6484,11.6484,11.6484,11.6484,11.6495,11.6457,11.6457,11.6457,11.6418,11.6446,11.6484,11.6484,11.6484,11.6484,11.6484,11.6484,11.6484,11.6484,11.6484,11.6484,11.6484,11.6484,11.6484,11.6484,11.6484,11.6484,11.6484,11.6484,11.6484,11.6534,11.6715,11.7446,11.8369,11.9177,11.9946,12.06,12.1177,12.1343,11.5332,11.5699,11.4818,11.3681,11.2469,11.2249,11.1368,11.0157,10.9863,10.9004,10.8049,10.9261,10.9753,11.012,11.0781,11.1074,11.1184,11.1038,11.0634,11.0508,11.0496,11.0145,10.9795,10.9486,10.9561,10.9705,11.0073,11.0481,11.0953,11.1037,11.1096,11.1158,11.1193,11.1228,11.1269,11.1352,11.1396,11.1489,11.1511,11.1511,11.1511,11.1511,11.1511,11.1511,11.1511,11.1511,11.1511,11.1511,11.1511,11.1511,11.1549,11.1665,11.178,11.1857,11.2088,11.2406,11.2829,11.333,11.4022,11.4676,11.5061,11.5572,11.6187,11.638,11.6215,11.5792,11.4945,11.4561,11.4291,11.4137,11.4368,11.4638,11.5061,11.5522,11.6099,11.6484,11.6484,11.6484,11.6484,11.6484,11.6484,11.6484,11.6484,11.6484,11.6484,11.6484,11.6484,11.6484,11.6484,11.6484,11.6484,11.6484,11.6484,11.6484,11.6484,11.6484,11.6484,11.6484,11.6484,11.6484,11.6484,11.6484,11.6484,11.6484,11.6484,11.6599,11.6907,11.7253,11.8061,11.8985,11.9562,12.0254,12.0946,12.142,12.1497,11.5479,11.4892,11.3497,11.2653,11.2322,11.1735,11.0891,10.9995,10.9276,10.8431,10.7997,10.8453,10.9019,10.9129,11.0597,11.1207,11.1265,11.1265,11.1338,11.1269,11.1341,11.1235,11.0992,11.059,11.0477,11.0422,11.0504,11.0893,11.1037,11.1193,11.1319,11.1374,11.1385,11.1407,11.1457,11.1478,11.1517,11.1588,11.1665,11.1665,11.1665,11.1626,11.1511,11.1511,11.1511,11.1511,11.1511,11.1511,11.1511,11.1511,11.1588,11.1895,11.2203,11.2445,11.2753,11.3137,11.3522,11.4214,11.4907,11.5291,11.561,11.6072,11.6457,11.6457,11.6369,11.6369,11.5792,11.5638,11.5291,11.4791,11.4907,11.5099,11.5456,11.5907,11.6446,11.6484,11.6484,11.6484,11.6484,11.6484,11.6484,11.6484,11.6484,11.6484,11.6484,11.6484,11.6484,11.6484,11.6484,11.6484,11.6484,11.6484,11.6484,11.6484,11.6484,11.6484,11.6484,11.6484,11.6484,11.6484,11.6484,11.6484,11.6484,11.6484,11.6676,11.683,11.7215,11.7792,11.8677,11.9523,11.9908,12.0485,12.1216,12.1612,12.1612]}]]